<?xml version="1.0" encoding="UTF-8" standalone="no" ?>
<gpx xmlns="http://www.topografix.com/GPX/1/1" xmlns:xsi="http://www.w3.org/2001/XMLSchema-instance" xsi:schemaLocation="http://www.topografix.com/GPX/1/1 http://www.topografix.com/GPX/1/1/gpx.xsd" version="1.1" creator="VisuGPX - https://www.visugpx.com">
  <metadata>
    <name>Tours to Bourges</name>
    <desc><![CDATA[Tracé récupéré et modifié de http://www.velocanauxdodo.fr/?page_id=5108]]></desc>
  </metadata>
  <wpt lat="47.26835" lon="1.86209">
    <ele>89</ele>
    <name><![CDATA[Camping Municipal Val Rose - Mennetou sur Cher [<51] (07/05-07/09) (90m) +33254980119]]></name>
    <desc><![CDATA[description=Rue de Val Rose 41320 Mennetou-sur-Cher
Tél : 02.54.98.11.02
Mail : mairie.mennetou@wanadoo.fr

OUVERTURE DU CAMPING DU 30 MAI 2019 AU 1er SEPTEMBRE 2019

Horaires d'ouverture :
Du lundi au dimanche
7h00 - 11h00 et 17h00 - 21h00

http://mennetou.fr/tourisme/se-loger-restauration/camping-municipal
name=Camping Municipal Val Rose - Mennetou sur Cher [<51] (07/05-07/09) (90m) +33254980119]]></desc>
  </wpt>
  <wpt lat="47.37073" lon="0.72431">
    <ele>48</ele>
    <name><![CDATA[Camping Val de Loire - St. Avertin (37) (01/02-15/12) -CCA (49m) +33247278747]]></name>
    <desc><![CDATA[description=Camping Onlycamp Tours Val de Loire St 61 rue de Rochepinard 37550 Saint-Avertin

Autre tarif	de 10.10	€	à 12.30	€	Pour 1 personne sans véhicule sans électricité en tente
Taxe de séjour	0.66	€	Pour les plus de 18 ans et par personne et par nuit.

https://www.onlycamp.fr/
name=Camping Val de Loire - St. Avertin (37) (01/02-15/12) -CCA (49m) +33247278747]]></desc>
  </wpt>
  <trk>
    <name><![CDATA[Montrichard > Mennetou (65 km)]]></name>
    <desc><![CDATA[Halage trop pourri. On a pris la route jusqu’à La Pêcherie avant Gièvres, puis un beau chemin type voie verte jusqu’à Chabris. Chabris à Selles par une petite route tranquille. De Selles à Noyers le halage reste difficile et on a coupé à plusieurs reprises par la route.
A Noyers on quitte le canal pour longer le Cher canalisé. Belle petite route de 11km SANS voiture jusqu’à Thésée puis alternance de routes et chemins jusqu’à Montrichard. Étape longue et difficile; raison pour laquelle on avait réservé un hôtel.]]></desc>
    <trkseg>
      <trkpt lat="47.34298" lon="1.18641">
        <ele>64.07</ele>
        <time>2015-08-16T14:00:01Z</time>
      </trkpt>
      <trkpt lat="47.34286" lon="1.1865">
        <ele>63.1</ele>
        <time>2015-08-16T14:00:11Z</time>
      </trkpt>
      <trkpt lat="47.34281" lon="1.18655">
        <ele>62.62</ele>
        <time>2015-08-16T14:00:24Z</time>
      </trkpt>
      <trkpt lat="47.34279" lon="1.18655">
        <ele>63.1</ele>
        <time>2015-08-16T14:00:25Z</time>
      </trkpt>
      <trkpt lat="47.34277" lon="1.18656">
        <ele>62.62</ele>
        <time>2015-08-16T14:00:26Z</time>
      </trkpt>
      <trkpt lat="47.34275" lon="1.18656">
        <ele>62.62</ele>
        <time>2015-08-16T14:00:27Z</time>
      </trkpt>
      <trkpt lat="47.34273" lon="1.18657">
        <ele>62.62</ele>
        <time>2015-08-16T14:00:28Z</time>
      </trkpt>
      <trkpt lat="47.34251" lon="1.18664">
        <ele>63.1</ele>
        <time>2015-08-16T14:00:35Z</time>
      </trkpt>
      <trkpt lat="47.34247" lon="1.18664">
        <ele>63.1</ele>
        <time>2015-08-16T14:00:36Z</time>
      </trkpt>
      <trkpt lat="47.34243" lon="1.18665">
        <ele>63.1</ele>
        <time>2015-08-16T14:00:37Z</time>
      </trkpt>
      <trkpt lat="47.34239" lon="1.18665">
        <ele>63.58</ele>
        <time>2015-08-16T14:00:38Z</time>
      </trkpt>
      <trkpt lat="47.34234" lon="1.18666">
        <ele>63.58</ele>
        <time>2015-08-16T14:00:39Z</time>
      </trkpt>
      <trkpt lat="47.34199" lon="1.18678">
        <ele>64.55</ele>
        <time>2015-08-16T14:00:49Z</time>
      </trkpt>
      <trkpt lat="47.34197" lon="1.18678">
        <ele>64.55</ele>
        <time>2015-08-16T14:00:50Z</time>
      </trkpt>
      <trkpt lat="47.34196" lon="1.18679">
        <ele>64.55</ele>
        <time>2015-08-16T14:00:51Z</time>
      </trkpt>
      <trkpt lat="47.34195" lon="1.18679">
        <ele>64.55</ele>
        <time>2015-08-16T14:01:07Z</time>
      </trkpt>
      <trkpt lat="47.34196" lon="1.18679">
        <ele>64.55</ele>
        <time>2015-08-16T14:01:32Z</time>
      </trkpt>
      <trkpt lat="47.34183" lon="1.18683">
        <ele>65.03</ele>
        <time>2015-08-16T14:01:41Z</time>
      </trkpt>
      <trkpt lat="47.34149" lon="1.1869">
        <ele>64.55</ele>
        <time>2015-08-16T14:01:52Z</time>
      </trkpt>
      <trkpt lat="47.34131" lon="1.18693">
        <ele>63.58</ele>
        <time>2015-08-16T14:02:06Z</time>
      </trkpt>
      <trkpt lat="47.34117" lon="1.18695">
        <ele>63.1</ele>
        <time>2015-08-16T14:02:20Z</time>
      </trkpt>
      <trkpt lat="47.34097" lon="1.18704">
        <ele>62.62</ele>
        <time>2015-08-16T14:02:31Z</time>
      </trkpt>
      <trkpt lat="47.34097" lon="1.18703">
        <ele>62.62</ele>
        <time>2015-08-16T14:02:50Z</time>
      </trkpt>
      <trkpt lat="47.34095" lon="1.18705">
        <ele>62.14</ele>
        <time>2015-08-16T14:03:01Z</time>
      </trkpt>
      <trkpt lat="47.34094" lon="1.18706">
        <ele>62.14</ele>
        <time>2015-08-16T14:03:02Z</time>
      </trkpt>
      <trkpt lat="47.34092" lon="1.18708">
        <ele>62.14</ele>
        <time>2015-08-16T14:03:03Z</time>
      </trkpt>
      <trkpt lat="47.3409" lon="1.18709">
        <ele>62.14</ele>
        <time>2015-08-16T14:03:04Z</time>
      </trkpt>
      <trkpt lat="47.34088" lon="1.1871">
        <ele>62.14</ele>
        <time>2015-08-16T14:03:05Z</time>
      </trkpt>
      <trkpt lat="47.34086" lon="1.18711">
        <ele>62.14</ele>
        <time>2015-08-16T14:03:06Z</time>
      </trkpt>
      <trkpt lat="47.34084" lon="1.18716">
        <ele>62.62</ele>
        <time>2015-08-16T14:03:18Z</time>
      </trkpt>
      <trkpt lat="47.34085" lon="1.1874">
        <ele>62.14</ele>
        <time>2015-08-16T14:03:26Z</time>
      </trkpt>
      <trkpt lat="47.34087" lon="1.18791">
        <ele>62.14</ele>
        <time>2015-08-16T14:03:37Z</time>
      </trkpt>
      <trkpt lat="47.34091" lon="1.18872">
        <ele>62.14</ele>
        <time>2015-08-16T14:03:52Z</time>
      </trkpt>
      <trkpt lat="47.34091" lon="1.18947">
        <ele>62.14</ele>
        <time>2015-08-16T14:04:07Z</time>
      </trkpt>
      <trkpt lat="47.34084" lon="1.19038">
        <ele>62.14</ele>
        <time>2015-08-16T14:04:24Z</time>
      </trkpt>
      <trkpt lat="47.34075" lon="1.19102">
        <ele>61.66</ele>
        <time>2015-08-16T14:04:38Z</time>
      </trkpt>
      <trkpt lat="47.34063" lon="1.19166">
        <ele>61.66</ele>
        <time>2015-08-16T14:04:51Z</time>
      </trkpt>
      <trkpt lat="47.3405" lon="1.1923">
        <ele>61.18</ele>
        <time>2015-08-16T14:05:06Z</time>
      </trkpt>
      <trkpt lat="47.34045" lon="1.19292">
        <ele>61.66</ele>
        <time>2015-08-16T14:05:21Z</time>
      </trkpt>
      <trkpt lat="47.34045" lon="1.19296">
        <ele>61.66</ele>
        <time>2015-08-16T14:05:22Z</time>
      </trkpt>
      <trkpt lat="47.34045" lon="1.19299">
        <ele>61.66</ele>
        <time>2015-08-16T14:05:23Z</time>
      </trkpt>
      <trkpt lat="47.34044" lon="1.19303">
        <ele>61.66</ele>
        <time>2015-08-16T14:05:24Z</time>
      </trkpt>
      <trkpt lat="47.34044" lon="1.19306">
        <ele>61.18</ele>
        <time>2015-08-16T14:05:25Z</time>
      </trkpt>
      <trkpt lat="47.34043" lon="1.19308">
        <ele>61.18</ele>
        <time>2015-08-16T14:05:26Z</time>
      </trkpt>
      <trkpt lat="47.34042" lon="1.19313">
        <ele>61.18</ele>
        <time>2015-08-16T14:05:36Z</time>
      </trkpt>
      <trkpt lat="47.34042" lon="1.19326">
        <ele>61.66</ele>
        <time>2015-08-16T14:05:48Z</time>
      </trkpt>
      <trkpt lat="47.34043" lon="1.194">
        <ele>61.66</ele>
        <time>2015-08-16T14:06:04Z</time>
      </trkpt>
      <trkpt lat="47.34051" lon="1.19482">
        <ele>61.66</ele>
        <time>2015-08-16T14:06:21Z</time>
      </trkpt>
      <trkpt lat="47.34058" lon="1.19553">
        <ele>62.14</ele>
        <time>2015-08-16T14:06:36Z</time>
      </trkpt>
      <trkpt lat="47.34066" lon="1.19625">
        <ele>62.14</ele>
        <time>2015-08-16T14:06:51Z</time>
      </trkpt>
      <trkpt lat="47.34068" lon="1.19704">
        <ele>61.66</ele>
        <time>2015-08-16T14:07:09Z</time>
      </trkpt>
      <trkpt lat="47.34075" lon="1.19772">
        <ele>61.66</ele>
        <time>2015-08-16T14:07:25Z</time>
      </trkpt>
      <trkpt lat="47.3408" lon="1.1983">
        <ele>61.66</ele>
        <time>2015-08-16T14:07:40Z</time>
      </trkpt>
      <trkpt lat="47.3408" lon="1.19834">
        <ele>61.66</ele>
        <time>2015-08-16T14:07:41Z</time>
      </trkpt>
      <trkpt lat="47.34081" lon="1.19837">
        <ele>62.14</ele>
        <time>2015-08-16T14:07:42Z</time>
      </trkpt>
      <trkpt lat="47.34081" lon="1.1984">
        <ele>61.66</ele>
        <time>2015-08-16T14:07:43Z</time>
      </trkpt>
      <trkpt lat="47.34082" lon="1.19842">
        <ele>62.14</ele>
        <time>2015-08-16T14:07:44Z</time>
      </trkpt>
      <trkpt lat="47.34082" lon="1.19845">
        <ele>62.14</ele>
        <time>2015-08-16T14:07:45Z</time>
      </trkpt>
      <trkpt lat="47.34082" lon="1.1985">
        <ele>61.66</ele>
        <time>2015-08-16T14:07:47Z</time>
      </trkpt>
      <trkpt lat="47.34083" lon="1.19917">
        <ele>62.62</ele>
        <time>2015-08-16T14:08:02Z</time>
      </trkpt>
      <trkpt lat="47.34084" lon="1.20008">
        <ele>62.62</ele>
        <time>2015-08-16T14:08:21Z</time>
      </trkpt>
      <trkpt lat="47.34084" lon="1.20103">
        <ele>63.1</ele>
        <time>2015-08-16T14:08:40Z</time>
      </trkpt>
      <trkpt lat="47.34081" lon="1.20178">
        <ele>62.62</ele>
        <time>2015-08-16T14:08:56Z</time>
      </trkpt>
      <trkpt lat="47.34073" lon="1.20253">
        <ele>62.62</ele>
        <time>2015-08-16T14:09:13Z</time>
      </trkpt>
      <trkpt lat="47.34065" lon="1.20317">
        <ele>62.62</ele>
        <time>2015-08-16T14:09:28Z</time>
      </trkpt>
      <trkpt lat="47.34064" lon="1.20389">
        <ele>63.1</ele>
        <time>2015-08-16T14:09:42Z</time>
      </trkpt>
      <trkpt lat="47.34064" lon="1.20395">
        <ele>63.1</ele>
        <time>2015-08-16T14:09:43Z</time>
      </trkpt>
      <trkpt lat="47.34063" lon="1.20401">
        <ele>63.1</ele>
        <time>2015-08-16T14:09:44Z</time>
      </trkpt>
      <trkpt lat="47.34063" lon="1.2042">
        <ele>63.1</ele>
        <time>2015-08-16T14:09:47Z</time>
      </trkpt>
      <trkpt lat="47.34063" lon="1.20427">
        <ele>63.1</ele>
        <time>2015-08-16T14:09:48Z</time>
      </trkpt>
      <trkpt lat="47.34063" lon="1.20454">
        <ele>62.62</ele>
        <time>2015-08-16T14:09:52Z</time>
      </trkpt>
      <trkpt lat="47.34063" lon="1.20545">
        <ele>62.62</ele>
        <time>2015-08-16T14:10:05Z</time>
      </trkpt>
      <trkpt lat="47.34066" lon="1.20658">
        <ele>62.62</ele>
        <time>2015-08-16T14:10:24Z</time>
      </trkpt>
      <trkpt lat="47.34064" lon="1.20692">
        <ele>62.14</ele>
        <time>2015-08-16T14:10:35Z</time>
      </trkpt>
      <trkpt lat="47.34063" lon="1.20693">
        <ele>62.14</ele>
        <time>2015-08-16T14:11:02Z</time>
      </trkpt>
      <trkpt lat="47.3405" lon="1.20738">
        <ele>62.62</ele>
        <time>2015-08-16T14:11:15Z</time>
      </trkpt>
      <trkpt lat="47.34027" lon="1.20817">
        <ele>62.62</ele>
        <time>2015-08-16T14:11:32Z</time>
      </trkpt>
      <trkpt lat="47.34018" lon="1.20882">
        <ele>62.62</ele>
        <time>2015-08-16T14:11:47Z</time>
      </trkpt>
      <trkpt lat="47.34006" lon="1.20963">
        <ele>63.1</ele>
        <time>2015-08-16T14:12:05Z</time>
      </trkpt>
      <trkpt lat="47.34001" lon="1.2102">
        <ele>63.1</ele>
        <time>2015-08-16T14:12:17Z</time>
      </trkpt>
      <trkpt lat="47.33993" lon="1.21069">
        <ele>63.1</ele>
        <time>2015-08-16T14:12:29Z</time>
      </trkpt>
      <trkpt lat="47.33983" lon="1.21133">
        <ele>62.62</ele>
        <time>2015-08-16T14:12:43Z</time>
      </trkpt>
      <trkpt lat="47.33974" lon="1.21192">
        <ele>62.62</ele>
        <time>2015-08-16T14:12:59Z</time>
      </trkpt>
      <trkpt lat="47.33968" lon="1.21249">
        <ele>62.14</ele>
        <time>2015-08-16T14:13:14Z</time>
      </trkpt>
      <trkpt lat="47.33965" lon="1.213">
        <ele>62.62</ele>
        <time>2015-08-16T14:13:27Z</time>
      </trkpt>
      <trkpt lat="47.33963" lon="1.21323">
        <ele>62.62</ele>
        <time>2015-08-16T14:13:33Z</time>
      </trkpt>
      <trkpt lat="47.33962" lon="1.2134">
        <ele>62.62</ele>
        <time>2015-08-16T14:13:37Z</time>
      </trkpt>
      <trkpt lat="47.33957" lon="1.2139">
        <ele>62.62</ele>
        <time>2015-08-16T14:13:48Z</time>
      </trkpt>
      <trkpt lat="47.33952" lon="1.2144">
        <ele>63.1</ele>
        <time>2015-08-16T14:13:58Z</time>
      </trkpt>
      <trkpt lat="47.33944" lon="1.21499">
        <ele>63.1</ele>
        <time>2015-08-16T14:14:10Z</time>
      </trkpt>
      <trkpt lat="47.33928" lon="1.21564">
        <ele>63.58</ele>
        <time>2015-08-16T14:14:23Z</time>
      </trkpt>
      <trkpt lat="47.33918" lon="1.21623">
        <ele>63.58</ele>
        <time>2015-08-16T14:14:34Z</time>
      </trkpt>
      <trkpt lat="47.33917" lon="1.21635">
        <ele>63.58</ele>
        <time>2015-08-16T14:14:37Z</time>
      </trkpt>
      <trkpt lat="47.33909" lon="1.21657">
        <ele>63.58</ele>
        <time>2015-08-16T14:14:43Z</time>
      </trkpt>
      <trkpt lat="47.33896" lon="1.21681">
        <ele>63.58</ele>
        <time>2015-08-16T14:14:51Z</time>
      </trkpt>
      <trkpt lat="47.33882" lon="1.21704">
        <ele>64.07</ele>
        <time>2015-08-16T14:15:02Z</time>
      </trkpt>
      <trkpt lat="47.3388" lon="1.21709">
        <ele>63.58</ele>
        <time>2015-08-16T14:15:04Z</time>
      </trkpt>
      <trkpt lat="47.33861" lon="1.21751">
        <ele>63.58</ele>
        <time>2015-08-16T14:15:17Z</time>
      </trkpt>
      <trkpt lat="47.3385" lon="1.21791">
        <ele>63.1</ele>
        <time>2015-08-16T14:15:30Z</time>
      </trkpt>
      <trkpt lat="47.33848" lon="1.21797">
        <ele>63.1</ele>
        <time>2015-08-16T14:15:34Z</time>
      </trkpt>
      <trkpt lat="47.33847" lon="1.218">
        <ele>63.1</ele>
        <time>2015-08-16T14:15:53Z</time>
      </trkpt>
      <trkpt lat="47.33841" lon="1.21832">
        <ele>63.58</ele>
        <time>2015-08-16T14:16:05Z</time>
      </trkpt>
      <trkpt lat="47.33841" lon="1.21844">
        <ele>63.58</ele>
        <time>2015-08-16T14:16:09Z</time>
      </trkpt>
      <trkpt lat="47.33839" lon="1.21872">
        <ele>63.58</ele>
        <time>2015-08-16T14:16:20Z</time>
      </trkpt>
      <trkpt lat="47.3384" lon="1.21876">
        <ele>63.58</ele>
        <time>2015-08-16T14:16:23Z</time>
      </trkpt>
      <trkpt lat="47.33842" lon="1.2188">
        <ele>63.58</ele>
        <time>2015-08-16T14:16:49Z</time>
      </trkpt>
      <trkpt lat="47.33842" lon="1.21881">
        <ele>63.1</ele>
        <time>2015-08-16T14:17:04Z</time>
      </trkpt>
      <trkpt lat="47.33842" lon="1.21881">
        <ele>63.1</ele>
        <time>2015-08-16T14:17:32Z</time>
      </trkpt>
      <trkpt lat="47.33842" lon="1.21882">
        <ele>63.1</ele>
        <time>2015-08-16T14:17:58Z</time>
      </trkpt>
      <trkpt lat="47.33843" lon="1.21881">
        <ele>63.1</ele>
        <time>2015-08-16T14:18:24Z</time>
      </trkpt>
      <trkpt lat="47.33842" lon="1.2188">
        <ele>63.1</ele>
        <time>2015-08-16T14:18:51Z</time>
      </trkpt>
      <trkpt lat="47.33842" lon="1.2188">
        <ele>62.62</ele>
        <time>2015-08-16T14:19:22Z</time>
      </trkpt>
      <trkpt lat="47.33844" lon="1.2188">
        <ele>62.62</ele>
        <time>2015-08-16T14:19:54Z</time>
      </trkpt>
      <trkpt lat="47.33843" lon="1.21882">
        <ele>62.62</ele>
        <time>2015-08-16T14:20:25Z</time>
      </trkpt>
      <trkpt lat="47.33844" lon="1.21883">
        <ele>62.14</ele>
        <time>2015-08-16T14:20:56Z</time>
      </trkpt>
      <trkpt lat="47.33844" lon="1.21882">
        <ele>62.14</ele>
        <time>2015-08-16T14:21:26Z</time>
      </trkpt>
      <trkpt lat="47.33845" lon="1.2188">
        <ele>62.14</ele>
        <time>2015-08-16T14:21:54Z</time>
      </trkpt>
      <trkpt lat="47.33845" lon="1.21879">
        <ele>61.66</ele>
        <time>2015-08-16T14:22:32Z</time>
      </trkpt>
      <trkpt lat="47.33845" lon="1.2188">
        <ele>62.14</ele>
        <time>2015-08-16T14:23:02Z</time>
      </trkpt>
      <trkpt lat="47.33846" lon="1.21881">
        <ele>62.14</ele>
        <time>2015-08-16T14:23:32Z</time>
      </trkpt>
      <trkpt lat="47.33846" lon="1.2188">
        <ele>62.14</ele>
        <time>2015-08-16T14:24:06Z</time>
      </trkpt>
      <trkpt lat="47.33846" lon="1.21879">
        <ele>61.66</ele>
        <time>2015-08-16T14:24:37Z</time>
      </trkpt>
      <trkpt lat="47.33844" lon="1.21881">
        <ele>61.66</ele>
        <time>2015-08-16T14:25:10Z</time>
      </trkpt>
      <trkpt lat="47.33844" lon="1.2188">
        <ele>61.18</ele>
        <time>2015-08-16T14:25:38Z</time>
      </trkpt>
      <trkpt lat="47.33845" lon="1.21879">
        <ele>61.18</ele>
        <time>2015-08-16T14:26:09Z</time>
      </trkpt>
      <trkpt lat="47.33846" lon="1.21879">
        <ele>61.18</ele>
        <time>2015-08-16T14:26:40Z</time>
      </trkpt>
      <trkpt lat="47.33846" lon="1.2188">
        <ele>61.18</ele>
        <time>2015-08-16T14:27:07Z</time>
      </trkpt>
      <trkpt lat="47.33846" lon="1.21879">
        <ele>61.18</ele>
        <time>2015-08-16T14:27:38Z</time>
      </trkpt>
      <trkpt lat="47.33845" lon="1.21882">
        <ele>63.1</ele>
        <time>2015-08-16T14:28:07Z</time>
      </trkpt>
      <trkpt lat="47.33845" lon="1.21882">
        <ele>58.3</ele>
        <time>2015-08-16T14:28:08Z</time>
      </trkpt>
      <trkpt lat="47.33845" lon="1.21883">
        <ele>62.14</ele>
        <time>2015-08-16T14:28:18Z</time>
      </trkpt>
      <trkpt lat="47.33846" lon="1.21884">
        <ele>61.18</ele>
        <time>2015-08-16T14:28:46Z</time>
      </trkpt>
      <trkpt lat="47.33846" lon="1.21892">
        <ele>61.66</ele>
        <time>2015-08-16T14:28:57Z</time>
      </trkpt>
      <trkpt lat="47.33843" lon="1.21931">
        <ele>61.18</ele>
        <time>2015-08-16T14:29:07Z</time>
      </trkpt>
      <trkpt lat="47.33842" lon="1.21985">
        <ele>60.7</ele>
        <time>2015-08-16T14:29:20Z</time>
      </trkpt>
      <trkpt lat="47.33845" lon="1.22042">
        <ele>61.18</ele>
        <time>2015-08-16T14:29:32Z</time>
      </trkpt>
      <trkpt lat="47.33853" lon="1.2209">
        <ele>61.18</ele>
        <time>2015-08-16T14:29:44Z</time>
      </trkpt>
      <trkpt lat="47.33864" lon="1.22171">
        <ele>61.18</ele>
        <time>2015-08-16T14:30:01Z</time>
      </trkpt>
      <trkpt lat="47.33868" lon="1.22233">
        <ele>61.18</ele>
        <time>2015-08-16T14:30:14Z</time>
      </trkpt>
      <trkpt lat="47.33873" lon="1.22283">
        <ele>60.7</ele>
        <time>2015-08-16T14:30:25Z</time>
      </trkpt>
      <trkpt lat="47.33878" lon="1.22335">
        <ele>60.7</ele>
        <time>2015-08-16T14:30:37Z</time>
      </trkpt>
      <trkpt lat="47.33878" lon="1.22413">
        <ele>61.18</ele>
        <time>2015-08-16T14:30:53Z</time>
      </trkpt>
      <trkpt lat="47.33877" lon="1.22471">
        <ele>61.18</ele>
        <time>2015-08-16T14:31:06Z</time>
      </trkpt>
      <trkpt lat="47.33865" lon="1.22547">
        <ele>61.18</ele>
        <time>2015-08-16T14:31:22Z</time>
      </trkpt>
      <trkpt lat="47.33851" lon="1.22608">
        <ele>61.18</ele>
        <time>2015-08-16T14:31:36Z</time>
      </trkpt>
      <trkpt lat="47.33827" lon="1.2269">
        <ele>61.18</ele>
        <time>2015-08-16T14:31:54Z</time>
      </trkpt>
      <trkpt lat="47.33806" lon="1.2275">
        <ele>61.18</ele>
        <time>2015-08-16T14:32:08Z</time>
      </trkpt>
      <trkpt lat="47.33786" lon="1.22811">
        <ele>61.18</ele>
        <time>2015-08-16T14:32:21Z</time>
      </trkpt>
      <trkpt lat="47.33769" lon="1.2286">
        <ele>61.66</ele>
        <time>2015-08-16T14:32:34Z</time>
      </trkpt>
      <trkpt lat="47.33747" lon="1.22935">
        <ele>61.66</ele>
        <time>2015-08-16T14:32:52Z</time>
      </trkpt>
      <trkpt lat="47.3373" lon="1.22992">
        <ele>61.66</ele>
        <time>2015-08-16T14:33:06Z</time>
      </trkpt>
      <trkpt lat="47.33713" lon="1.23041">
        <ele>62.14</ele>
        <time>2015-08-16T14:33:18Z</time>
      </trkpt>
      <trkpt lat="47.33699" lon="1.23084">
        <ele>62.14</ele>
        <time>2015-08-16T14:33:30Z</time>
      </trkpt>
      <trkpt lat="47.33686" lon="1.23128">
        <ele>62.62</ele>
        <time>2015-08-16T14:33:42Z</time>
      </trkpt>
      <trkpt lat="47.33674" lon="1.23181">
        <ele>62.62</ele>
        <time>2015-08-16T14:33:55Z</time>
      </trkpt>
      <trkpt lat="47.33661" lon="1.23254">
        <ele>62.14</ele>
        <time>2015-08-16T14:34:11Z</time>
      </trkpt>
      <trkpt lat="47.33652" lon="1.23314">
        <ele>62.14</ele>
        <time>2015-08-16T14:34:25Z</time>
      </trkpt>
      <trkpt lat="47.33655" lon="1.23408">
        <ele>62.14</ele>
        <time>2015-08-16T14:34:44Z</time>
      </trkpt>
      <trkpt lat="47.33658" lon="1.23472">
        <ele>61.66</ele>
        <time>2015-08-16T14:34:59Z</time>
      </trkpt>
      <trkpt lat="47.33664" lon="1.23545">
        <ele>62.14</ele>
        <time>2015-08-16T14:35:16Z</time>
      </trkpt>
      <trkpt lat="47.33682" lon="1.23614">
        <ele>62.14</ele>
        <time>2015-08-16T14:35:32Z</time>
      </trkpt>
      <trkpt lat="47.33704" lon="1.23691">
        <ele>62.14</ele>
        <time>2015-08-16T14:35:52Z</time>
      </trkpt>
      <trkpt lat="47.33715" lon="1.23758">
        <ele>62.14</ele>
        <time>2015-08-16T14:36:08Z</time>
      </trkpt>
      <trkpt lat="47.33709" lon="1.23808">
        <ele>62.14</ele>
        <time>2015-08-16T14:36:21Z</time>
      </trkpt>
      <trkpt lat="47.33709" lon="1.2383">
        <ele>62.14</ele>
        <time>2015-08-16T14:36:33Z</time>
      </trkpt>
      <trkpt lat="47.33709" lon="1.23831">
        <ele>62.14</ele>
        <time>2015-08-16T14:36:59Z</time>
      </trkpt>
      <trkpt lat="47.33706" lon="1.23857">
        <ele>62.62</ele>
        <time>2015-08-16T14:37:12Z</time>
      </trkpt>
      <trkpt lat="47.33704" lon="1.23901">
        <ele>62.62</ele>
        <time>2015-08-16T14:37:25Z</time>
      </trkpt>
      <trkpt lat="47.3371" lon="1.23949">
        <ele>63.1</ele>
        <time>2015-08-16T14:37:37Z</time>
      </trkpt>
      <trkpt lat="47.3372" lon="1.24021">
        <ele>63.58</ele>
        <time>2015-08-16T14:37:54Z</time>
      </trkpt>
      <trkpt lat="47.33725" lon="1.24071">
        <ele>63.58</ele>
        <time>2015-08-16T14:38:07Z</time>
      </trkpt>
      <trkpt lat="47.33733" lon="1.2412">
        <ele>63.58</ele>
        <time>2015-08-16T14:38:19Z</time>
      </trkpt>
      <trkpt lat="47.33745" lon="1.2421">
        <ele>63.1</ele>
        <time>2015-08-16T14:38:37Z</time>
      </trkpt>
      <trkpt lat="47.33752" lon="1.24284">
        <ele>63.1</ele>
        <time>2015-08-16T14:38:54Z</time>
      </trkpt>
      <trkpt lat="47.33754" lon="1.24331">
        <ele>63.1</ele>
        <time>2015-08-16T14:39:08Z</time>
      </trkpt>
      <trkpt lat="47.33756" lon="1.24389">
        <ele>63.1</ele>
        <time>2015-08-16T14:39:23Z</time>
      </trkpt>
      <trkpt lat="47.33755" lon="1.24438">
        <ele>63.1</ele>
        <time>2015-08-16T14:39:35Z</time>
      </trkpt>
      <trkpt lat="47.33754" lon="1.24489">
        <ele>63.1</ele>
        <time>2015-08-16T14:39:47Z</time>
      </trkpt>
      <trkpt lat="47.33754" lon="1.24561">
        <ele>63.1</ele>
        <time>2015-08-16T14:40:02Z</time>
      </trkpt>
      <trkpt lat="47.33751" lon="1.24623">
        <ele>62.62</ele>
        <time>2015-08-16T14:40:16Z</time>
      </trkpt>
      <trkpt lat="47.33748" lon="1.24682">
        <ele>62.62</ele>
        <time>2015-08-16T14:40:29Z</time>
      </trkpt>
      <trkpt lat="47.33746" lon="1.2474">
        <ele>62.62</ele>
        <time>2015-08-16T14:40:41Z</time>
      </trkpt>
      <trkpt lat="47.33739" lon="1.24809">
        <ele>62.62</ele>
        <time>2015-08-16T14:40:55Z</time>
      </trkpt>
      <trkpt lat="47.33734" lon="1.24876">
        <ele>62.62</ele>
        <time>2015-08-16T14:41:08Z</time>
      </trkpt>
      <trkpt lat="47.33727" lon="1.24954">
        <ele>63.1</ele>
        <time>2015-08-16T14:41:23Z</time>
      </trkpt>
      <trkpt lat="47.33719" lon="1.25008">
        <ele>63.1</ele>
        <time>2015-08-16T14:41:34Z</time>
      </trkpt>
      <trkpt lat="47.33708" lon="1.25056">
        <ele>63.1</ele>
        <time>2015-08-16T14:41:44Z</time>
      </trkpt>
      <trkpt lat="47.33696" lon="1.25114">
        <ele>63.1</ele>
        <time>2015-08-16T14:41:57Z</time>
      </trkpt>
      <trkpt lat="47.33689" lon="1.25166">
        <ele>63.1</ele>
        <time>2015-08-16T14:42:09Z</time>
      </trkpt>
      <trkpt lat="47.33682" lon="1.25235">
        <ele>63.1</ele>
        <time>2015-08-16T14:42:23Z</time>
      </trkpt>
      <trkpt lat="47.33668" lon="1.25298">
        <ele>63.1</ele>
        <time>2015-08-16T14:42:37Z</time>
      </trkpt>
      <trkpt lat="47.33646" lon="1.25374">
        <ele>63.1</ele>
        <time>2015-08-16T14:42:54Z</time>
      </trkpt>
      <trkpt lat="47.3362" lon="1.25431">
        <ele>63.1</ele>
        <time>2015-08-16T14:43:07Z</time>
      </trkpt>
      <trkpt lat="47.33595" lon="1.25483">
        <ele>63.1</ele>
        <time>2015-08-16T14:43:21Z</time>
      </trkpt>
      <trkpt lat="47.33566" lon="1.25555">
        <ele>63.1</ele>
        <time>2015-08-16T14:43:37Z</time>
      </trkpt>
      <trkpt lat="47.33534" lon="1.2562">
        <ele>63.1</ele>
        <time>2015-08-16T14:43:53Z</time>
      </trkpt>
      <trkpt lat="47.33504" lon="1.25679">
        <ele>63.1</ele>
        <time>2015-08-16T14:44:07Z</time>
      </trkpt>
      <trkpt lat="47.3347" lon="1.25753">
        <ele>63.1</ele>
        <time>2015-08-16T14:44:24Z</time>
      </trkpt>
      <trkpt lat="47.33461" lon="1.25765">
        <ele>63.1</ele>
        <time>2015-08-16T14:44:27Z</time>
      </trkpt>
      <trkpt lat="47.33458" lon="1.25768">
        <ele>63.1</ele>
        <time>2015-08-16T14:44:28Z</time>
      </trkpt>
      <trkpt lat="47.33454" lon="1.25768">
        <ele>63.1</ele>
        <time>2015-08-16T14:44:29Z</time>
      </trkpt>
      <trkpt lat="47.3344" lon="1.25757">
        <ele>63.58</ele>
        <time>2015-08-16T14:44:33Z</time>
      </trkpt>
      <trkpt lat="47.33417" lon="1.25737">
        <ele>64.07</ele>
        <time>2015-08-16T14:44:39Z</time>
      </trkpt>
      <trkpt lat="47.33372" lon="1.25697">
        <ele>64.07</ele>
        <time>2015-08-16T14:44:53Z</time>
      </trkpt>
      <trkpt lat="47.33321" lon="1.25652">
        <ele>64.07</ele>
        <time>2015-08-16T14:45:10Z</time>
      </trkpt>
      <trkpt lat="47.33272" lon="1.2561">
        <ele>63.58</ele>
        <time>2015-08-16T14:45:26Z</time>
      </trkpt>
      <trkpt lat="47.33229" lon="1.25572">
        <ele>64.07</ele>
        <time>2015-08-16T14:45:40Z</time>
      </trkpt>
      <trkpt lat="47.33182" lon="1.25532">
        <ele>64.07</ele>
        <time>2015-08-16T14:45:56Z</time>
      </trkpt>
      <trkpt lat="47.33179" lon="1.2553">
        <ele>64.07</ele>
        <time>2015-08-16T14:45:57Z</time>
      </trkpt>
      <trkpt lat="47.33177" lon="1.25528">
        <ele>64.07</ele>
        <time>2015-08-16T14:45:58Z</time>
      </trkpt>
      <trkpt lat="47.33175" lon="1.25527">
        <ele>64.55</ele>
        <time>2015-08-16T14:45:59Z</time>
      </trkpt>
      <trkpt lat="47.33173" lon="1.25526">
        <ele>64.55</ele>
        <time>2015-08-16T14:46:00Z</time>
      </trkpt>
      <trkpt lat="47.33169" lon="1.25525">
        <ele>64.55</ele>
        <time>2015-08-16T14:46:04Z</time>
      </trkpt>
      <trkpt lat="47.33168" lon="1.25525">
        <ele>64.07</ele>
        <time>2015-08-16T14:46:15Z</time>
      </trkpt>
      <trkpt lat="47.33148" lon="1.25511">
        <ele>64.07</ele>
        <time>2015-08-16T14:46:24Z</time>
      </trkpt>
      <trkpt lat="47.33083" lon="1.25461">
        <ele>65.51</ele>
        <time>2015-08-16T14:46:39Z</time>
      </trkpt>
      <trkpt lat="47.33077" lon="1.25453">
        <ele>65.99</ele>
        <time>2015-08-16T14:46:41Z</time>
      </trkpt>
      <trkpt lat="47.33066" lon="1.25443">
        <ele>66.47</ele>
        <time>2015-08-16T14:46:44Z</time>
      </trkpt>
      <trkpt lat="47.33037" lon="1.25415">
        <ele>67.43</ele>
        <time>2015-08-16T14:46:55Z</time>
      </trkpt>
      <trkpt lat="47.33036" lon="1.25413">
        <ele>67.43</ele>
        <time>2015-08-16T14:46:56Z</time>
      </trkpt>
      <trkpt lat="47.33034" lon="1.25413">
        <ele>67.43</ele>
        <time>2015-08-16T14:46:57Z</time>
      </trkpt>
      <trkpt lat="47.33033" lon="1.25412">
        <ele>68.87</ele>
        <time>2015-08-16T14:47:01Z</time>
      </trkpt>
      <trkpt lat="47.33032" lon="1.25412">
        <ele>67.43</ele>
        <time>2015-08-16T14:47:20Z</time>
      </trkpt>
      <trkpt lat="47.33031" lon="1.25413">
        <ele>67.43</ele>
        <time>2015-08-16T14:47:48Z</time>
      </trkpt>
      <trkpt lat="47.33031" lon="1.25413">
        <ele>66.95</ele>
        <time>2015-08-16T14:48:11Z</time>
      </trkpt>
      <trkpt lat="47.33028" lon="1.25417">
        <ele>67.43</ele>
        <time>2015-08-16T14:48:24Z</time>
      </trkpt>
      <trkpt lat="47.33026" lon="1.25426">
        <ele>66.95</ele>
        <time>2015-08-16T14:48:28Z</time>
      </trkpt>
      <trkpt lat="47.33015" lon="1.25486">
        <ele>66.47</ele>
        <time>2015-08-16T14:48:43Z</time>
      </trkpt>
      <trkpt lat="47.32998" lon="1.25564">
        <ele>65.51</ele>
        <time>2015-08-16T14:48:58Z</time>
      </trkpt>
      <trkpt lat="47.32986" lon="1.25625">
        <ele>65.51</ele>
        <time>2015-08-16T14:49:08Z</time>
      </trkpt>
      <trkpt lat="47.32974" lon="1.25679">
        <ele>65.51</ele>
        <time>2015-08-16T14:49:18Z</time>
      </trkpt>
      <trkpt lat="47.32955" lon="1.25771">
        <ele>65.99</ele>
        <time>2015-08-16T14:49:36Z</time>
      </trkpt>
      <trkpt lat="47.32941" lon="1.25842">
        <ele>65.99</ele>
        <time>2015-08-16T14:49:50Z</time>
      </trkpt>
      <trkpt lat="47.32927" lon="1.25918">
        <ele>65.99</ele>
        <time>2015-08-16T14:50:05Z</time>
      </trkpt>
      <trkpt lat="47.32925" lon="1.25924">
        <ele>65.99</ele>
        <time>2015-08-16T14:50:06Z</time>
      </trkpt>
      <trkpt lat="47.32924" lon="1.2593">
        <ele>66.47</ele>
        <time>2015-08-16T14:50:07Z</time>
      </trkpt>
      <trkpt lat="47.32922" lon="1.25936">
        <ele>66.47</ele>
        <time>2015-08-16T14:50:08Z</time>
      </trkpt>
      <trkpt lat="47.32909" lon="1.26006">
        <ele>66.95</ele>
        <time>2015-08-16T14:50:21Z</time>
      </trkpt>
      <trkpt lat="47.32895" lon="1.26064">
        <ele>66.47</ele>
        <time>2015-08-16T14:50:34Z</time>
      </trkpt>
      <trkpt lat="47.32868" lon="1.26158">
        <ele>65.51</ele>
        <time>2015-08-16T14:50:52Z</time>
      </trkpt>
      <trkpt lat="47.32866" lon="1.26163">
        <ele>65.51</ele>
        <time>2015-08-16T14:50:53Z</time>
      </trkpt>
      <trkpt lat="47.32864" lon="1.26169">
        <ele>65.51</ele>
        <time>2015-08-16T14:50:54Z</time>
      </trkpt>
      <trkpt lat="47.32844" lon="1.26233">
        <ele>65.03</ele>
        <time>2015-08-16T14:51:06Z</time>
      </trkpt>
      <trkpt lat="47.32817" lon="1.26325">
        <ele>65.51</ele>
        <time>2015-08-16T14:51:23Z</time>
      </trkpt>
      <trkpt lat="47.32792" lon="1.26413">
        <ele>65.51</ele>
        <time>2015-08-16T14:51:39Z</time>
      </trkpt>
      <trkpt lat="47.32763" lon="1.26509">
        <ele>66.95</ele>
        <time>2015-08-16T14:51:54Z</time>
      </trkpt>
      <trkpt lat="47.32761" lon="1.26516">
        <ele>66.95</ele>
        <time>2015-08-16T14:51:55Z</time>
      </trkpt>
      <trkpt lat="47.32759" lon="1.26523">
        <ele>66.95</ele>
        <time>2015-08-16T14:51:56Z</time>
      </trkpt>
      <trkpt lat="47.32757" lon="1.2653">
        <ele>66.95</ele>
        <time>2015-08-16T14:51:57Z</time>
      </trkpt>
      <trkpt lat="47.32755" lon="1.26537">
        <ele>66.95</ele>
        <time>2015-08-16T14:51:58Z</time>
      </trkpt>
      <trkpt lat="47.32754" lon="1.26544">
        <ele>67.43</ele>
        <time>2015-08-16T14:51:59Z</time>
      </trkpt>
      <trkpt lat="47.32752" lon="1.2655">
        <ele>67.43</ele>
        <time>2015-08-16T14:52:00Z</time>
      </trkpt>
      <trkpt lat="47.32747" lon="1.26568">
        <ele>66.47</ele>
        <time>2015-08-16T14:52:03Z</time>
      </trkpt>
      <trkpt lat="47.32733" lon="1.26614">
        <ele>68.87</ele>
        <time>2015-08-16T14:52:15Z</time>
      </trkpt>
      <trkpt lat="47.32719" lon="1.26655">
        <ele>68.87</ele>
        <time>2015-08-16T14:52:28Z</time>
      </trkpt>
      <trkpt lat="47.32686" lon="1.26742">
        <ele>69.35</ele>
        <time>2015-08-16T14:52:47Z</time>
      </trkpt>
      <trkpt lat="47.32656" lon="1.26813">
        <ele>69.83</ele>
        <time>2015-08-16T14:53:04Z</time>
      </trkpt>
      <trkpt lat="47.32628" lon="1.26884">
        <ele>68.87</ele>
        <time>2015-08-16T14:53:22Z</time>
      </trkpt>
      <trkpt lat="47.32603" lon="1.26944">
        <ele>68.39</ele>
        <time>2015-08-16T14:53:38Z</time>
      </trkpt>
      <trkpt lat="47.32571" lon="1.27022">
        <ele>67.91</ele>
        <time>2015-08-16T14:53:55Z</time>
      </trkpt>
      <trkpt lat="47.32541" lon="1.27094">
        <ele>67.91</ele>
        <time>2015-08-16T14:54:10Z</time>
      </trkpt>
      <trkpt lat="47.32507" lon="1.27179">
        <ele>67.91</ele>
        <time>2015-08-16T14:54:26Z</time>
      </trkpt>
      <trkpt lat="47.32506" lon="1.27184">
        <ele>69.83</ele>
        <time>2015-08-16T14:54:27Z</time>
      </trkpt>
      <trkpt lat="47.32504" lon="1.27189">
        <ele>66.47</ele>
        <time>2015-08-16T14:54:28Z</time>
      </trkpt>
      <trkpt lat="47.32483" lon="1.2724">
        <ele>67.91</ele>
        <time>2015-08-16T14:54:38Z</time>
      </trkpt>
      <trkpt lat="47.32481" lon="1.27246">
        <ele>67.91</ele>
        <time>2015-08-16T14:54:39Z</time>
      </trkpt>
      <trkpt lat="47.32479" lon="1.27251">
        <ele>68.39</ele>
        <time>2015-08-16T14:54:40Z</time>
      </trkpt>
      <trkpt lat="47.32451" lon="1.2732">
        <ele>68.39</ele>
        <time>2015-08-16T14:54:53Z</time>
      </trkpt>
      <trkpt lat="47.32408" lon="1.27426">
        <ele>68.87</ele>
        <time>2015-08-16T14:55:14Z</time>
      </trkpt>
      <trkpt lat="47.32366" lon="1.2753">
        <ele>68.39</ele>
        <time>2015-08-16T14:55:33Z</time>
      </trkpt>
      <trkpt lat="47.32325" lon="1.27631">
        <ele>68.39</ele>
        <time>2015-08-16T14:55:50Z</time>
      </trkpt>
      <trkpt lat="47.32284" lon="1.27731">
        <ele>68.87</ele>
        <time>2015-08-16T14:56:07Z</time>
      </trkpt>
      <trkpt lat="47.32281" lon="1.27737">
        <ele>68.87</ele>
        <time>2015-08-16T14:56:08Z</time>
      </trkpt>
      <trkpt lat="47.32279" lon="1.27743">
        <ele>68.87</ele>
        <time>2015-08-16T14:56:09Z</time>
      </trkpt>
      <trkpt lat="47.32277" lon="1.27749">
        <ele>68.87</ele>
        <time>2015-08-16T14:56:10Z</time>
      </trkpt>
      <trkpt lat="47.32274" lon="1.27755">
        <ele>68.87</ele>
        <time>2015-08-16T14:56:11Z</time>
      </trkpt>
      <trkpt lat="47.32272" lon="1.27761">
        <ele>68.87</ele>
        <time>2015-08-16T14:56:12Z</time>
      </trkpt>
      <trkpt lat="47.3227" lon="1.27768">
        <ele>68.87</ele>
        <time>2015-08-16T14:56:13Z</time>
      </trkpt>
      <trkpt lat="47.32225" lon="1.27878">
        <ele>68.87</ele>
        <time>2015-08-16T14:56:30Z</time>
      </trkpt>
      <trkpt lat="47.32169" lon="1.28017">
        <ele>70.31</ele>
        <time>2015-08-16T14:56:52Z</time>
      </trkpt>
      <trkpt lat="47.32126" lon="1.28126">
        <ele>71.76</ele>
        <time>2015-08-16T14:57:10Z</time>
      </trkpt>
      <trkpt lat="47.32093" lon="1.28206">
        <ele>72.72</ele>
        <time>2015-08-16T14:57:26Z</time>
      </trkpt>
      <trkpt lat="47.32052" lon="1.28308">
        <ele>72.24</ele>
        <time>2015-08-16T14:57:46Z</time>
      </trkpt>
      <trkpt lat="47.32013" lon="1.28403">
        <ele>74.16</ele>
        <time>2015-08-16T14:58:03Z</time>
      </trkpt>
      <trkpt lat="47.3197" lon="1.28518">
        <ele>77.52</ele>
        <time>2015-08-16T14:58:20Z</time>
      </trkpt>
      <trkpt lat="47.31968" lon="1.28524">
        <ele>77.52</ele>
        <time>2015-08-16T14:58:21Z</time>
      </trkpt>
      <trkpt lat="47.31936" lon="1.28598">
        <ele>78.97</ele>
        <time>2015-08-16T14:58:35Z</time>
      </trkpt>
      <trkpt lat="47.31917" lon="1.28648">
        <ele>79.45</ele>
        <time>2015-08-16T14:58:49Z</time>
      </trkpt>
      <trkpt lat="47.31903" lon="1.28685">
        <ele>78.97</ele>
        <time>2015-08-16T14:59:04Z</time>
      </trkpt>
      <trkpt lat="47.31884" lon="1.28723">
        <ele>78.48</ele>
        <time>2015-08-16T14:59:21Z</time>
      </trkpt>
      <trkpt lat="47.31851" lon="1.28786">
        <ele>76.08</ele>
        <time>2015-08-16T15:03:21Z</time>
      </trkpt>
      <trkpt lat="47.31822" lon="1.28833">
        <ele>74.64</ele>
        <time>2015-08-16T15:03:37Z</time>
      </trkpt>
      <trkpt lat="47.31798" lon="1.28873">
        <ele>74.64</ele>
        <time>2015-08-16T15:03:52Z</time>
      </trkpt>
      <trkpt lat="47.31783" lon="1.28892">
        <ele>74.16</ele>
        <time>2015-08-16T15:04:04Z</time>
      </trkpt>
      <trkpt lat="47.31782" lon="1.28893">
        <ele>74.16</ele>
        <time>2015-08-16T15:04:05Z</time>
      </trkpt>
      <trkpt lat="47.31781" lon="1.28895">
        <ele>74.16</ele>
        <time>2015-08-16T15:04:12Z</time>
      </trkpt>
      <trkpt lat="47.3178" lon="1.28897">
        <ele>73.68</ele>
        <time>2015-08-16T15:04:24Z</time>
      </trkpt>
      <trkpt lat="47.31782" lon="1.28903">
        <ele>73.68</ele>
        <time>2015-08-16T15:04:45Z</time>
      </trkpt>
      <trkpt lat="47.31793" lon="1.28912">
        <ele>73.2</ele>
        <time>2015-08-16T15:04:57Z</time>
      </trkpt>
      <trkpt lat="47.31823" lon="1.28937">
        <ele>72.24</ele>
        <time>2015-08-16T15:05:11Z</time>
      </trkpt>
      <trkpt lat="47.31865" lon="1.28972">
        <ele>71.27</ele>
        <time>2015-08-16T15:05:27Z</time>
      </trkpt>
      <trkpt lat="47.31912" lon="1.29023">
        <ele>70.31</ele>
        <time>2015-08-16T15:05:45Z</time>
      </trkpt>
      <trkpt lat="47.31945" lon="1.29062">
        <ele>69.35</ele>
        <time>2015-08-16T15:06:00Z</time>
      </trkpt>
      <trkpt lat="47.31986" lon="1.29107">
        <ele>68.87</ele>
        <time>2015-08-16T15:06:18Z</time>
      </trkpt>
      <trkpt lat="47.32037" lon="1.29164">
        <ele>68.39</ele>
        <time>2015-08-16T15:06:37Z</time>
      </trkpt>
      <trkpt lat="47.32077" lon="1.29207">
        <ele>68.39</ele>
        <time>2015-08-16T15:06:52Z</time>
      </trkpt>
      <trkpt lat="47.32113" lon="1.29266">
        <ele>68.39</ele>
        <time>2015-08-16T15:07:08Z</time>
      </trkpt>
      <trkpt lat="47.32141" lon="1.29288">
        <ele>68.39</ele>
        <time>2015-08-16T15:07:20Z</time>
      </trkpt>
      <trkpt lat="47.3217" lon="1.29311">
        <ele>67.43</ele>
        <time>2015-08-16T15:07:34Z</time>
      </trkpt>
      <trkpt lat="47.32214" lon="1.29357">
        <ele>66.95</ele>
        <time>2015-08-16T15:07:52Z</time>
      </trkpt>
      <trkpt lat="47.32271" lon="1.29413">
        <ele>67.43</ele>
        <time>2015-08-16T15:08:11Z</time>
      </trkpt>
      <trkpt lat="47.32309" lon="1.29462">
        <ele>66.47</ele>
        <time>2015-08-16T15:08:27Z</time>
      </trkpt>
      <trkpt lat="47.3233" lon="1.29533">
        <ele>65.51</ele>
        <time>2015-08-16T15:08:43Z</time>
      </trkpt>
      <trkpt lat="47.32346" lon="1.29611">
        <ele>66.47</ele>
        <time>2015-08-16T15:09:00Z</time>
      </trkpt>
      <trkpt lat="47.32354" lon="1.29652">
        <ele>65.99</ele>
        <time>2015-08-16T15:09:12Z</time>
      </trkpt>
      <trkpt lat="47.32361" lon="1.29684">
        <ele>65.51</ele>
        <time>2015-08-16T15:09:27Z</time>
      </trkpt>
      <trkpt lat="47.32371" lon="1.29742">
        <ele>65.51</ele>
        <time>2015-08-16T15:09:41Z</time>
      </trkpt>
      <trkpt lat="47.32387" lon="1.29809">
        <ele>65.99</ele>
        <time>2015-08-16T15:09:57Z</time>
      </trkpt>
      <trkpt lat="47.32391" lon="1.29862">
        <ele>65.51</ele>
        <time>2015-08-16T15:10:14Z</time>
      </trkpt>
      <trkpt lat="47.32391" lon="1.29864">
        <ele>65.51</ele>
        <time>2015-08-16T15:10:15Z</time>
      </trkpt>
      <trkpt lat="47.32391" lon="1.29867">
        <ele>65.51</ele>
        <time>2015-08-16T15:10:16Z</time>
      </trkpt>
      <trkpt lat="47.32391" lon="1.29869">
        <ele>65.51</ele>
        <time>2015-08-16T15:10:17Z</time>
      </trkpt>
      <trkpt lat="47.32391" lon="1.29871">
        <ele>65.51</ele>
        <time>2015-08-16T15:10:18Z</time>
      </trkpt>
      <trkpt lat="47.32391" lon="1.29874">
        <ele>65.51</ele>
        <time>2015-08-16T15:10:19Z</time>
      </trkpt>
      <trkpt lat="47.3239" lon="1.29876">
        <ele>65.51</ele>
        <time>2015-08-16T15:10:20Z</time>
      </trkpt>
      <trkpt lat="47.3239" lon="1.29879">
        <ele>65.51</ele>
        <time>2015-08-16T15:10:21Z</time>
      </trkpt>
      <trkpt lat="47.3239" lon="1.29881">
        <ele>65.51</ele>
        <time>2015-08-16T15:10:22Z</time>
      </trkpt>
      <trkpt lat="47.3239" lon="1.29883">
        <ele>65.51</ele>
        <time>2015-08-16T15:10:23Z</time>
      </trkpt>
      <trkpt lat="47.32391" lon="1.29885">
        <ele>65.51</ele>
        <time>2015-08-16T15:10:24Z</time>
      </trkpt>
      <trkpt lat="47.32391" lon="1.29885">
        <ele>65.51</ele>
        <time>2015-08-16T15:10:28Z</time>
      </trkpt>
      <trkpt lat="47.32394" lon="1.29892">
        <ele>65.51</ele>
        <time>2015-08-16T15:10:43Z</time>
      </trkpt>
      <trkpt lat="47.32395" lon="1.29895">
        <ele>65.51</ele>
        <time>2015-08-16T15:10:45Z</time>
      </trkpt>
      <trkpt lat="47.32395" lon="1.29896">
        <ele>65.51</ele>
        <time>2015-08-16T15:11:24Z</time>
      </trkpt>
      <trkpt lat="47.32395" lon="1.29896">
        <ele>65.99</ele>
        <time>2015-08-16T15:12:01Z</time>
      </trkpt>
      <trkpt lat="47.32394" lon="1.29896">
        <ele>65.51</ele>
        <time>2015-08-16T15:12:42Z</time>
      </trkpt>
      <trkpt lat="47.32395" lon="1.29895">
        <ele>65.51</ele>
        <time>2015-08-16T15:13:19Z</time>
      </trkpt>
      <trkpt lat="47.32394" lon="1.29895">
        <ele>65.51</ele>
        <time>2015-08-16T15:13:53Z</time>
      </trkpt>
      <trkpt lat="47.32391" lon="1.29897">
        <ele>65.51</ele>
        <time>2015-08-16T15:14:05Z</time>
      </trkpt>
      <trkpt lat="47.32391" lon="1.29898">
        <ele>65.51</ele>
        <time>2015-08-16T15:14:14Z</time>
      </trkpt>
      <trkpt lat="47.32389" lon="1.29909">
        <ele>65.99</ele>
        <time>2015-08-16T15:14:22Z</time>
      </trkpt>
      <trkpt lat="47.32383" lon="1.30028">
        <ele>65.99</ele>
        <time>2015-08-16T15:14:42Z</time>
      </trkpt>
      <trkpt lat="47.32377" lon="1.30145">
        <ele>65.99</ele>
        <time>2015-08-16T15:15:00Z</time>
      </trkpt>
      <trkpt lat="47.32376" lon="1.30245">
        <ele>65.99</ele>
        <time>2015-08-16T15:15:14Z</time>
      </trkpt>
      <trkpt lat="47.32376" lon="1.30253">
        <ele>66.47</ele>
        <time>2015-08-16T15:15:15Z</time>
      </trkpt>
      <trkpt lat="47.32377" lon="1.30261">
        <ele>66.47</ele>
        <time>2015-08-16T15:15:16Z</time>
      </trkpt>
      <trkpt lat="47.32382" lon="1.30275">
        <ele>66.95</ele>
        <time>2015-08-16T15:15:18Z</time>
      </trkpt>
      <trkpt lat="47.32385" lon="1.30283">
        <ele>66.95</ele>
        <time>2015-08-16T15:15:19Z</time>
      </trkpt>
      <trkpt lat="47.32388" lon="1.3029">
        <ele>66.95</ele>
        <time>2015-08-16T15:15:20Z</time>
      </trkpt>
      <trkpt lat="47.32401" lon="1.30313">
        <ele>66.95</ele>
        <time>2015-08-16T15:15:24Z</time>
      </trkpt>
      <trkpt lat="47.32432" lon="1.30367">
        <ele>68.87</ele>
        <time>2015-08-16T15:15:38Z</time>
      </trkpt>
      <trkpt lat="47.32471" lon="1.30426">
        <ele>68.87</ele>
        <time>2015-08-16T15:15:55Z</time>
      </trkpt>
      <trkpt lat="47.32494" lon="1.30463">
        <ele>68.39</ele>
        <time>2015-08-16T15:16:08Z</time>
      </trkpt>
      <trkpt lat="47.32516" lon="1.30492">
        <ele>67.91</ele>
        <time>2015-08-16T15:16:20Z</time>
      </trkpt>
      <trkpt lat="47.32533" lon="1.30518">
        <ele>68.39</ele>
        <time>2015-08-16T15:16:32Z</time>
      </trkpt>
      <trkpt lat="47.32536" lon="1.30519">
        <ele>68.87</ele>
        <time>2015-08-16T15:16:43Z</time>
      </trkpt>
      <trkpt lat="47.32536" lon="1.30519">
        <ele>68.87</ele>
        <time>2015-08-16T15:17:12Z</time>
      </trkpt>
      <trkpt lat="47.32535" lon="1.30519">
        <ele>68.87</ele>
        <time>2015-08-16T15:17:42Z</time>
      </trkpt>
      <trkpt lat="47.32534" lon="1.30519">
        <ele>68.87</ele>
        <time>2015-08-16T15:18:00Z</time>
      </trkpt>
      <trkpt lat="47.32531" lon="1.30519">
        <ele>67.91</ele>
        <time>2015-08-16T15:18:25Z</time>
      </trkpt>
      <trkpt lat="47.32531" lon="1.30518">
        <ele>68.39</ele>
        <time>2015-08-16T15:18:40Z</time>
      </trkpt>
      <trkpt lat="47.32533" lon="1.30522">
        <ele>68.87</ele>
        <time>2015-08-16T15:18:52Z</time>
      </trkpt>
      <trkpt lat="47.32523" lon="1.30534">
        <ele>68.39</ele>
        <time>2015-08-16T15:19:08Z</time>
      </trkpt>
      <trkpt lat="47.32519" lon="1.30535">
        <ele>68.39</ele>
        <time>2015-08-16T15:19:13Z</time>
      </trkpt>
      <trkpt lat="47.32504" lon="1.30533">
        <ele>66.47</ele>
        <time>2015-08-16T15:19:27Z</time>
      </trkpt>
      <trkpt lat="47.32491" lon="1.30525">
        <ele>65.51</ele>
        <time>2015-08-16T15:19:44Z</time>
      </trkpt>
      <trkpt lat="47.32477" lon="1.30515">
        <ele>63.58</ele>
        <time>2015-08-16T15:20:00Z</time>
      </trkpt>
      <trkpt lat="47.3248" lon="1.30498">
        <ele>64.07</ele>
        <time>2015-08-16T15:20:06Z</time>
      </trkpt>
      <trkpt lat="47.32478" lon="1.30485">
        <ele>64.07</ele>
        <time>2015-08-16T15:20:16Z</time>
      </trkpt>
      <trkpt lat="47.32464" lon="1.30495">
        <ele>64.55</ele>
        <time>2015-08-16T15:20:24Z</time>
      </trkpt>
      <trkpt lat="47.3243" lon="1.30523">
        <ele>64.07</ele>
        <time>2015-08-16T15:20:36Z</time>
      </trkpt>
      <trkpt lat="47.32385" lon="1.30554">
        <ele>64.55</ele>
        <time>2015-08-16T15:20:49Z</time>
      </trkpt>
      <trkpt lat="47.32324" lon="1.30578">
        <ele>64.55</ele>
        <time>2015-08-16T15:21:05Z</time>
      </trkpt>
      <trkpt lat="47.32279" lon="1.30591">
        <ele>64.55</ele>
        <time>2015-08-16T15:21:19Z</time>
      </trkpt>
      <trkpt lat="47.32237" lon="1.30595">
        <ele>64.55</ele>
        <time>2015-08-16T15:21:32Z</time>
      </trkpt>
      <trkpt lat="47.32199" lon="1.30595">
        <ele>64.07</ele>
        <time>2015-08-16T15:21:45Z</time>
      </trkpt>
      <trkpt lat="47.32183" lon="1.30595">
        <ele>63.58</ele>
        <time>2015-08-16T15:21:53Z</time>
      </trkpt>
      <trkpt lat="47.32147" lon="1.30598">
        <ele>63.1</ele>
        <time>2015-08-16T15:22:06Z</time>
      </trkpt>
      <trkpt lat="47.32116" lon="1.30618">
        <ele>63.1</ele>
        <time>2015-08-16T15:22:17Z</time>
      </trkpt>
      <trkpt lat="47.32086" lon="1.30633">
        <ele>63.1</ele>
        <time>2015-08-16T15:22:27Z</time>
      </trkpt>
      <trkpt lat="47.3206" lon="1.30646">
        <ele>63.1</ele>
        <time>2015-08-16T15:22:38Z</time>
      </trkpt>
      <trkpt lat="47.32041" lon="1.30664">
        <ele>63.58</ele>
        <time>2015-08-16T15:22:45Z</time>
      </trkpt>
      <trkpt lat="47.32027" lon="1.30692">
        <ele>63.58</ele>
        <time>2015-08-16T15:22:57Z</time>
      </trkpt>
      <trkpt lat="47.32026" lon="1.30692">
        <ele>63.1</ele>
        <time>2015-08-16T15:23:21Z</time>
      </trkpt>
      <trkpt lat="47.32024" lon="1.30691">
        <ele>63.58</ele>
        <time>2015-08-16T15:23:34Z</time>
      </trkpt>
      <trkpt lat="47.32022" lon="1.30691">
        <ele>63.58</ele>
        <time>2015-08-16T15:23:35Z</time>
      </trkpt>
      <trkpt lat="47.32007" lon="1.30726">
        <ele>64.07</ele>
        <time>2015-08-16T15:23:46Z</time>
      </trkpt>
      <trkpt lat="47.32" lon="1.30789">
        <ele>64.55</ele>
        <time>2015-08-16T15:23:59Z</time>
      </trkpt>
      <trkpt lat="47.32" lon="1.30792">
        <ele>64.55</ele>
        <time>2015-08-16T15:24:00Z</time>
      </trkpt>
      <trkpt lat="47.31999" lon="1.30794">
        <ele>64.55</ele>
        <time>2015-08-16T15:24:01Z</time>
      </trkpt>
      <trkpt lat="47.31999" lon="1.30797">
        <ele>64.55</ele>
        <time>2015-08-16T15:24:02Z</time>
      </trkpt>
      <trkpt lat="47.31994" lon="1.30846">
        <ele>64.07</ele>
        <time>2015-08-16T15:24:17Z</time>
      </trkpt>
      <trkpt lat="47.31991" lon="1.30902">
        <ele>63.58</ele>
        <time>2015-08-16T15:24:30Z</time>
      </trkpt>
      <trkpt lat="47.31989" lon="1.3096">
        <ele>64.55</ele>
        <time>2015-08-16T15:24:45Z</time>
      </trkpt>
      <trkpt lat="47.31989" lon="1.30963">
        <ele>64.55</ele>
        <time>2015-08-16T15:24:46Z</time>
      </trkpt>
      <trkpt lat="47.31989" lon="1.30966">
        <ele>64.07</ele>
        <time>2015-08-16T15:24:47Z</time>
      </trkpt>
      <trkpt lat="47.31988" lon="1.30969">
        <ele>64.55</ele>
        <time>2015-08-16T15:24:48Z</time>
      </trkpt>
      <trkpt lat="47.31988" lon="1.30972">
        <ele>64.55</ele>
        <time>2015-08-16T15:24:49Z</time>
      </trkpt>
      <trkpt lat="47.31987" lon="1.30974">
        <ele>64.55</ele>
        <time>2015-08-16T15:24:50Z</time>
      </trkpt>
      <trkpt lat="47.31987" lon="1.30977">
        <ele>64.55</ele>
        <time>2015-08-16T15:24:51Z</time>
      </trkpt>
      <trkpt lat="47.31986" lon="1.30979">
        <ele>64.55</ele>
        <time>2015-08-16T15:24:52Z</time>
      </trkpt>
      <trkpt lat="47.31986" lon="1.30981">
        <ele>64.55</ele>
        <time>2015-08-16T15:24:53Z</time>
      </trkpt>
      <trkpt lat="47.31981" lon="1.31044">
        <ele>64.55</ele>
        <time>2015-08-16T15:25:07Z</time>
      </trkpt>
      <trkpt lat="47.31974" lon="1.3112">
        <ele>64.55</ele>
        <time>2015-08-16T15:25:23Z</time>
      </trkpt>
      <trkpt lat="47.31969" lon="1.31174">
        <ele>64.55</ele>
        <time>2015-08-16T15:25:36Z</time>
      </trkpt>
      <trkpt lat="47.3196" lon="1.31259">
        <ele>65.03</ele>
        <time>2015-08-16T15:25:50Z</time>
      </trkpt>
      <trkpt lat="47.3196" lon="1.31264">
        <ele>65.51</ele>
        <time>2015-08-16T15:25:51Z</time>
      </trkpt>
      <trkpt lat="47.3196" lon="1.31269">
        <ele>65.99</ele>
        <time>2015-08-16T15:25:52Z</time>
      </trkpt>
      <trkpt lat="47.3196" lon="1.31273">
        <ele>65.99</ele>
        <time>2015-08-16T15:25:53Z</time>
      </trkpt>
      <trkpt lat="47.3196" lon="1.31276">
        <ele>66.47</ele>
        <time>2015-08-16T15:25:54Z</time>
      </trkpt>
      <trkpt lat="47.3196" lon="1.31278">
        <ele>66.47</ele>
        <time>2015-08-16T15:25:55Z</time>
      </trkpt>
      <trkpt lat="47.3196" lon="1.3128">
        <ele>66.47</ele>
        <time>2015-08-16T15:25:56Z</time>
      </trkpt>
      <trkpt lat="47.3196" lon="1.31282">
        <ele>66.47</ele>
        <time>2015-08-16T15:25:57Z</time>
      </trkpt>
      <trkpt lat="47.31959" lon="1.31284">
        <ele>65.99</ele>
        <time>2015-08-16T15:25:58Z</time>
      </trkpt>
      <trkpt lat="47.31958" lon="1.31286">
        <ele>65.99</ele>
        <time>2015-08-16T15:25:59Z</time>
      </trkpt>
      <trkpt lat="47.31953" lon="1.31307">
        <ele>65.03</ele>
        <time>2015-08-16T15:26:08Z</time>
      </trkpt>
      <trkpt lat="47.31953" lon="1.3131">
        <ele>65.03</ele>
        <time>2015-08-16T15:26:09Z</time>
      </trkpt>
      <trkpt lat="47.31953" lon="1.31312">
        <ele>65.03</ele>
        <time>2015-08-16T15:26:10Z</time>
      </trkpt>
      <trkpt lat="47.31952" lon="1.31315">
        <ele>65.03</ele>
        <time>2015-08-16T15:26:13Z</time>
      </trkpt>
      <trkpt lat="47.31952" lon="1.31316">
        <ele>65.03</ele>
        <time>2015-08-16T15:26:19Z</time>
      </trkpt>
      <trkpt lat="47.31949" lon="1.3132">
        <ele>65.03</ele>
        <time>2015-08-16T15:26:34Z</time>
      </trkpt>
      <trkpt lat="47.31946" lon="1.31324">
        <ele>64.55</ele>
        <time>2015-08-16T15:26:58Z</time>
      </trkpt>
      <trkpt lat="47.31946" lon="1.31323">
        <ele>64.55</ele>
        <time>2015-08-16T15:27:37Z</time>
      </trkpt>
      <trkpt lat="47.31946" lon="1.31323">
        <ele>64.55</ele>
        <time>2015-08-16T15:28:17Z</time>
      </trkpt>
      <trkpt lat="47.31947" lon="1.31322">
        <ele>64.55</ele>
        <time>2015-08-16T15:28:57Z</time>
      </trkpt>
      <trkpt lat="47.31947" lon="1.31324">
        <ele>64.55</ele>
        <time>2015-08-16T15:29:36Z</time>
      </trkpt>
      <trkpt lat="47.31946" lon="1.31323">
        <ele>65.03</ele>
        <time>2015-08-16T15:30:12Z</time>
      </trkpt>
      <trkpt lat="47.31945" lon="1.31323">
        <ele>65.03</ele>
        <time>2015-08-16T15:30:50Z</time>
      </trkpt>
      <trkpt lat="47.31943" lon="1.31321">
        <ele>64.55</ele>
        <time>2015-08-16T15:31:03Z</time>
      </trkpt>
      <trkpt lat="47.31941" lon="1.3132">
        <ele>64.07</ele>
        <time>2015-08-16T15:31:05Z</time>
      </trkpt>
      <trkpt lat="47.31909" lon="1.31329">
        <ele>64.55</ele>
        <time>2015-08-16T15:31:18Z</time>
      </trkpt>
      <trkpt lat="47.31868" lon="1.31354">
        <ele>64.55</ele>
        <time>2015-08-16T15:31:33Z</time>
      </trkpt>
      <trkpt lat="47.31822" lon="1.3139">
        <ele>65.03</ele>
        <time>2015-08-16T15:31:50Z</time>
      </trkpt>
      <trkpt lat="47.31784" lon="1.31418">
        <ele>65.03</ele>
        <time>2015-08-16T15:32:04Z</time>
      </trkpt>
      <trkpt lat="47.31739" lon="1.31454">
        <ele>65.51</ele>
        <time>2015-08-16T15:32:22Z</time>
      </trkpt>
      <trkpt lat="47.31692" lon="1.3149">
        <ele>65.03</ele>
        <time>2015-08-16T15:32:40Z</time>
      </trkpt>
      <trkpt lat="47.31648" lon="1.31526">
        <ele>65.03</ele>
        <time>2015-08-16T15:32:56Z</time>
      </trkpt>
      <trkpt lat="47.31604" lon="1.3156">
        <ele>65.51</ele>
        <time>2015-08-16T15:33:13Z</time>
      </trkpt>
      <trkpt lat="47.31577" lon="1.31579">
        <ele>65.03</ele>
        <time>2015-08-16T15:33:25Z</time>
      </trkpt>
      <trkpt lat="47.31542" lon="1.31605">
        <ele>65.03</ele>
        <time>2015-08-16T15:33:40Z</time>
      </trkpt>
      <trkpt lat="47.31515" lon="1.31628">
        <ele>65.03</ele>
        <time>2015-08-16T15:33:52Z</time>
      </trkpt>
      <trkpt lat="47.31483" lon="1.31653">
        <ele>65.03</ele>
        <time>2015-08-16T15:34:04Z</time>
      </trkpt>
      <trkpt lat="47.31442" lon="1.31688">
        <ele>65.51</ele>
        <time>2015-08-16T15:34:18Z</time>
      </trkpt>
      <trkpt lat="47.31413" lon="1.31707">
        <ele>65.51</ele>
        <time>2015-08-16T15:34:31Z</time>
      </trkpt>
      <trkpt lat="47.31387" lon="1.31725">
        <ele>65.51</ele>
        <time>2015-08-16T15:34:43Z</time>
      </trkpt>
      <trkpt lat="47.31352" lon="1.31749">
        <ele>65.51</ele>
        <time>2015-08-16T15:34:59Z</time>
      </trkpt>
      <trkpt lat="47.31332" lon="1.31767">
        <ele>65.03</ele>
        <time>2015-08-16T15:35:10Z</time>
      </trkpt>
      <trkpt lat="47.31295" lon="1.31797">
        <ele>65.03</ele>
        <time>2015-08-16T15:35:26Z</time>
      </trkpt>
      <trkpt lat="47.31268" lon="1.31826">
        <ele>65.51</ele>
        <time>2015-08-16T15:35:39Z</time>
      </trkpt>
      <trkpt lat="47.31238" lon="1.31863">
        <ele>65.51</ele>
        <time>2015-08-16T15:35:53Z</time>
      </trkpt>
      <trkpt lat="47.31203" lon="1.31893">
        <ele>65.51</ele>
        <time>2015-08-16T15:36:08Z</time>
      </trkpt>
      <trkpt lat="47.31162" lon="1.31921">
        <ele>65.99</ele>
        <time>2015-08-16T15:36:24Z</time>
      </trkpt>
      <trkpt lat="47.31122" lon="1.31949">
        <ele>65.99</ele>
        <time>2015-08-16T15:36:40Z</time>
      </trkpt>
      <trkpt lat="47.31089" lon="1.31973">
        <ele>65.51</ele>
        <time>2015-08-16T15:36:54Z</time>
      </trkpt>
      <trkpt lat="47.31064" lon="1.31996">
        <ele>65.51</ele>
        <time>2015-08-16T15:37:07Z</time>
      </trkpt>
      <trkpt lat="47.31032" lon="1.32025">
        <ele>65.51</ele>
        <time>2015-08-16T15:37:21Z</time>
      </trkpt>
      <trkpt lat="47.31024" lon="1.32033">
        <ele>65.51</ele>
        <time>2015-08-16T15:37:37Z</time>
      </trkpt>
      <trkpt lat="47.31025" lon="1.32032">
        <ele>66.47</ele>
        <time>2015-08-16T15:38:11Z</time>
      </trkpt>
      <trkpt lat="47.31022" lon="1.32034">
        <ele>66.47</ele>
        <time>2015-08-16T15:38:28Z</time>
      </trkpt>
      <trkpt lat="47.31016" lon="1.32043">
        <ele>65.99</ele>
        <time>2015-08-16T15:38:34Z</time>
      </trkpt>
      <trkpt lat="47.30985" lon="1.32065">
        <ele>65.99</ele>
        <time>2015-08-16T15:38:47Z</time>
      </trkpt>
      <trkpt lat="47.3095" lon="1.32069">
        <ele>65.99</ele>
        <time>2015-08-16T15:38:57Z</time>
      </trkpt>
      <trkpt lat="47.30921" lon="1.32043">
        <ele>65.51</ele>
        <time>2015-08-16T15:39:10Z</time>
      </trkpt>
      <trkpt lat="47.30875" lon="1.32038">
        <ele>65.51</ele>
        <time>2015-08-16T15:39:23Z</time>
      </trkpt>
      <trkpt lat="47.30814" lon="1.32075">
        <ele>66.47</ele>
        <time>2015-08-16T15:39:39Z</time>
      </trkpt>
      <trkpt lat="47.30761" lon="1.32137">
        <ele>65.99</ele>
        <time>2015-08-16T15:39:57Z</time>
      </trkpt>
      <trkpt lat="47.30709" lon="1.32196">
        <ele>65.99</ele>
        <time>2015-08-16T15:40:15Z</time>
      </trkpt>
      <trkpt lat="47.30674" lon="1.32234">
        <ele>65.99</ele>
        <time>2015-08-16T15:40:30Z</time>
      </trkpt>
      <trkpt lat="47.3067" lon="1.32238">
        <ele>65.99</ele>
        <time>2015-08-16T15:40:48Z</time>
      </trkpt>
      <trkpt lat="47.30669" lon="1.32239">
        <ele>65.99</ele>
        <time>2015-08-16T15:41:14Z</time>
      </trkpt>
      <trkpt lat="47.30645" lon="1.32266">
        <ele>65.99</ele>
        <time>2015-08-16T15:41:26Z</time>
      </trkpt>
      <trkpt lat="47.30589" lon="1.32329">
        <ele>66.47</ele>
        <time>2015-08-16T15:41:45Z</time>
      </trkpt>
      <trkpt lat="47.30542" lon="1.32373">
        <ele>65.99</ele>
        <time>2015-08-16T15:42:00Z</time>
      </trkpt>
      <trkpt lat="47.30496" lon="1.32428">
        <ele>66.47</ele>
        <time>2015-08-16T15:42:15Z</time>
      </trkpt>
      <trkpt lat="47.30467" lon="1.32468">
        <ele>65.99</ele>
        <time>2015-08-16T15:42:26Z</time>
      </trkpt>
      <trkpt lat="47.3042" lon="1.32548">
        <ele>66.47</ele>
        <time>2015-08-16T15:42:45Z</time>
      </trkpt>
      <trkpt lat="47.30376" lon="1.32609">
        <ele>66.47</ele>
        <time>2015-08-16T15:43:02Z</time>
      </trkpt>
      <trkpt lat="47.30327" lon="1.32671">
        <ele>66.47</ele>
        <time>2015-08-16T15:43:20Z</time>
      </trkpt>
      <trkpt lat="47.30277" lon="1.32734">
        <ele>66.47</ele>
        <time>2015-08-16T15:43:38Z</time>
      </trkpt>
      <trkpt lat="47.3023" lon="1.32797">
        <ele>66.47</ele>
        <time>2015-08-16T15:43:55Z</time>
      </trkpt>
      <trkpt lat="47.30192" lon="1.32852">
        <ele>66.47</ele>
        <time>2015-08-16T15:44:10Z</time>
      </trkpt>
      <trkpt lat="47.30149" lon="1.32899">
        <ele>66.47</ele>
        <time>2015-08-16T15:44:25Z</time>
      </trkpt>
      <trkpt lat="47.30099" lon="1.32928">
        <ele>66.47</ele>
        <time>2015-08-16T15:44:39Z</time>
      </trkpt>
      <trkpt lat="47.30046" lon="1.32967">
        <ele>66.95</ele>
        <time>2015-08-16T15:44:56Z</time>
      </trkpt>
      <trkpt lat="47.29992" lon="1.33016">
        <ele>66.95</ele>
        <time>2015-08-16T15:45:07Z</time>
      </trkpt>
      <trkpt lat="47.2997" lon="1.33032">
        <ele>66.47</ele>
        <time>2015-08-16T15:45:23Z</time>
      </trkpt>
      <trkpt lat="47.29925" lon="1.3308">
        <ele>66.47</ele>
        <time>2015-08-16T15:45:40Z</time>
      </trkpt>
      <trkpt lat="47.29877" lon="1.33127">
        <ele>66.47</ele>
        <time>2015-08-16T15:45:57Z</time>
      </trkpt>
      <trkpt lat="47.29827" lon="1.3317">
        <ele>66.47</ele>
        <time>2015-08-16T15:46:14Z</time>
      </trkpt>
      <trkpt lat="47.29781" lon="1.3321">
        <ele>66.47</ele>
        <time>2015-08-16T15:46:29Z</time>
      </trkpt>
      <trkpt lat="47.2973" lon="1.33253">
        <ele>66.95</ele>
        <time>2015-08-16T15:46:45Z</time>
      </trkpt>
      <trkpt lat="47.29681" lon="1.33303">
        <ele>66.95</ele>
        <time>2015-08-16T15:47:03Z</time>
      </trkpt>
      <trkpt lat="47.29645" lon="1.33353">
        <ele>66.95</ele>
        <time>2015-08-16T15:47:17Z</time>
      </trkpt>
      <trkpt lat="47.29608" lon="1.33412">
        <ele>66.95</ele>
        <time>2015-08-16T15:47:33Z</time>
      </trkpt>
      <trkpt lat="47.29575" lon="1.33469">
        <ele>67.43</ele>
        <time>2015-08-16T15:47:47Z</time>
      </trkpt>
      <trkpt lat="47.29545" lon="1.33532">
        <ele>66.95</ele>
        <time>2015-08-16T15:48:03Z</time>
      </trkpt>
      <trkpt lat="47.29536" lon="1.33559">
        <ele>66.95</ele>
        <time>2015-08-16T15:48:10Z</time>
      </trkpt>
      <trkpt lat="47.29523" lon="1.33601">
        <ele>67.43</ele>
        <time>2015-08-16T15:48:25Z</time>
      </trkpt>
      <trkpt lat="47.29523" lon="1.33604">
        <ele>67.43</ele>
        <time>2015-08-16T15:48:26Z</time>
      </trkpt>
      <trkpt lat="47.2952" lon="1.33619">
        <ele>67.43</ele>
        <time>2015-08-16T15:48:33Z</time>
      </trkpt>
      <trkpt lat="47.2952" lon="1.3362">
        <ele>67.91</ele>
        <time>2015-08-16T15:48:51Z</time>
      </trkpt>
      <trkpt lat="47.29519" lon="1.3362">
        <ele>67.43</ele>
        <time>2015-08-16T15:49:15Z</time>
      </trkpt>
      <trkpt lat="47.29517" lon="1.33623">
        <ele>67.43</ele>
        <time>2015-08-16T15:49:28Z</time>
      </trkpt>
      <trkpt lat="47.29508" lon="1.33676">
        <ele>67.91</ele>
        <time>2015-08-16T15:49:39Z</time>
      </trkpt>
      <trkpt lat="47.2951" lon="1.33778">
        <ele>67.91</ele>
        <time>2015-08-16T15:49:56Z</time>
      </trkpt>
      <trkpt lat="47.29521" lon="1.3384">
        <ele>67.91</ele>
        <time>2015-08-16T15:50:09Z</time>
      </trkpt>
      <trkpt lat="47.29522" lon="1.33844">
        <ele>67.91</ele>
        <time>2015-08-16T15:50:10Z</time>
      </trkpt>
      <trkpt lat="47.29523" lon="1.33848">
        <ele>67.91</ele>
        <time>2015-08-16T15:50:11Z</time>
      </trkpt>
      <trkpt lat="47.29524" lon="1.33851">
        <ele>67.91</ele>
        <time>2015-08-16T15:50:12Z</time>
      </trkpt>
      <trkpt lat="47.29524" lon="1.33854">
        <ele>67.91</ele>
        <time>2015-08-16T15:50:13Z</time>
      </trkpt>
      <trkpt lat="47.29524" lon="1.33856">
        <ele>67.91</ele>
        <time>2015-08-16T15:50:14Z</time>
      </trkpt>
      <trkpt lat="47.29524" lon="1.33859">
        <ele>67.91</ele>
        <time>2015-08-16T15:50:15Z</time>
      </trkpt>
      <trkpt lat="47.29524" lon="1.33862">
        <ele>67.91</ele>
        <time>2015-08-16T15:50:16Z</time>
      </trkpt>
      <trkpt lat="47.29525" lon="1.33865">
        <ele>67.91</ele>
        <time>2015-08-16T15:50:17Z</time>
      </trkpt>
      <trkpt lat="47.29526" lon="1.33866">
        <ele>67.91</ele>
        <time>2015-08-16T15:50:18Z</time>
      </trkpt>
      <trkpt lat="47.29527" lon="1.33867">
        <ele>67.91</ele>
        <time>2015-08-16T15:50:19Z</time>
      </trkpt>
      <trkpt lat="47.29528" lon="1.33869">
        <ele>67.91</ele>
        <time>2015-08-16T15:50:37Z</time>
      </trkpt>
      <trkpt lat="47.29529" lon="1.33913">
        <ele>68.39</ele>
        <time>2015-08-16T15:50:50Z</time>
      </trkpt>
      <trkpt lat="47.29517" lon="1.33982">
        <ele>68.39</ele>
        <time>2015-08-16T15:51:05Z</time>
      </trkpt>
      <trkpt lat="47.29492" lon="1.34049">
        <ele>68.39</ele>
        <time>2015-08-16T15:51:21Z</time>
      </trkpt>
      <trkpt lat="47.29473" lon="1.34108">
        <ele>67.91</ele>
        <time>2015-08-16T15:51:36Z</time>
      </trkpt>
      <trkpt lat="47.29456" lon="1.34169">
        <ele>67.91</ele>
        <time>2015-08-16T15:51:51Z</time>
      </trkpt>
      <trkpt lat="47.29438" lon="1.34229">
        <ele>67.91</ele>
        <time>2015-08-16T15:52:07Z</time>
      </trkpt>
      <trkpt lat="47.29418" lon="1.34295">
        <ele>67.91</ele>
        <time>2015-08-16T15:52:23Z</time>
      </trkpt>
      <trkpt lat="47.29397" lon="1.34368">
        <ele>68.39</ele>
        <time>2015-08-16T15:52:41Z</time>
      </trkpt>
      <trkpt lat="47.29369" lon="1.34428">
        <ele>68.87</ele>
        <time>2015-08-16T15:52:56Z</time>
      </trkpt>
      <trkpt lat="47.29335" lon="1.34497">
        <ele>68.39</ele>
        <time>2015-08-16T15:53:13Z</time>
      </trkpt>
      <trkpt lat="47.29289" lon="1.34555">
        <ele>67.91</ele>
        <time>2015-08-16T15:53:31Z</time>
      </trkpt>
      <trkpt lat="47.29248" lon="1.34598">
        <ele>67.43</ele>
        <time>2015-08-16T15:53:46Z</time>
      </trkpt>
      <trkpt lat="47.29196" lon="1.34645">
        <ele>67.91</ele>
        <time>2015-08-16T15:54:03Z</time>
      </trkpt>
      <trkpt lat="47.29151" lon="1.34706">
        <ele>68.39</ele>
        <time>2015-08-16T15:54:20Z</time>
      </trkpt>
      <trkpt lat="47.29117" lon="1.34769">
        <ele>67.91</ele>
        <time>2015-08-16T15:54:35Z</time>
      </trkpt>
      <trkpt lat="47.29088" lon="1.34809">
        <ele>67.91</ele>
        <time>2015-08-16T15:54:47Z</time>
      </trkpt>
      <trkpt lat="47.29068" lon="1.34872">
        <ele>67.43</ele>
        <time>2015-08-16T15:55:02Z</time>
      </trkpt>
      <trkpt lat="47.29066" lon="1.34936">
        <ele>67.91</ele>
        <time>2015-08-16T15:55:16Z</time>
      </trkpt>
      <trkpt lat="47.29063" lon="1.35004">
        <ele>67.91</ele>
        <time>2015-08-16T15:55:28Z</time>
      </trkpt>
      <trkpt lat="47.29055" lon="1.35067">
        <ele>68.39</ele>
        <time>2015-08-16T15:55:42Z</time>
      </trkpt>
      <trkpt lat="47.29055" lon="1.35071">
        <ele>68.39</ele>
        <time>2015-08-16T15:55:43Z</time>
      </trkpt>
      <trkpt lat="47.29055" lon="1.35074">
        <ele>68.39</ele>
        <time>2015-08-16T15:55:44Z</time>
      </trkpt>
      <trkpt lat="47.29055" lon="1.35077">
        <ele>68.39</ele>
        <time>2015-08-16T15:55:45Z</time>
      </trkpt>
      <trkpt lat="47.29054" lon="1.35081">
        <ele>68.39</ele>
        <time>2015-08-16T15:55:46Z</time>
      </trkpt>
      <trkpt lat="47.29054" lon="1.35085">
        <ele>67.91</ele>
        <time>2015-08-16T15:55:47Z</time>
      </trkpt>
      <trkpt lat="47.29054" lon="1.35089">
        <ele>67.91</ele>
        <time>2015-08-16T15:55:48Z</time>
      </trkpt>
      <trkpt lat="47.29049" lon="1.3513">
        <ele>68.39</ele>
        <time>2015-08-16T15:56:00Z</time>
      </trkpt>
      <trkpt lat="47.29037" lon="1.35197">
        <ele>67.91</ele>
        <time>2015-08-16T15:56:15Z</time>
      </trkpt>
      <trkpt lat="47.29026" lon="1.35265">
        <ele>67.91</ele>
        <time>2015-08-16T15:56:27Z</time>
      </trkpt>
      <trkpt lat="47.29026" lon="1.35271">
        <ele>67.91</ele>
        <time>2015-08-16T15:56:28Z</time>
      </trkpt>
      <trkpt lat="47.29026" lon="1.35277">
        <ele>67.91</ele>
        <time>2015-08-16T15:56:29Z</time>
      </trkpt>
      <trkpt lat="47.29038" lon="1.35323">
        <ele>68.39</ele>
        <time>2015-08-16T15:56:38Z</time>
      </trkpt>
      <trkpt lat="47.29052" lon="1.35379">
        <ele>69.35</ele>
        <time>2015-08-16T15:56:50Z</time>
      </trkpt>
      <trkpt lat="47.29046" lon="1.35415">
        <ele>69.35</ele>
        <time>2015-08-16T15:56:57Z</time>
      </trkpt>
      <trkpt lat="47.29023" lon="1.3548">
        <ele>68.87</ele>
        <time>2015-08-16T15:57:13Z</time>
      </trkpt>
      <trkpt lat="47.29009" lon="1.35557">
        <ele>69.35</ele>
        <time>2015-08-16T15:57:28Z</time>
      </trkpt>
      <trkpt lat="47.29015" lon="1.35633">
        <ele>68.87</ele>
        <time>2015-08-16T15:57:43Z</time>
      </trkpt>
      <trkpt lat="47.29008" lon="1.35713">
        <ele>69.35</ele>
        <time>2015-08-16T15:57:58Z</time>
      </trkpt>
      <trkpt lat="47.28965" lon="1.35785">
        <ele>69.35</ele>
        <time>2015-08-16T15:58:15Z</time>
      </trkpt>
      <trkpt lat="47.28938" lon="1.35844">
        <ele>69.83</ele>
        <time>2015-08-16T15:58:29Z</time>
      </trkpt>
      <trkpt lat="47.28917" lon="1.35907">
        <ele>69.35</ele>
        <time>2015-08-16T15:58:44Z</time>
      </trkpt>
      <trkpt lat="47.28883" lon="1.35982">
        <ele>71.76</ele>
        <time>2015-08-16T15:59:00Z</time>
      </trkpt>
      <trkpt lat="47.28882" lon="1.35986">
        <ele>67.43</ele>
        <time>2015-08-16T15:59:01Z</time>
      </trkpt>
      <trkpt lat="47.28872" lon="1.36007">
        <ele>71.27</ele>
        <time>2015-08-16T15:59:06Z</time>
      </trkpt>
      <trkpt lat="47.2887" lon="1.36011">
        <ele>67.43</ele>
        <time>2015-08-16T15:59:07Z</time>
      </trkpt>
      <trkpt lat="47.28868" lon="1.36016">
        <ele>72.72</ele>
        <time>2015-08-16T15:59:08Z</time>
      </trkpt>
      <trkpt lat="47.28841" lon="1.3607">
        <ele>69.35</ele>
        <time>2015-08-16T15:59:21Z</time>
      </trkpt>
      <trkpt lat="47.28812" lon="1.36127">
        <ele>69.35</ele>
        <time>2015-08-16T15:59:36Z</time>
      </trkpt>
      <trkpt lat="47.28778" lon="1.3619">
        <ele>69.35</ele>
        <time>2015-08-16T15:59:52Z</time>
      </trkpt>
      <trkpt lat="47.28741" lon="1.36261">
        <ele>69.35</ele>
        <time>2015-08-16T16:00:10Z</time>
      </trkpt>
      <trkpt lat="47.28701" lon="1.36316">
        <ele>69.35</ele>
        <time>2015-08-16T16:00:25Z</time>
      </trkpt>
      <trkpt lat="47.28665" lon="1.36359">
        <ele>69.35</ele>
        <time>2015-08-16T16:00:38Z</time>
      </trkpt>
      <trkpt lat="47.28627" lon="1.36417">
        <ele>69.35</ele>
        <time>2015-08-16T16:00:56Z</time>
      </trkpt>
      <trkpt lat="47.28591" lon="1.36481">
        <ele>68.87</ele>
        <time>2015-08-16T16:01:11Z</time>
      </trkpt>
      <trkpt lat="47.28539" lon="1.36512">
        <ele>69.35</ele>
        <time>2015-08-16T16:01:26Z</time>
      </trkpt>
      <trkpt lat="47.2849" lon="1.36572">
        <ele>69.35</ele>
        <time>2015-08-16T16:01:43Z</time>
      </trkpt>
      <trkpt lat="47.28452" lon="1.36633">
        <ele>69.35</ele>
        <time>2015-08-16T16:01:58Z</time>
      </trkpt>
      <trkpt lat="47.28395" lon="1.36716">
        <ele>69.35</ele>
        <time>2015-08-16T16:02:19Z</time>
      </trkpt>
      <trkpt lat="47.28347" lon="1.36769">
        <ele>69.35</ele>
        <time>2015-08-16T16:02:36Z</time>
      </trkpt>
      <trkpt lat="47.28308" lon="1.36816">
        <ele>69.35</ele>
        <time>2015-08-16T16:02:52Z</time>
      </trkpt>
      <trkpt lat="47.28306" lon="1.36819">
        <ele>69.35</ele>
        <time>2015-08-16T16:02:53Z</time>
      </trkpt>
      <trkpt lat="47.28304" lon="1.36822">
        <ele>69.35</ele>
        <time>2015-08-16T16:02:54Z</time>
      </trkpt>
      <trkpt lat="47.28302" lon="1.36824">
        <ele>69.35</ele>
        <time>2015-08-16T16:02:55Z</time>
      </trkpt>
      <trkpt lat="47.28301" lon="1.36826">
        <ele>69.35</ele>
        <time>2015-08-16T16:02:56Z</time>
      </trkpt>
      <trkpt lat="47.283" lon="1.36828">
        <ele>68.87</ele>
        <time>2015-08-16T16:02:57Z</time>
      </trkpt>
      <trkpt lat="47.28299" lon="1.36829">
        <ele>68.87</ele>
        <time>2015-08-16T16:02:58Z</time>
      </trkpt>
      <trkpt lat="47.28299" lon="1.3683">
        <ele>68.87</ele>
        <time>2015-08-16T16:03:09Z</time>
      </trkpt>
      <trkpt lat="47.28299" lon="1.3683">
        <ele>69.35</ele>
        <time>2015-08-16T16:03:11Z</time>
      </trkpt>
      <trkpt lat="47.28299" lon="1.3683">
        <ele>68.39</ele>
        <time>2015-08-16T16:03:13Z</time>
      </trkpt>
      <trkpt lat="47.28299" lon="1.36831">
        <ele>69.35</ele>
        <time>2015-08-16T16:03:28Z</time>
      </trkpt>
      <trkpt lat="47.283" lon="1.36831">
        <ele>69.35</ele>
        <time>2015-08-16T16:04:00Z</time>
      </trkpt>
      <trkpt lat="47.28297" lon="1.36833">
        <ele>69.35</ele>
        <time>2015-08-16T16:04:14Z</time>
      </trkpt>
      <trkpt lat="47.28296" lon="1.36833">
        <ele>69.83</ele>
        <time>2015-08-16T16:04:15Z</time>
      </trkpt>
      <trkpt lat="47.28286" lon="1.36842">
        <ele>69.35</ele>
        <time>2015-08-16T16:04:22Z</time>
      </trkpt>
      <trkpt lat="47.2825" lon="1.36894">
        <ele>69.35</ele>
        <time>2015-08-16T16:04:40Z</time>
      </trkpt>
      <trkpt lat="47.28212" lon="1.36958">
        <ele>69.83</ele>
        <time>2015-08-16T16:04:57Z</time>
      </trkpt>
      <trkpt lat="47.28149" lon="1.37031">
        <ele>69.83</ele>
        <time>2015-08-16T16:05:17Z</time>
      </trkpt>
      <trkpt lat="47.28092" lon="1.37077">
        <ele>70.31</ele>
        <time>2015-08-16T16:05:34Z</time>
      </trkpt>
      <trkpt lat="47.2803" lon="1.37101">
        <ele>70.31</ele>
        <time>2015-08-16T16:05:52Z</time>
      </trkpt>
      <trkpt lat="47.27985" lon="1.37128">
        <ele>69.83</ele>
        <time>2015-08-16T16:06:06Z</time>
      </trkpt>
      <trkpt lat="47.27925" lon="1.37193">
        <ele>69.35</ele>
        <time>2015-08-16T16:06:23Z</time>
      </trkpt>
      <trkpt lat="47.27869" lon="1.37243">
        <ele>69.83</ele>
        <time>2015-08-16T16:06:38Z</time>
      </trkpt>
      <trkpt lat="47.27866" lon="1.37246">
        <ele>70.79</ele>
        <time>2015-08-16T16:06:39Z</time>
      </trkpt>
      <trkpt lat="47.27832" lon="1.37288">
        <ele>69.83</ele>
        <time>2015-08-16T16:06:52Z</time>
      </trkpt>
      <trkpt lat="47.27812" lon="1.37335">
        <ele>69.83</ele>
        <time>2015-08-16T16:07:05Z</time>
      </trkpt>
      <trkpt lat="47.27799" lon="1.37397">
        <ele>69.83</ele>
        <time>2015-08-16T16:07:19Z</time>
      </trkpt>
      <trkpt lat="47.27781" lon="1.37459">
        <ele>69.83</ele>
        <time>2015-08-16T16:07:33Z</time>
      </trkpt>
      <trkpt lat="47.27769" lon="1.37528">
        <ele>69.83</ele>
        <time>2015-08-16T16:07:47Z</time>
      </trkpt>
      <trkpt lat="47.2775" lon="1.37602">
        <ele>69.83</ele>
        <time>2015-08-16T16:08:02Z</time>
      </trkpt>
      <trkpt lat="47.2773" lon="1.37656">
        <ele>70.31</ele>
        <time>2015-08-16T16:08:13Z</time>
      </trkpt>
      <trkpt lat="47.27689" lon="1.37745">
        <ele>70.31</ele>
        <time>2015-08-16T16:08:29Z</time>
      </trkpt>
      <trkpt lat="47.2768" lon="1.37768">
        <ele>70.79</ele>
        <time>2015-08-16T16:08:33Z</time>
      </trkpt>
      <trkpt lat="47.27678" lon="1.37773">
        <ele>70.79</ele>
        <time>2015-08-16T16:08:34Z</time>
      </trkpt>
      <trkpt lat="47.27677" lon="1.37778">
        <ele>71.27</ele>
        <time>2015-08-16T16:08:35Z</time>
      </trkpt>
      <trkpt lat="47.27673" lon="1.37786">
        <ele>71.76</ele>
        <time>2015-08-16T16:08:37Z</time>
      </trkpt>
      <trkpt lat="47.27672" lon="1.37789">
        <ele>71.76</ele>
        <time>2015-08-16T16:08:38Z</time>
      </trkpt>
      <trkpt lat="47.2767" lon="1.37791">
        <ele>71.76</ele>
        <time>2015-08-16T16:08:39Z</time>
      </trkpt>
      <trkpt lat="47.27669" lon="1.37793">
        <ele>72.24</ele>
        <time>2015-08-16T16:08:40Z</time>
      </trkpt>
      <trkpt lat="47.27669" lon="1.37794">
        <ele>71.76</ele>
        <time>2015-08-16T16:08:41Z</time>
      </trkpt>
      <trkpt lat="47.27668" lon="1.37794">
        <ele>71.76</ele>
        <time>2015-08-16T16:08:44Z</time>
      </trkpt>
      <trkpt lat="47.27641" lon="1.37784">
        <ele>72.24</ele>
        <time>2015-08-16T16:08:57Z</time>
      </trkpt>
      <trkpt lat="47.27605" lon="1.37767">
        <ele>72.24</ele>
        <time>2015-08-16T16:09:11Z</time>
      </trkpt>
      <trkpt lat="47.27603" lon="1.37766">
        <ele>72.24</ele>
        <time>2015-08-16T16:09:12Z</time>
      </trkpt>
      <trkpt lat="47.27601" lon="1.37764">
        <ele>72.24</ele>
        <time>2015-08-16T16:09:13Z</time>
      </trkpt>
      <trkpt lat="47.276" lon="1.37764">
        <ele>72.24</ele>
        <time>2015-08-16T16:09:14Z</time>
      </trkpt>
      <trkpt lat="47.27598" lon="1.37764">
        <ele>72.24</ele>
        <time>2015-08-16T16:09:15Z</time>
      </trkpt>
      <trkpt lat="47.27597" lon="1.37764">
        <ele>72.24</ele>
        <time>2015-08-16T16:09:16Z</time>
      </trkpt>
      <trkpt lat="47.27596" lon="1.37765">
        <ele>71.76</ele>
        <time>2015-08-16T16:09:28Z</time>
      </trkpt>
      <trkpt lat="47.27594" lon="1.37769">
        <ele>71.27</ele>
        <time>2015-08-16T16:09:40Z</time>
      </trkpt>
      <trkpt lat="47.27595" lon="1.37795">
        <ele>70.31</ele>
        <time>2015-08-16T16:09:48Z</time>
      </trkpt>
      <trkpt lat="47.27596" lon="1.37799">
        <ele>70.31</ele>
        <time>2015-08-16T16:09:49Z</time>
      </trkpt>
      <trkpt lat="47.27596" lon="1.37803">
        <ele>69.83</ele>
        <time>2015-08-16T16:09:50Z</time>
      </trkpt>
      <trkpt lat="47.27597" lon="1.37807">
        <ele>69.83</ele>
        <time>2015-08-16T16:09:51Z</time>
      </trkpt>
      <trkpt lat="47.27597" lon="1.37812">
        <ele>69.83</ele>
        <time>2015-08-16T16:09:52Z</time>
      </trkpt>
      <trkpt lat="47.27598" lon="1.37818">
        <ele>69.83</ele>
        <time>2015-08-16T16:09:53Z</time>
      </trkpt>
      <trkpt lat="47.276" lon="1.37834">
        <ele>69.83</ele>
        <time>2015-08-16T16:09:56Z</time>
      </trkpt>
      <trkpt lat="47.27597" lon="1.37921">
        <ele>69.35</ele>
        <time>2015-08-16T16:10:13Z</time>
      </trkpt>
      <trkpt lat="47.27584" lon="1.37998">
        <ele>69.83</ele>
        <time>2015-08-16T16:10:29Z</time>
      </trkpt>
      <trkpt lat="47.27569" lon="1.38075">
        <ele>69.83</ele>
        <time>2015-08-16T16:10:45Z</time>
      </trkpt>
      <trkpt lat="47.27558" lon="1.38135">
        <ele>69.83</ele>
        <time>2015-08-16T16:10:58Z</time>
      </trkpt>
      <trkpt lat="47.27549" lon="1.38195">
        <ele>69.83</ele>
        <time>2015-08-16T16:11:12Z</time>
      </trkpt>
      <trkpt lat="47.27545" lon="1.38254">
        <ele>69.83</ele>
        <time>2015-08-16T16:11:26Z</time>
      </trkpt>
      <trkpt lat="47.27546" lon="1.38317">
        <ele>69.83</ele>
        <time>2015-08-16T16:11:40Z</time>
      </trkpt>
      <trkpt lat="47.27552" lon="1.38391">
        <ele>69.83</ele>
        <time>2015-08-16T16:11:57Z</time>
      </trkpt>
      <trkpt lat="47.27559" lon="1.38448">
        <ele>69.83</ele>
        <time>2015-08-16T16:12:09Z</time>
      </trkpt>
      <trkpt lat="47.27569" lon="1.38537">
        <ele>70.79</ele>
        <time>2015-08-16T16:12:23Z</time>
      </trkpt>
      <trkpt lat="47.27569" lon="1.38545">
        <ele>70.79</ele>
        <time>2015-08-16T16:12:24Z</time>
      </trkpt>
      <trkpt lat="47.27568" lon="1.38552">
        <ele>70.79</ele>
        <time>2015-08-16T16:12:25Z</time>
      </trkpt>
      <trkpt lat="47.27553" lon="1.38605">
        <ele>70.79</ele>
        <time>2015-08-16T16:12:33Z</time>
      </trkpt>
      <trkpt lat="47.27551" lon="1.38611">
        <ele>70.79</ele>
        <time>2015-08-16T16:12:34Z</time>
      </trkpt>
      <trkpt lat="47.27549" lon="1.38617">
        <ele>70.79</ele>
        <time>2015-08-16T16:12:35Z</time>
      </trkpt>
      <trkpt lat="47.27548" lon="1.38624">
        <ele>70.79</ele>
        <time>2015-08-16T16:12:36Z</time>
      </trkpt>
      <trkpt lat="47.2753" lon="1.38683">
        <ele>70.31</ele>
        <time>2015-08-16T16:12:49Z</time>
      </trkpt>
      <trkpt lat="47.27519" lon="1.38721">
        <ele>68.87</ele>
        <time>2015-08-16T16:13:04Z</time>
      </trkpt>
      <trkpt lat="47.27518" lon="1.38723">
        <ele>73.2</ele>
        <time>2015-08-16T16:13:05Z</time>
      </trkpt>
      <trkpt lat="47.27517" lon="1.38726">
        <ele>68.39</ele>
        <time>2015-08-16T16:13:06Z</time>
      </trkpt>
      <trkpt lat="47.27515" lon="1.3873">
        <ele>71.76</ele>
        <time>2015-08-16T16:13:08Z</time>
      </trkpt>
      <trkpt lat="47.27513" lon="1.38741">
        <ele>69.83</ele>
        <time>2015-08-16T16:13:12Z</time>
      </trkpt>
      <trkpt lat="47.27511" lon="1.38745">
        <ele>72.72</ele>
        <time>2015-08-16T16:13:14Z</time>
      </trkpt>
      <trkpt lat="47.27511" lon="1.38747">
        <ele>68.39</ele>
        <time>2015-08-16T16:13:15Z</time>
      </trkpt>
      <trkpt lat="47.27509" lon="1.38754">
        <ele>73.2</ele>
        <time>2015-08-16T16:13:18Z</time>
      </trkpt>
      <trkpt lat="47.27504" lon="1.38766">
        <ele>69.83</ele>
        <time>2015-08-16T16:13:23Z</time>
      </trkpt>
      <trkpt lat="47.27504" lon="1.38769">
        <ele>69.83</ele>
        <time>2015-08-16T16:13:24Z</time>
      </trkpt>
      <trkpt lat="47.27502" lon="1.38774">
        <ele>73.2</ele>
        <time>2015-08-16T16:13:26Z</time>
      </trkpt>
      <trkpt lat="47.27502" lon="1.38778">
        <ele>71.27</ele>
        <time>2015-08-16T16:13:27Z</time>
      </trkpt>
      <trkpt lat="47.27501" lon="1.38781">
        <ele>67.91</ele>
        <time>2015-08-16T16:13:28Z</time>
      </trkpt>
      <trkpt lat="47.275" lon="1.38784">
        <ele>70.79</ele>
        <time>2015-08-16T16:13:29Z</time>
      </trkpt>
      <trkpt lat="47.27499" lon="1.38787">
        <ele>73.68</ele>
        <time>2015-08-16T16:13:30Z</time>
      </trkpt>
      <trkpt lat="47.27498" lon="1.3879">
        <ele>68.87</ele>
        <time>2015-08-16T16:13:31Z</time>
      </trkpt>
      <trkpt lat="47.27497" lon="1.38793">
        <ele>68.87</ele>
        <time>2015-08-16T16:13:32Z</time>
      </trkpt>
      <trkpt lat="47.27497" lon="1.38795">
        <ele>71.27</ele>
        <time>2015-08-16T16:13:33Z</time>
      </trkpt>
      <trkpt lat="47.27496" lon="1.38798">
        <ele>69.35</ele>
        <time>2015-08-16T16:13:34Z</time>
      </trkpt>
      <trkpt lat="47.27496" lon="1.388">
        <ele>70.79</ele>
        <time>2015-08-16T16:13:35Z</time>
      </trkpt>
      <trkpt lat="47.27495" lon="1.38803">
        <ele>70.79</ele>
        <time>2015-08-16T16:13:36Z</time>
      </trkpt>
      <trkpt lat="47.27495" lon="1.38805">
        <ele>70.79</ele>
        <time>2015-08-16T16:13:37Z</time>
      </trkpt>
      <trkpt lat="47.27495" lon="1.38808">
        <ele>70.79</ele>
        <time>2015-08-16T16:13:38Z</time>
      </trkpt>
      <trkpt lat="47.27496" lon="1.38811">
        <ele>70.79</ele>
        <time>2015-08-16T16:13:39Z</time>
      </trkpt>
      <trkpt lat="47.27496" lon="1.38814">
        <ele>70.79</ele>
        <time>2015-08-16T16:13:40Z</time>
      </trkpt>
      <trkpt lat="47.27496" lon="1.38817">
        <ele>70.79</ele>
        <time>2015-08-16T16:13:41Z</time>
      </trkpt>
      <trkpt lat="47.27478" lon="1.38837">
        <ele>70.31</ele>
        <time>2015-08-16T16:13:53Z</time>
      </trkpt>
      <trkpt lat="47.2746" lon="1.38887">
        <ele>69.83</ele>
        <time>2015-08-16T16:14:08Z</time>
      </trkpt>
      <trkpt lat="47.27451" lon="1.38923">
        <ele>69.83</ele>
        <time>2015-08-16T16:14:22Z</time>
      </trkpt>
      <trkpt lat="47.27442" lon="1.38924">
        <ele>69.83</ele>
        <time>2015-08-16T16:14:26Z</time>
      </trkpt>
      <trkpt lat="47.2741" lon="1.38915">
        <ele>69.83</ele>
        <time>2015-08-16T16:14:38Z</time>
      </trkpt>
      <trkpt lat="47.27408" lon="1.38913">
        <ele>69.83</ele>
        <time>2015-08-16T16:14:39Z</time>
      </trkpt>
      <trkpt lat="47.27405" lon="1.38912">
        <ele>69.83</ele>
        <time>2015-08-16T16:14:40Z</time>
      </trkpt>
      <trkpt lat="47.27403" lon="1.38912">
        <ele>70.31</ele>
        <time>2015-08-16T16:14:41Z</time>
      </trkpt>
      <trkpt lat="47.27401" lon="1.38912">
        <ele>70.31</ele>
        <time>2015-08-16T16:14:42Z</time>
      </trkpt>
      <trkpt lat="47.27398" lon="1.38914">
        <ele>71.27</ele>
        <time>2015-08-16T16:14:43Z</time>
      </trkpt>
      <trkpt lat="47.27396" lon="1.38915">
        <ele>70.31</ele>
        <time>2015-08-16T16:14:44Z</time>
      </trkpt>
      <trkpt lat="47.27394" lon="1.38917">
        <ele>70.31</ele>
        <time>2015-08-16T16:14:45Z</time>
      </trkpt>
      <trkpt lat="47.27393" lon="1.38919">
        <ele>70.31</ele>
        <time>2015-08-16T16:14:46Z</time>
      </trkpt>
      <trkpt lat="47.27391" lon="1.38925">
        <ele>70.79</ele>
        <time>2015-08-16T16:14:53Z</time>
      </trkpt>
      <trkpt lat="47.27389" lon="1.38924">
        <ele>70.31</ele>
        <time>2015-08-16T16:15:24Z</time>
      </trkpt>
      <trkpt lat="47.27388" lon="1.38923">
        <ele>71.27</ele>
        <time>2015-08-16T16:15:50Z</time>
      </trkpt>
      <trkpt lat="47.27383" lon="1.3894">
        <ele>71.76</ele>
        <time>2015-08-16T16:16:04Z</time>
      </trkpt>
      <trkpt lat="47.27379" lon="1.38961">
        <ele>71.27</ele>
        <time>2015-08-16T16:16:16Z</time>
      </trkpt>
      <trkpt lat="47.27376" lon="1.38996">
        <ele>69.83</ele>
        <time>2015-08-16T16:16:27Z</time>
      </trkpt>
      <trkpt lat="47.27401" lon="1.39066">
        <ele>70.31</ele>
        <time>2015-08-16T16:16:41Z</time>
      </trkpt>
      <trkpt lat="47.27403" lon="1.39083">
        <ele>71.27</ele>
        <time>2015-08-16T16:16:44Z</time>
      </trkpt>
      <trkpt lat="47.27393" lon="1.39156">
        <ele>70.79</ele>
        <time>2015-08-16T16:16:58Z</time>
      </trkpt>
      <trkpt lat="47.27389" lon="1.39181">
        <ele>71.27</ele>
        <time>2015-08-16T16:17:09Z</time>
      </trkpt>
      <trkpt lat="47.27389" lon="1.39181">
        <ele>75.6</ele>
        <time>2015-08-16T16:17:10Z</time>
      </trkpt>
      <trkpt lat="47.27389" lon="1.39181">
        <ele>65.03</ele>
        <time>2015-08-16T16:17:11Z</time>
      </trkpt>
      <trkpt lat="47.27389" lon="1.39181">
        <ele>71.27</ele>
        <time>2015-08-16T16:17:17Z</time>
      </trkpt>
      <trkpt lat="47.2739" lon="1.39182">
        <ele>71.27</ele>
        <time>2015-08-16T16:17:39Z</time>
      </trkpt>
      <trkpt lat="47.2739" lon="1.39185">
        <ele>71.27</ele>
        <time>2015-08-16T16:17:53Z</time>
      </trkpt>
      <trkpt lat="47.27376" lon="1.39232">
        <ele>71.76</ele>
        <time>2015-08-16T16:18:06Z</time>
      </trkpt>
      <trkpt lat="47.27372" lon="1.39241">
        <ele>71.27</ele>
        <time>2015-08-16T16:18:10Z</time>
      </trkpt>
      <trkpt lat="47.27372" lon="1.3925">
        <ele>71.76</ele>
        <time>2015-08-16T16:18:15Z</time>
      </trkpt>
      <trkpt lat="47.27373" lon="1.39251">
        <ele>71.76</ele>
        <time>2015-08-16T16:18:23Z</time>
      </trkpt>
      <trkpt lat="47.27375" lon="1.39258">
        <ele>71.76</ele>
        <time>2015-08-16T16:18:36Z</time>
      </trkpt>
      <trkpt lat="47.27376" lon="1.39259">
        <ele>71.76</ele>
        <time>2015-08-16T16:18:37Z</time>
      </trkpt>
      <trkpt lat="47.27384" lon="1.39259">
        <ele>72.72</ele>
        <time>2015-08-16T16:18:48Z</time>
      </trkpt>
      <trkpt lat="47.27384" lon="1.39259">
        <ele>71.76</ele>
        <time>2015-08-16T16:18:49Z</time>
      </trkpt>
      <trkpt lat="47.27402" lon="1.39221">
        <ele>72.24</ele>
        <time>2015-08-16T16:19:05Z</time>
      </trkpt>
      <trkpt lat="47.27408" lon="1.39194">
        <ele>72.24</ele>
        <time>2015-08-16T16:19:14Z</time>
      </trkpt>
      <trkpt lat="47.27411" lon="1.39184">
        <ele>72.24</ele>
        <time>2015-08-16T16:19:19Z</time>
      </trkpt>
      <trkpt lat="47.27419" lon="1.39178">
        <ele>72.24</ele>
        <time>2015-08-16T16:19:25Z</time>
      </trkpt>
      <trkpt lat="47.2742" lon="1.39179">
        <ele>72.24</ele>
        <time>2015-08-16T16:19:31Z</time>
      </trkpt>
      <trkpt lat="47.2742" lon="1.39179">
        <ele>75.12</ele>
        <time>2015-08-16T16:19:33Z</time>
      </trkpt>
      <trkpt lat="47.2742" lon="1.39179">
        <ele>68.39</ele>
        <time>2015-08-16T16:19:34Z</time>
      </trkpt>
      <trkpt lat="47.2742" lon="1.39179">
        <ele>72.24</ele>
        <time>2015-08-16T16:19:39Z</time>
      </trkpt>
      <trkpt lat="47.27411" lon="1.39205">
        <ele>72.24</ele>
        <time>2015-08-16T16:19:54Z</time>
      </trkpt>
      <trkpt lat="47.27393" lon="1.39279">
        <ele>72.24</ele>
        <time>2015-08-16T16:20:11Z</time>
      </trkpt>
      <trkpt lat="47.27377" lon="1.39351">
        <ele>71.76</ele>
        <time>2015-08-16T16:20:25Z</time>
      </trkpt>
      <trkpt lat="47.27366" lon="1.39432">
        <ele>71.76</ele>
        <time>2015-08-16T16:20:40Z</time>
      </trkpt>
      <trkpt lat="47.2736" lon="1.3953">
        <ele>71.76</ele>
        <time>2015-08-16T16:20:57Z</time>
      </trkpt>
      <trkpt lat="47.27359" lon="1.39595">
        <ele>71.76</ele>
        <time>2015-08-16T16:21:09Z</time>
      </trkpt>
      <trkpt lat="47.2736" lon="1.39679">
        <ele>72.24</ele>
        <time>2015-08-16T16:21:25Z</time>
      </trkpt>
      <trkpt lat="47.2736" lon="1.39752">
        <ele>73.68</ele>
        <time>2015-08-16T16:21:39Z</time>
      </trkpt>
      <trkpt lat="47.2736" lon="1.39757">
        <ele>70.31</ele>
        <time>2015-08-16T16:21:40Z</time>
      </trkpt>
      <trkpt lat="47.27359" lon="1.39761">
        <ele>71.76</ele>
        <time>2015-08-16T16:21:41Z</time>
      </trkpt>
      <trkpt lat="47.27358" lon="1.39785">
        <ele>71.76</ele>
        <time>2015-08-16T16:21:46Z</time>
      </trkpt>
      <trkpt lat="47.27356" lon="1.39826">
        <ele>73.68</ele>
        <time>2015-08-16T16:21:57Z</time>
      </trkpt>
      <trkpt lat="47.27356" lon="1.3983">
        <ele>69.83</ele>
        <time>2015-08-16T16:21:58Z</time>
      </trkpt>
      <trkpt lat="47.27355" lon="1.39877">
        <ele>72.24</ele>
        <time>2015-08-16T16:22:10Z</time>
      </trkpt>
      <trkpt lat="47.27354" lon="1.39942">
        <ele>72.24</ele>
        <time>2015-08-16T16:22:26Z</time>
      </trkpt>
      <trkpt lat="47.27354" lon="1.39945">
        <ele>72.72</ele>
        <time>2015-08-16T16:22:27Z</time>
      </trkpt>
      <trkpt lat="47.27354" lon="1.39948">
        <ele>72.72</ele>
        <time>2015-08-16T16:22:28Z</time>
      </trkpt>
      <trkpt lat="47.27354" lon="1.39951">
        <ele>72.72</ele>
        <time>2015-08-16T16:22:29Z</time>
      </trkpt>
      <trkpt lat="47.27354" lon="1.39955">
        <ele>72.72</ele>
        <time>2015-08-16T16:22:30Z</time>
      </trkpt>
      <trkpt lat="47.27354" lon="1.39958">
        <ele>72.24</ele>
        <time>2015-08-16T16:22:31Z</time>
      </trkpt>
      <trkpt lat="47.27353" lon="1.39961">
        <ele>72.24</ele>
        <time>2015-08-16T16:22:32Z</time>
      </trkpt>
      <trkpt lat="47.27353" lon="1.39965">
        <ele>72.72</ele>
        <time>2015-08-16T16:22:33Z</time>
      </trkpt>
      <trkpt lat="47.27353" lon="1.39967">
        <ele>72.72</ele>
        <time>2015-08-16T16:22:34Z</time>
      </trkpt>
      <trkpt lat="47.27356" lon="1.39971">
        <ele>72.24</ele>
        <time>2015-08-16T16:22:36Z</time>
      </trkpt>
      <trkpt lat="47.27359" lon="1.39972">
        <ele>72.24</ele>
        <time>2015-08-16T16:22:38Z</time>
      </trkpt>
      <trkpt lat="47.27385" lon="1.3999">
        <ele>71.27</ele>
        <time>2015-08-16T16:22:52Z</time>
      </trkpt>
      <trkpt lat="47.2742" lon="1.40014">
        <ele>71.27</ele>
        <time>2015-08-16T16:23:04Z</time>
      </trkpt>
      <trkpt lat="47.27454" lon="1.40044">
        <ele>72.72</ele>
        <time>2015-08-16T16:23:15Z</time>
      </trkpt>
      <trkpt lat="47.27456" lon="1.40045">
        <ele>72.72</ele>
        <time>2015-08-16T16:23:16Z</time>
      </trkpt>
      <trkpt lat="47.27461" lon="1.40044">
        <ele>72.72</ele>
        <time>2015-08-16T16:23:24Z</time>
      </trkpt>
      <trkpt lat="47.27461" lon="1.40044">
        <ele>72.72</ele>
        <time>2015-08-16T16:23:26Z</time>
      </trkpt>
      <trkpt lat="47.27461" lon="1.40044">
        <ele>72.72</ele>
        <time>2015-08-16T16:23:50Z</time>
      </trkpt>
      <trkpt lat="47.2746" lon="1.40045">
        <ele>72.72</ele>
        <time>2015-08-16T16:24:29Z</time>
      </trkpt>
      <trkpt lat="47.27461" lon="1.40044">
        <ele>72.24</ele>
        <time>2015-08-16T16:25:02Z</time>
      </trkpt>
      <trkpt lat="47.27461" lon="1.40044">
        <ele>72.24</ele>
        <time>2015-08-16T16:25:33Z</time>
      </trkpt>
      <trkpt lat="47.27462" lon="1.40043">
        <ele>72.24</ele>
        <time>2015-08-16T16:26:06Z</time>
      </trkpt>
      <trkpt lat="47.27462" lon="1.40043">
        <ele>72.24</ele>
        <time>2015-08-16T16:26:35Z</time>
      </trkpt>
      <trkpt lat="47.27462" lon="1.40042">
        <ele>72.24</ele>
        <time>2015-08-16T16:26:56Z</time>
      </trkpt>
      <trkpt lat="47.27461" lon="1.40044">
        <ele>72.24</ele>
        <time>2015-08-16T16:27:23Z</time>
      </trkpt>
      <trkpt lat="47.27461" lon="1.40044">
        <ele>72.24</ele>
        <time>2015-08-16T16:27:41Z</time>
      </trkpt>
      <trkpt lat="47.2746" lon="1.40044">
        <ele>72.24</ele>
        <time>2015-08-16T16:28:15Z</time>
      </trkpt>
      <trkpt lat="47.2746" lon="1.40044">
        <ele>72.24</ele>
        <time>2015-08-16T16:28:51Z</time>
      </trkpt>
      <trkpt lat="47.2746" lon="1.40043">
        <ele>72.24</ele>
        <time>2015-08-16T16:29:22Z</time>
      </trkpt>
      <trkpt lat="47.2746" lon="1.40044">
        <ele>72.24</ele>
        <time>2015-08-16T16:29:48Z</time>
      </trkpt>
      <trkpt lat="47.27459" lon="1.40044">
        <ele>72.24</ele>
        <time>2015-08-16T16:30:28Z</time>
      </trkpt>
      <trkpt lat="47.27458" lon="1.40043">
        <ele>72.24</ele>
        <time>2015-08-16T16:31:01Z</time>
      </trkpt>
      <trkpt lat="47.27459" lon="1.40042">
        <ele>72.24</ele>
        <time>2015-08-16T16:31:34Z</time>
      </trkpt>
      <trkpt lat="47.2746" lon="1.40043">
        <ele>72.24</ele>
        <time>2015-08-16T16:32:03Z</time>
      </trkpt>
      <trkpt lat="47.2746" lon="1.40043">
        <ele>71.76</ele>
        <time>2015-08-16T16:32:32Z</time>
      </trkpt>
      <trkpt lat="47.2746" lon="1.40043">
        <ele>71.76</ele>
        <time>2015-08-16T16:33:06Z</time>
      </trkpt>
      <trkpt lat="47.2746" lon="1.40044">
        <ele>71.76</ele>
        <time>2015-08-16T16:33:35Z</time>
      </trkpt>
      <trkpt lat="47.2746" lon="1.40048">
        <ele>72.24</ele>
        <time>2015-08-16T16:33:46Z</time>
      </trkpt>
      <trkpt lat="47.27463" lon="1.40052">
        <ele>72.24</ele>
        <time>2015-08-16T16:33:51Z</time>
      </trkpt>
      <trkpt lat="47.27464" lon="1.40051">
        <ele>72.24</ele>
        <time>2015-08-16T16:34:13Z</time>
      </trkpt>
      <trkpt lat="47.27465" lon="1.40051">
        <ele>72.24</ele>
        <time>2015-08-16T16:34:40Z</time>
      </trkpt>
      <trkpt lat="47.27465" lon="1.40051">
        <ele>72.24</ele>
        <time>2015-08-16T16:35:09Z</time>
      </trkpt>
      <trkpt lat="47.27465" lon="1.40051">
        <ele>74.16</ele>
        <time>2015-08-16T16:35:12Z</time>
      </trkpt>
      <trkpt lat="47.27465" lon="1.4005">
        <ele>70.79</ele>
        <time>2015-08-16T16:35:34Z</time>
      </trkpt>
      <trkpt lat="47.27465" lon="1.4005">
        <ele>74.16</ele>
        <time>2015-08-16T16:35:37Z</time>
      </trkpt>
      <trkpt lat="47.27465" lon="1.4005">
        <ele>69.83</ele>
        <time>2015-08-16T16:35:38Z</time>
      </trkpt>
      <trkpt lat="47.27465" lon="1.4005">
        <ele>76.56</ele>
        <time>2015-08-16T16:35:39Z</time>
      </trkpt>
      <trkpt lat="47.27465" lon="1.4005">
        <ele>71.27</ele>
        <time>2015-08-16T16:35:41Z</time>
      </trkpt>
      <trkpt lat="47.27465" lon="1.4005">
        <ele>76.08</ele>
        <time>2015-08-16T16:35:42Z</time>
      </trkpt>
      <trkpt lat="47.27465" lon="1.4005">
        <ele>69.35</ele>
        <time>2015-08-16T16:35:43Z</time>
      </trkpt>
      <trkpt lat="47.27465" lon="1.40049">
        <ele>72.24</ele>
        <time>2015-08-16T16:36:07Z</time>
      </trkpt>
      <trkpt lat="47.27465" lon="1.4005">
        <ele>72.24</ele>
        <time>2015-08-16T16:36:28Z</time>
      </trkpt>
      <trkpt lat="47.27468" lon="1.40053">
        <ele>72.24</ele>
        <time>2015-08-16T16:36:45Z</time>
      </trkpt>
      <trkpt lat="47.27471" lon="1.40054">
        <ele>72.24</ele>
        <time>2015-08-16T16:36:59Z</time>
      </trkpt>
      <trkpt lat="47.27472" lon="1.40054">
        <ele>72.24</ele>
        <time>2015-08-16T16:37:00Z</time>
      </trkpt>
      <trkpt lat="47.27472" lon="1.40056">
        <ele>72.24</ele>
        <time>2015-08-16T16:37:01Z</time>
      </trkpt>
      <trkpt lat="47.27489" lon="1.40065">
        <ele>71.76</ele>
        <time>2015-08-16T16:37:09Z</time>
      </trkpt>
      <trkpt lat="47.2754" lon="1.40108">
        <ele>72.72</ele>
        <time>2015-08-16T16:37:27Z</time>
      </trkpt>
      <trkpt lat="47.27571" lon="1.40136">
        <ele>73.2</ele>
        <time>2015-08-16T16:37:39Z</time>
      </trkpt>
      <trkpt lat="47.27572" lon="1.40137">
        <ele>73.68</ele>
        <time>2015-08-16T16:37:40Z</time>
      </trkpt>
      <trkpt lat="47.2757" lon="1.40148">
        <ele>73.68</ele>
        <time>2015-08-16T16:37:45Z</time>
      </trkpt>
      <trkpt lat="47.27569" lon="1.40151">
        <ele>73.68</ele>
        <time>2015-08-16T16:37:46Z</time>
      </trkpt>
      <trkpt lat="47.27568" lon="1.40155">
        <ele>73.68</ele>
        <time>2015-08-16T16:37:47Z</time>
      </trkpt>
      <trkpt lat="47.27566" lon="1.40159">
        <ele>73.68</ele>
        <time>2015-08-16T16:37:48Z</time>
      </trkpt>
      <trkpt lat="47.27565" lon="1.40163">
        <ele>73.68</ele>
        <time>2015-08-16T16:37:49Z</time>
      </trkpt>
      <trkpt lat="47.27563" lon="1.40167">
        <ele>73.68</ele>
        <time>2015-08-16T16:37:50Z</time>
      </trkpt>
      <trkpt lat="47.27552" lon="1.40194">
        <ele>73.68</ele>
        <time>2015-08-16T16:37:57Z</time>
      </trkpt>
      <trkpt lat="47.27527" lon="1.4025">
        <ele>73.68</ele>
        <time>2015-08-16T16:38:11Z</time>
      </trkpt>
      <trkpt lat="47.27497" lon="1.40323">
        <ele>74.16</ele>
        <time>2015-08-16T16:38:27Z</time>
      </trkpt>
      <trkpt lat="47.27472" lon="1.4038">
        <ele>74.64</ele>
        <time>2015-08-16T16:38:41Z</time>
      </trkpt>
      <trkpt lat="47.2745" lon="1.40435">
        <ele>74.64</ele>
        <time>2015-08-16T16:38:56Z</time>
      </trkpt>
      <trkpt lat="47.27428" lon="1.40487">
        <ele>74.64</ele>
        <time>2015-08-16T16:39:09Z</time>
      </trkpt>
      <trkpt lat="47.274" lon="1.40553">
        <ele>75.12</ele>
        <time>2015-08-16T16:39:24Z</time>
      </trkpt>
      <trkpt lat="47.27398" lon="1.40557">
        <ele>75.12</ele>
        <time>2015-08-16T16:39:25Z</time>
      </trkpt>
      <trkpt lat="47.27396" lon="1.40562">
        <ele>75.12</ele>
        <time>2015-08-16T16:39:26Z</time>
      </trkpt>
      <trkpt lat="47.27394" lon="1.40567">
        <ele>75.12</ele>
        <time>2015-08-16T16:39:27Z</time>
      </trkpt>
      <trkpt lat="47.27391" lon="1.40572">
        <ele>75.12</ele>
        <time>2015-08-16T16:39:28Z</time>
      </trkpt>
      <trkpt lat="47.2739" lon="1.40577">
        <ele>75.12</ele>
        <time>2015-08-16T16:39:29Z</time>
      </trkpt>
      <trkpt lat="47.27388" lon="1.40583">
        <ele>75.12</ele>
        <time>2015-08-16T16:39:30Z</time>
      </trkpt>
      <trkpt lat="47.27386" lon="1.40588">
        <ele>75.12</ele>
        <time>2015-08-16T16:39:31Z</time>
      </trkpt>
      <trkpt lat="47.27379" lon="1.40603">
        <ele>75.6</ele>
        <time>2015-08-16T16:39:34Z</time>
      </trkpt>
      <trkpt lat="47.27349" lon="1.40674">
        <ele>75.6</ele>
        <time>2015-08-16T16:39:49Z</time>
      </trkpt>
      <trkpt lat="47.27322" lon="1.40737">
        <ele>75.6</ele>
        <time>2015-08-16T16:40:04Z</time>
      </trkpt>
      <trkpt lat="47.2729" lon="1.40807">
        <ele>74.64</ele>
        <time>2015-08-16T16:40:21Z</time>
      </trkpt>
      <trkpt lat="47.27258" lon="1.40884">
        <ele>74.16</ele>
        <time>2015-08-16T16:40:38Z</time>
      </trkpt>
      <trkpt lat="47.27225" lon="1.4096">
        <ele>74.16</ele>
        <time>2015-08-16T16:40:54Z</time>
      </trkpt>
      <trkpt lat="47.27191" lon="1.41038">
        <ele>73.2</ele>
        <time>2015-08-16T16:41:11Z</time>
      </trkpt>
      <trkpt lat="47.27162" lon="1.4111">
        <ele>72.72</ele>
        <time>2015-08-16T16:41:26Z</time>
      </trkpt>
      <trkpt lat="47.27135" lon="1.41178">
        <ele>72.72</ele>
        <time>2015-08-16T16:41:42Z</time>
      </trkpt>
      <trkpt lat="47.27109" lon="1.41248">
        <ele>72.72</ele>
        <time>2015-08-16T16:41:59Z</time>
      </trkpt>
      <trkpt lat="47.27095" lon="1.41288">
        <ele>73.2</ele>
        <time>2015-08-16T16:42:11Z</time>
      </trkpt>
      <trkpt lat="47.27093" lon="1.41291">
        <ele>73.2</ele>
        <time>2015-08-16T16:42:12Z</time>
      </trkpt>
      <trkpt lat="47.27092" lon="1.41294">
        <ele>73.2</ele>
        <time>2015-08-16T16:42:13Z</time>
      </trkpt>
      <trkpt lat="47.2709" lon="1.41297">
        <ele>73.2</ele>
        <time>2015-08-16T16:42:14Z</time>
      </trkpt>
      <trkpt lat="47.27089" lon="1.41299">
        <ele>73.2</ele>
        <time>2015-08-16T16:42:15Z</time>
      </trkpt>
      <trkpt lat="47.27087" lon="1.413">
        <ele>73.2</ele>
        <time>2015-08-16T16:42:16Z</time>
      </trkpt>
      <trkpt lat="47.2708" lon="1.41301">
        <ele>73.68</ele>
        <time>2015-08-16T16:42:20Z</time>
      </trkpt>
      <trkpt lat="47.27074" lon="1.41296">
        <ele>73.68</ele>
        <time>2015-08-16T16:42:23Z</time>
      </trkpt>
      <trkpt lat="47.27071" lon="1.41294">
        <ele>74.16</ele>
        <time>2015-08-16T16:42:24Z</time>
      </trkpt>
      <trkpt lat="47.27069" lon="1.41292">
        <ele>74.16</ele>
        <time>2015-08-16T16:42:25Z</time>
      </trkpt>
      <trkpt lat="47.27067" lon="1.41291">
        <ele>74.64</ele>
        <time>2015-08-16T16:42:26Z</time>
      </trkpt>
      <trkpt lat="47.27065" lon="1.4129">
        <ele>74.64</ele>
        <time>2015-08-16T16:42:27Z</time>
      </trkpt>
      <trkpt lat="47.27063" lon="1.41289">
        <ele>74.16</ele>
        <time>2015-08-16T16:42:28Z</time>
      </trkpt>
      <trkpt lat="47.27062" lon="1.41288">
        <ele>74.64</ele>
        <time>2015-08-16T16:42:29Z</time>
      </trkpt>
      <trkpt lat="47.27061" lon="1.41287">
        <ele>74.16</ele>
        <time>2015-08-16T16:42:30Z</time>
      </trkpt>
      <trkpt lat="47.27058" lon="1.41286">
        <ele>74.64</ele>
        <time>2015-08-16T16:42:48Z</time>
      </trkpt>
      <trkpt lat="47.27058" lon="1.41287">
        <ele>74.64</ele>
        <time>2015-08-16T16:43:14Z</time>
      </trkpt>
      <trkpt lat="47.27058" lon="1.41287">
        <ele>77.52</ele>
        <time>2015-08-16T16:43:15Z</time>
      </trkpt>
      <trkpt lat="47.27058" lon="1.41286">
        <ele>73.2</ele>
        <time>2015-08-16T16:43:39Z</time>
      </trkpt>
      <trkpt lat="47.27057" lon="1.41289">
        <ele>74.64</ele>
        <time>2015-08-16T16:43:56Z</time>
      </trkpt>
      <trkpt lat="47.27045" lon="1.41323">
        <ele>74.64</ele>
        <time>2015-08-16T16:44:11Z</time>
      </trkpt>
      <trkpt lat="47.27038" lon="1.41335">
        <ele>74.64</ele>
        <time>2015-08-16T16:44:16Z</time>
      </trkpt>
      <trkpt lat="47.27027" lon="1.41369">
        <ele>74.16</ele>
        <time>2015-08-16T16:44:30Z</time>
      </trkpt>
      <trkpt lat="47.27015" lon="1.41403">
        <ele>74.16</ele>
        <time>2015-08-16T16:44:44Z</time>
      </trkpt>
      <trkpt lat="47.27005" lon="1.41432">
        <ele>74.16</ele>
        <time>2015-08-16T16:44:56Z</time>
      </trkpt>
      <trkpt lat="47.26995" lon="1.4147">
        <ele>74.64</ele>
        <time>2015-08-16T16:45:11Z</time>
      </trkpt>
      <trkpt lat="47.26983" lon="1.41503">
        <ele>74.64</ele>
        <time>2015-08-16T16:45:24Z</time>
      </trkpt>
      <trkpt lat="47.26966" lon="1.41551">
        <ele>74.64</ele>
        <time>2015-08-16T16:45:40Z</time>
      </trkpt>
      <trkpt lat="47.26953" lon="1.41599">
        <ele>74.64</ele>
        <time>2015-08-16T16:45:57Z</time>
      </trkpt>
      <trkpt lat="47.26937" lon="1.41647">
        <ele>74.64</ele>
        <time>2015-08-16T16:46:13Z</time>
      </trkpt>
      <trkpt lat="47.26916" lon="1.41676">
        <ele>75.12</ele>
        <time>2015-08-16T16:46:27Z</time>
      </trkpt>
      <trkpt lat="47.26914" lon="1.41678">
        <ele>75.12</ele>
        <time>2015-08-16T16:46:28Z</time>
      </trkpt>
      <trkpt lat="47.26912" lon="1.41679">
        <ele>75.12</ele>
        <time>2015-08-16T16:46:29Z</time>
      </trkpt>
      <trkpt lat="47.26899" lon="1.41708">
        <ele>74.64</ele>
        <time>2015-08-16T16:46:42Z</time>
      </trkpt>
      <trkpt lat="47.26884" lon="1.41746">
        <ele>74.64</ele>
        <time>2015-08-16T16:46:57Z</time>
      </trkpt>
      <trkpt lat="47.2687" lon="1.4178">
        <ele>74.64</ele>
        <time>2015-08-16T16:47:12Z</time>
      </trkpt>
      <trkpt lat="47.26856" lon="1.41816">
        <ele>74.64</ele>
        <time>2015-08-16T16:47:27Z</time>
      </trkpt>
      <trkpt lat="47.26855" lon="1.41818">
        <ele>74.64</ele>
        <time>2015-08-16T16:47:28Z</time>
      </trkpt>
      <trkpt lat="47.26849" lon="1.41831">
        <ele>74.64</ele>
        <time>2015-08-16T16:47:33Z</time>
      </trkpt>
      <trkpt lat="47.2683" lon="1.41877">
        <ele>74.64</ele>
        <time>2015-08-16T16:47:49Z</time>
      </trkpt>
      <trkpt lat="47.26816" lon="1.41922">
        <ele>75.12</ele>
        <time>2015-08-16T16:48:05Z</time>
      </trkpt>
      <trkpt lat="47.26815" lon="1.41925">
        <ele>75.12</ele>
        <time>2015-08-16T16:48:06Z</time>
      </trkpt>
      <trkpt lat="47.26814" lon="1.41927">
        <ele>74.64</ele>
        <time>2015-08-16T16:48:07Z</time>
      </trkpt>
      <trkpt lat="47.26809" lon="1.41949">
        <ele>75.12</ele>
        <time>2015-08-16T16:48:15Z</time>
      </trkpt>
      <trkpt lat="47.26801" lon="1.41987">
        <ele>75.12</ele>
        <time>2015-08-16T16:48:28Z</time>
      </trkpt>
      <trkpt lat="47.26791" lon="1.42028">
        <ele>75.12</ele>
        <time>2015-08-16T16:48:41Z</time>
      </trkpt>
      <trkpt lat="47.2679" lon="1.4203">
        <ele>75.12</ele>
        <time>2015-08-16T16:48:42Z</time>
      </trkpt>
      <trkpt lat="47.26786" lon="1.42053">
        <ele>75.12</ele>
        <time>2015-08-16T16:48:50Z</time>
      </trkpt>
      <trkpt lat="47.26776" lon="1.42098">
        <ele>74.64</ele>
        <time>2015-08-16T16:49:06Z</time>
      </trkpt>
      <trkpt lat="47.26766" lon="1.42146">
        <ele>75.12</ele>
        <time>2015-08-16T16:49:22Z</time>
      </trkpt>
      <trkpt lat="47.26762" lon="1.42187">
        <ele>75.12</ele>
        <time>2015-08-16T16:49:36Z</time>
      </trkpt>
      <trkpt lat="47.26754" lon="1.42241">
        <ele>75.6</ele>
        <time>2015-08-16T16:49:52Z</time>
      </trkpt>
      <trkpt lat="47.26749" lon="1.42287">
        <ele>77.52</ele>
        <time>2015-08-16T16:50:02Z</time>
      </trkpt>
      <trkpt lat="47.26752" lon="1.42293">
        <ele>77.52</ele>
        <time>2015-08-16T16:50:06Z</time>
      </trkpt>
      <trkpt lat="47.26753" lon="1.42294">
        <ele>77.52</ele>
        <time>2015-08-16T16:50:08Z</time>
      </trkpt>
      <trkpt lat="47.26756" lon="1.42294">
        <ele>77.52</ele>
        <time>2015-08-16T16:50:29Z</time>
      </trkpt>
      <trkpt lat="47.26758" lon="1.42298">
        <ele>77.52</ele>
        <time>2015-08-16T16:50:48Z</time>
      </trkpt>
      <trkpt lat="47.26758" lon="1.42298">
        <ele>77.52</ele>
        <time>2015-08-16T16:51:14Z</time>
      </trkpt>
      <trkpt lat="47.26756" lon="1.42302">
        <ele>77.52</ele>
        <time>2015-08-16T16:51:33Z</time>
      </trkpt>
      <trkpt lat="47.26755" lon="1.42314">
        <ele>77.52</ele>
        <time>2015-08-16T16:51:45Z</time>
      </trkpt>
      <trkpt lat="47.26756" lon="1.42315">
        <ele>77.04</ele>
        <time>2015-08-16T16:52:09Z</time>
      </trkpt>
      <trkpt lat="47.26757" lon="1.42316">
        <ele>77.52</ele>
        <time>2015-08-16T16:52:36Z</time>
      </trkpt>
      <trkpt lat="47.26765" lon="1.42301">
        <ele>77.52</ele>
        <time>2015-08-16T16:52:49Z</time>
      </trkpt>
      <trkpt lat="47.2679" lon="1.42306">
        <ele>78.97</ele>
        <time>2015-08-16T16:52:58Z</time>
      </trkpt>
      <trkpt lat="47.26798" lon="1.42309">
        <ele>79.45</ele>
        <time>2015-08-16T16:53:01Z</time>
      </trkpt>
      <trkpt lat="47.26799" lon="1.42311">
        <ele>79.93</ele>
        <time>2015-08-16T16:53:02Z</time>
      </trkpt>
      <trkpt lat="47.268" lon="1.42313">
        <ele>79.93</ele>
        <time>2015-08-16T16:53:03Z</time>
      </trkpt>
      <trkpt lat="47.268" lon="1.42345">
        <ele>80.41</ele>
        <time>2015-08-16T16:53:09Z</time>
      </trkpt>
      <trkpt lat="47.26799" lon="1.42357">
        <ele>80.41</ele>
        <time>2015-08-16T16:53:11Z</time>
      </trkpt>
      <trkpt lat="47.26798" lon="1.42379">
        <ele>80.41</ele>
        <time>2015-08-16T16:53:15Z</time>
      </trkpt>
      <trkpt lat="47.2679" lon="1.42485">
        <ele>80.41</ele>
        <time>2015-08-16T16:53:34Z</time>
      </trkpt>
      <trkpt lat="47.26784" lon="1.42561">
        <ele>79.93</ele>
        <time>2015-08-16T16:53:49Z</time>
      </trkpt>
      <trkpt lat="47.26777" lon="1.42651">
        <ele>79.93</ele>
        <time>2015-08-16T16:54:07Z</time>
      </trkpt>
      <trkpt lat="47.26768" lon="1.42712">
        <ele>80.41</ele>
        <time>2015-08-16T16:54:22Z</time>
      </trkpt>
      <trkpt lat="47.26768" lon="1.42714">
        <ele>80.41</ele>
        <time>2015-08-16T16:54:23Z</time>
      </trkpt>
      <trkpt lat="47.26768" lon="1.42717">
        <ele>80.41</ele>
        <time>2015-08-16T16:54:24Z</time>
      </trkpt>
      <trkpt lat="47.26769" lon="1.4272">
        <ele>80.89</ele>
        <time>2015-08-16T16:54:26Z</time>
      </trkpt>
      <trkpt lat="47.2677" lon="1.42723">
        <ele>80.41</ele>
        <time>2015-08-16T16:54:47Z</time>
      </trkpt>
      <trkpt lat="47.26768" lon="1.42729">
        <ele>80.89</ele>
        <time>2015-08-16T16:55:08Z</time>
      </trkpt>
      <trkpt lat="47.26768" lon="1.42736">
        <ele>80.89</ele>
        <time>2015-08-16T16:55:22Z</time>
      </trkpt>
      <trkpt lat="47.26767" lon="1.42737">
        <ele>80.89</ele>
        <time>2015-08-16T16:55:51Z</time>
      </trkpt>
      <trkpt lat="47.26766" lon="1.42737">
        <ele>80.89</ele>
        <time>2015-08-16T16:56:20Z</time>
      </trkpt>
      <trkpt lat="47.26767" lon="1.42737">
        <ele>80.89</ele>
        <time>2015-08-16T16:56:47Z</time>
      </trkpt>
      <trkpt lat="47.2676" lon="1.42784">
        <ele>81.85</ele>
        <time>2015-08-16T16:57:00Z</time>
      </trkpt>
      <trkpt lat="47.26748" lon="1.42874">
        <ele>82.33</ele>
        <time>2015-08-16T16:57:17Z</time>
      </trkpt>
      <trkpt lat="47.26734" lon="1.42989">
        <ele>81.85</ele>
        <time>2015-08-16T16:57:38Z</time>
      </trkpt>
      <trkpt lat="47.26736" lon="1.43106">
        <ele>81.37</ele>
        <time>2015-08-16T16:57:58Z</time>
      </trkpt>
      <trkpt lat="47.26751" lon="1.43192">
        <ele>81.85</ele>
        <time>2015-08-16T16:58:13Z</time>
      </trkpt>
      <trkpt lat="47.26749" lon="1.43267">
        <ele>81.85</ele>
        <time>2015-08-16T16:58:26Z</time>
      </trkpt>
      <trkpt lat="47.26731" lon="1.43376">
        <ele>82.81</ele>
        <time>2015-08-16T16:58:40Z</time>
      </trkpt>
      <trkpt lat="47.26694" lon="1.43437">
        <ele>84.25</ele>
        <time>2015-08-16T16:58:53Z</time>
      </trkpt>
      <trkpt lat="47.2665" lon="1.43478">
        <ele>84.73</ele>
        <time>2015-08-16T16:59:08Z</time>
      </trkpt>
      <trkpt lat="47.2663" lon="1.43531">
        <ele>85.21</ele>
        <time>2015-08-16T16:59:21Z</time>
      </trkpt>
      <trkpt lat="47.26615" lon="1.43606">
        <ele>86.18</ele>
        <time>2015-08-16T16:59:35Z</time>
      </trkpt>
      <trkpt lat="47.26606" lon="1.4367">
        <ele>86.18</ele>
        <time>2015-08-16T16:59:49Z</time>
      </trkpt>
      <trkpt lat="47.26599" lon="1.43719">
        <ele>85.21</ele>
        <time>2015-08-16T17:00:02Z</time>
      </trkpt>
      <trkpt lat="47.26591" lon="1.4378">
        <ele>83.77</ele>
        <time>2015-08-16T17:00:18Z</time>
      </trkpt>
      <trkpt lat="47.26586" lon="1.43828">
        <ele>82.81</ele>
        <time>2015-08-16T17:00:31Z</time>
      </trkpt>
      <trkpt lat="47.26586" lon="1.43833">
        <ele>82.81</ele>
        <time>2015-08-16T17:00:32Z</time>
      </trkpt>
      <trkpt lat="47.26586" lon="1.43838">
        <ele>82.81</ele>
        <time>2015-08-16T17:00:33Z</time>
      </trkpt>
      <trkpt lat="47.26587" lon="1.43843">
        <ele>82.81</ele>
        <time>2015-08-16T17:00:34Z</time>
      </trkpt>
      <trkpt lat="47.26587" lon="1.43848">
        <ele>82.81</ele>
        <time>2015-08-16T17:00:35Z</time>
      </trkpt>
      <trkpt lat="47.26588" lon="1.43854">
        <ele>82.81</ele>
        <time>2015-08-16T17:00:36Z</time>
      </trkpt>
      <trkpt lat="47.2659" lon="1.4386">
        <ele>82.81</ele>
        <time>2015-08-16T17:00:37Z</time>
      </trkpt>
      <trkpt lat="47.26613" lon="1.43922">
        <ele>84.25</ele>
        <time>2015-08-16T17:00:49Z</time>
      </trkpt>
      <trkpt lat="47.26614" lon="1.43937">
        <ele>84.73</ele>
        <time>2015-08-16T17:00:54Z</time>
      </trkpt>
      <trkpt lat="47.26615" lon="1.43966">
        <ele>86.18</ele>
        <time>2015-08-16T17:01:08Z</time>
      </trkpt>
      <trkpt lat="47.26612" lon="1.43977">
        <ele>86.18</ele>
        <time>2015-08-16T17:01:14Z</time>
      </trkpt>
      <trkpt lat="47.26591" lon="1.43984">
        <ele>84.25</ele>
        <time>2015-08-16T17:01:26Z</time>
      </trkpt>
      <trkpt lat="47.26564" lon="1.43989">
        <ele>83.29</ele>
        <time>2015-08-16T17:01:41Z</time>
      </trkpt>
      <trkpt lat="47.26562" lon="1.43989">
        <ele>87.14</ele>
        <time>2015-08-16T17:01:42Z</time>
      </trkpt>
      <trkpt lat="47.26561" lon="1.43988">
        <ele>78.97</ele>
        <time>2015-08-16T17:01:43Z</time>
      </trkpt>
      <trkpt lat="47.26556" lon="1.43988">
        <ele>82.33</ele>
        <time>2015-08-16T17:01:47Z</time>
      </trkpt>
      <trkpt lat="47.26553" lon="1.43988">
        <ele>82.81</ele>
        <time>2015-08-16T17:01:54Z</time>
      </trkpt>
      <trkpt lat="47.26547" lon="1.43984">
        <ele>82.33</ele>
        <time>2015-08-16T17:02:09Z</time>
      </trkpt>
      <trkpt lat="47.2654" lon="1.43982">
        <ele>80.89</ele>
        <time>2015-08-16T17:02:22Z</time>
      </trkpt>
      <trkpt lat="47.2654" lon="1.43982">
        <ele>80.89</ele>
        <time>2015-08-16T17:02:23Z</time>
      </trkpt>
      <trkpt lat="47.26539" lon="1.43982">
        <ele>81.37</ele>
        <time>2015-08-16T17:02:49Z</time>
      </trkpt>
      <trkpt lat="47.26538" lon="1.43981">
        <ele>81.37</ele>
        <time>2015-08-16T17:03:17Z</time>
      </trkpt>
      <trkpt lat="47.26538" lon="1.4398">
        <ele>81.37</ele>
        <time>2015-08-16T17:03:45Z</time>
      </trkpt>
      <trkpt lat="47.26537" lon="1.43979">
        <ele>81.37</ele>
        <time>2015-08-16T17:04:09Z</time>
      </trkpt>
      <trkpt lat="47.26538" lon="1.43978">
        <ele>80.89</ele>
        <time>2015-08-16T17:04:44Z</time>
      </trkpt>
      <trkpt lat="47.26538" lon="1.43977">
        <ele>80.89</ele>
        <time>2015-08-16T17:05:09Z</time>
      </trkpt>
      <trkpt lat="47.26539" lon="1.43977">
        <ele>81.37</ele>
        <time>2015-08-16T17:05:28Z</time>
      </trkpt>
      <trkpt lat="47.26541" lon="1.43979">
        <ele>80.41</ele>
        <time>2015-08-16T17:05:51Z</time>
      </trkpt>
      <trkpt lat="47.26541" lon="1.43979">
        <ele>83.77</ele>
        <time>2015-08-16T17:05:53Z</time>
      </trkpt>
      <trkpt lat="47.26541" lon="1.43979">
        <ele>78</ele>
        <time>2015-08-16T17:05:54Z</time>
      </trkpt>
      <trkpt lat="47.26538" lon="1.43994">
        <ele>80.89</ele>
        <time>2015-08-16T17:06:04Z</time>
      </trkpt>
      <trkpt lat="47.26523" lon="1.44035">
        <ele>80.89</ele>
        <time>2015-08-16T17:06:18Z</time>
      </trkpt>
      <trkpt lat="47.26504" lon="1.44074">
        <ele>80.41</ele>
        <time>2015-08-16T17:06:31Z</time>
      </trkpt>
      <trkpt lat="47.265" lon="1.44119">
        <ele>80.41</ele>
        <time>2015-08-16T17:06:44Z</time>
      </trkpt>
      <trkpt lat="47.26501" lon="1.44165">
        <ele>80.89</ele>
        <time>2015-08-16T17:06:56Z</time>
      </trkpt>
      <trkpt lat="47.26504" lon="1.44212">
        <ele>80.89</ele>
        <time>2015-08-16T17:07:08Z</time>
      </trkpt>
      <trkpt lat="47.26504" lon="1.44246">
        <ele>80.89</ele>
        <time>2015-08-16T17:07:19Z</time>
      </trkpt>
      <trkpt lat="47.26506" lon="1.44288">
        <ele>80.89</ele>
        <time>2015-08-16T17:07:32Z</time>
      </trkpt>
      <trkpt lat="47.26508" lon="1.44308">
        <ele>80.89</ele>
        <time>2015-08-16T17:07:45Z</time>
      </trkpt>
      <trkpt lat="47.2651" lon="1.4432">
        <ele>80.89</ele>
        <time>2015-08-16T17:07:59Z</time>
      </trkpt>
      <trkpt lat="47.26512" lon="1.44335">
        <ele>80.89</ele>
        <time>2015-08-16T17:08:04Z</time>
      </trkpt>
      <trkpt lat="47.26512" lon="1.44375">
        <ele>80.89</ele>
        <time>2015-08-16T17:08:16Z</time>
      </trkpt>
      <trkpt lat="47.26515" lon="1.44425">
        <ele>80.89</ele>
        <time>2015-08-16T17:08:30Z</time>
      </trkpt>
      <trkpt lat="47.26518" lon="1.4447">
        <ele>80.89</ele>
        <time>2015-08-16T17:08:43Z</time>
      </trkpt>
      <trkpt lat="47.26519" lon="1.44495">
        <ele>80.89</ele>
        <time>2015-08-16T17:08:52Z</time>
      </trkpt>
      <trkpt lat="47.26519" lon="1.44501">
        <ele>80.89</ele>
        <time>2015-08-16T17:08:54Z</time>
      </trkpt>
      <trkpt lat="47.26522" lon="1.44554">
        <ele>80.89</ele>
        <time>2015-08-16T17:09:10Z</time>
      </trkpt>
      <trkpt lat="47.26525" lon="1.44598">
        <ele>80.41</ele>
        <time>2015-08-16T17:09:24Z</time>
      </trkpt>
      <trkpt lat="47.26528" lon="1.44645">
        <ele>80.41</ele>
        <time>2015-08-16T17:09:39Z</time>
      </trkpt>
      <trkpt lat="47.2653" lon="1.44691">
        <ele>80.41</ele>
        <time>2015-08-16T17:09:52Z</time>
      </trkpt>
      <trkpt lat="47.26535" lon="1.44741">
        <ele>80.41</ele>
        <time>2015-08-16T17:10:06Z</time>
      </trkpt>
      <trkpt lat="47.26535" lon="1.44787">
        <ele>80.41</ele>
        <time>2015-08-16T17:10:18Z</time>
      </trkpt>
      <trkpt lat="47.26533" lon="1.44849">
        <ele>80.89</ele>
        <time>2015-08-16T17:10:34Z</time>
      </trkpt>
      <trkpt lat="47.26529" lon="1.44894">
        <ele>80.89</ele>
        <time>2015-08-16T17:10:47Z</time>
      </trkpt>
      <trkpt lat="47.26525" lon="1.44938">
        <ele>81.37</ele>
        <time>2015-08-16T17:10:59Z</time>
      </trkpt>
      <trkpt lat="47.26522" lon="1.44993">
        <ele>80.89</ele>
        <time>2015-08-16T17:11:14Z</time>
      </trkpt>
      <trkpt lat="47.26522" lon="1.45056">
        <ele>80.41</ele>
        <time>2015-08-16T17:11:31Z</time>
      </trkpt>
      <trkpt lat="47.26526" lon="1.45105">
        <ele>80.89</ele>
        <time>2015-08-16T17:11:44Z</time>
      </trkpt>
      <trkpt lat="47.26533" lon="1.45155">
        <ele>80.89</ele>
        <time>2015-08-16T17:11:56Z</time>
      </trkpt>
      <trkpt lat="47.26539" lon="1.45212">
        <ele>80.89</ele>
        <time>2015-08-16T17:12:11Z</time>
      </trkpt>
      <trkpt lat="47.26545" lon="1.4526">
        <ele>80.89</ele>
        <time>2015-08-16T17:12:24Z</time>
      </trkpt>
      <trkpt lat="47.26549" lon="1.45302">
        <ele>80.89</ele>
        <time>2015-08-16T17:12:37Z</time>
      </trkpt>
      <trkpt lat="47.26556" lon="1.45353">
        <ele>80.89</ele>
        <time>2015-08-16T17:12:51Z</time>
      </trkpt>
      <trkpt lat="47.26562" lon="1.45401">
        <ele>80.89</ele>
        <time>2015-08-16T17:13:03Z</time>
      </trkpt>
      <trkpt lat="47.2657" lon="1.45451">
        <ele>80.41</ele>
        <time>2015-08-16T17:13:17Z</time>
      </trkpt>
      <trkpt lat="47.26584" lon="1.45505">
        <ele>80.41</ele>
        <time>2015-08-16T17:13:31Z</time>
      </trkpt>
      <trkpt lat="47.26597" lon="1.45546">
        <ele>80.89</ele>
        <time>2015-08-16T17:13:43Z</time>
      </trkpt>
      <trkpt lat="47.26607" lon="1.45594">
        <ele>80.41</ele>
        <time>2015-08-16T17:13:56Z</time>
      </trkpt>
      <trkpt lat="47.26616" lon="1.45641">
        <ele>80.41</ele>
        <time>2015-08-16T17:14:09Z</time>
      </trkpt>
      <trkpt lat="47.2662" lon="1.45682">
        <ele>80.41</ele>
        <time>2015-08-16T17:14:21Z</time>
      </trkpt>
      <trkpt lat="47.26625" lon="1.45735">
        <ele>79.93</ele>
        <time>2015-08-16T17:14:35Z</time>
      </trkpt>
      <trkpt lat="47.26638" lon="1.45789">
        <ele>79.93</ele>
        <time>2015-08-16T17:14:48Z</time>
      </trkpt>
      <trkpt lat="47.26645" lon="1.45833">
        <ele>79.93</ele>
        <time>2015-08-16T17:14:59Z</time>
      </trkpt>
      <trkpt lat="47.26651" lon="1.45877">
        <ele>79.93</ele>
        <time>2015-08-16T17:15:12Z</time>
      </trkpt>
      <trkpt lat="47.26655" lon="1.45901">
        <ele>79.93</ele>
        <time>2015-08-16T17:15:22Z</time>
      </trkpt>
      <trkpt lat="47.26656" lon="1.45902">
        <ele>80.41</ele>
        <time>2015-08-16T17:15:38Z</time>
      </trkpt>
      <trkpt lat="47.26656" lon="1.45902">
        <ele>80.41</ele>
        <time>2015-08-16T17:16:03Z</time>
      </trkpt>
      <trkpt lat="47.26655" lon="1.45901">
        <ele>80.41</ele>
        <time>2015-08-16T17:16:26Z</time>
      </trkpt>
      <trkpt lat="47.26656" lon="1.45914">
        <ele>80.41</ele>
        <time>2015-08-16T17:16:40Z</time>
      </trkpt>
      <trkpt lat="47.26658" lon="1.45926">
        <ele>80.89</ele>
        <time>2015-08-16T17:16:53Z</time>
      </trkpt>
      <trkpt lat="47.26659" lon="1.45926">
        <ele>80.89</ele>
        <time>2015-08-16T17:17:10Z</time>
      </trkpt>
      <trkpt lat="47.26665" lon="1.45973">
        <ele>80.41</ele>
        <time>2015-08-16T17:17:25Z</time>
      </trkpt>
      <trkpt lat="47.26672" lon="1.46036">
        <ele>80.41</ele>
        <time>2015-08-16T17:17:40Z</time>
      </trkpt>
      <trkpt lat="47.26678" lon="1.46086">
        <ele>80.41</ele>
        <time>2015-08-16T17:17:53Z</time>
      </trkpt>
      <trkpt lat="47.26684" lon="1.46137">
        <ele>80.41</ele>
        <time>2015-08-16T17:18:06Z</time>
      </trkpt>
      <trkpt lat="47.26689" lon="1.46198">
        <ele>80.41</ele>
        <time>2015-08-16T17:18:20Z</time>
      </trkpt>
      <trkpt lat="47.26697" lon="1.4625">
        <ele>80.41</ele>
        <time>2015-08-16T17:18:32Z</time>
      </trkpt>
      <trkpt lat="47.2671" lon="1.46312">
        <ele>80.41</ele>
        <time>2015-08-16T17:18:47Z</time>
      </trkpt>
      <trkpt lat="47.26719" lon="1.4637">
        <ele>80.41</ele>
        <time>2015-08-16T17:19:02Z</time>
      </trkpt>
      <trkpt lat="47.26727" lon="1.46413">
        <ele>80.41</ele>
        <time>2015-08-16T17:19:14Z</time>
      </trkpt>
      <trkpt lat="47.2673" lon="1.46434">
        <ele>80.41</ele>
        <time>2015-08-16T17:19:27Z</time>
      </trkpt>
      <trkpt lat="47.26729" lon="1.46436">
        <ele>80.41</ele>
        <time>2015-08-16T17:19:44Z</time>
      </trkpt>
      <trkpt lat="47.26733" lon="1.46459">
        <ele>80.41</ele>
        <time>2015-08-16T17:19:55Z</time>
      </trkpt>
      <trkpt lat="47.26744" lon="1.46517">
        <ele>80.41</ele>
        <time>2015-08-16T17:20:09Z</time>
      </trkpt>
      <trkpt lat="47.26756" lon="1.46573">
        <ele>80.41</ele>
        <time>2015-08-16T17:20:23Z</time>
      </trkpt>
      <trkpt lat="47.26774" lon="1.46639">
        <ele>80.41</ele>
        <time>2015-08-16T17:20:39Z</time>
      </trkpt>
      <trkpt lat="47.26794" lon="1.4671">
        <ele>80.41</ele>
        <time>2015-08-16T17:20:56Z</time>
      </trkpt>
      <trkpt lat="47.26812" lon="1.46776">
        <ele>80.89</ele>
        <time>2015-08-16T17:21:12Z</time>
      </trkpt>
      <trkpt lat="47.2683" lon="1.4684">
        <ele>80.89</ele>
        <time>2015-08-16T17:21:28Z</time>
      </trkpt>
      <trkpt lat="47.26846" lon="1.46903">
        <ele>80.89</ele>
        <time>2015-08-16T17:21:44Z</time>
      </trkpt>
      <trkpt lat="47.26862" lon="1.46957">
        <ele>80.41</ele>
        <time>2015-08-16T17:22:00Z</time>
      </trkpt>
      <trkpt lat="47.26866" lon="1.46971">
        <ele>80.41</ele>
        <time>2015-08-16T17:22:20Z</time>
      </trkpt>
      <trkpt lat="47.26865" lon="1.46975">
        <ele>80.89</ele>
        <time>2015-08-16T17:22:38Z</time>
      </trkpt>
      <trkpt lat="47.26865" lon="1.46975">
        <ele>81.85</ele>
        <time>2015-08-16T17:23:05Z</time>
      </trkpt>
      <trkpt lat="47.26866" lon="1.46975">
        <ele>84.25</ele>
        <time>2015-08-16T17:23:06Z</time>
      </trkpt>
      <trkpt lat="47.26865" lon="1.46976">
        <ele>80.41</ele>
        <time>2015-08-16T17:23:16Z</time>
      </trkpt>
      <trkpt lat="47.26874" lon="1.46991">
        <ele>80.41</ele>
        <time>2015-08-16T17:23:29Z</time>
      </trkpt>
      <trkpt lat="47.26893" lon="1.47051">
        <ele>80.89</ele>
        <time>2015-08-16T17:23:47Z</time>
      </trkpt>
      <trkpt lat="47.26905" lon="1.47123">
        <ele>80.41</ele>
        <time>2015-08-16T17:24:05Z</time>
      </trkpt>
      <trkpt lat="47.26913" lon="1.472">
        <ele>80.89</ele>
        <time>2015-08-16T17:24:24Z</time>
      </trkpt>
      <trkpt lat="47.26919" lon="1.47249">
        <ele>80.89</ele>
        <time>2015-08-16T17:24:37Z</time>
      </trkpt>
      <trkpt lat="47.26925" lon="1.47296">
        <ele>80.89</ele>
        <time>2015-08-16T17:24:50Z</time>
      </trkpt>
      <trkpt lat="47.26935" lon="1.47367">
        <ele>80.89</ele>
        <time>2015-08-16T17:25:08Z</time>
      </trkpt>
      <trkpt lat="47.26937" lon="1.47403">
        <ele>80.41</ele>
        <time>2015-08-16T17:25:20Z</time>
      </trkpt>
      <trkpt lat="47.26945" lon="1.47462">
        <ele>80.41</ele>
        <time>2015-08-16T17:25:36Z</time>
      </trkpt>
      <trkpt lat="47.2695" lon="1.47506">
        <ele>80.41</ele>
        <time>2015-08-16T17:25:48Z</time>
      </trkpt>
      <trkpt lat="47.26959" lon="1.4758">
        <ele>80.41</ele>
        <time>2015-08-16T17:26:05Z</time>
      </trkpt>
      <trkpt lat="47.26967" lon="1.47649">
        <ele>80.89</ele>
        <time>2015-08-16T17:26:21Z</time>
      </trkpt>
      <trkpt lat="47.26976" lon="1.47709">
        <ele>81.85</ele>
        <time>2015-08-16T17:26:35Z</time>
      </trkpt>
      <trkpt lat="47.26986" lon="1.47769">
        <ele>81.37</ele>
        <time>2015-08-16T17:26:50Z</time>
      </trkpt>
      <trkpt lat="47.26995" lon="1.47823">
        <ele>81.85</ele>
        <time>2015-08-16T17:27:03Z</time>
      </trkpt>
      <trkpt lat="47.27004" lon="1.4787">
        <ele>83.77</ele>
        <time>2015-08-16T17:27:15Z</time>
      </trkpt>
      <trkpt lat="47.27015" lon="1.47931">
        <ele>82.33</ele>
        <time>2015-08-16T17:27:30Z</time>
      </trkpt>
      <trkpt lat="47.27026" lon="1.47992">
        <ele>81.85</ele>
        <time>2015-08-16T17:27:45Z</time>
      </trkpt>
      <trkpt lat="47.27038" lon="1.48055">
        <ele>81.85</ele>
        <time>2015-08-16T17:28:01Z</time>
      </trkpt>
      <trkpt lat="47.27046" lon="1.48105">
        <ele>81.85</ele>
        <time>2015-08-16T17:28:14Z</time>
      </trkpt>
      <trkpt lat="47.27054" lon="1.48156">
        <ele>81.85</ele>
        <time>2015-08-16T17:28:27Z</time>
      </trkpt>
      <trkpt lat="47.27064" lon="1.48211">
        <ele>81.85</ele>
        <time>2015-08-16T17:28:39Z</time>
      </trkpt>
      <trkpt lat="47.27074" lon="1.4827">
        <ele>81.85</ele>
        <time>2015-08-16T17:28:54Z</time>
      </trkpt>
      <trkpt lat="47.27088" lon="1.48322">
        <ele>81.85</ele>
        <time>2015-08-16T17:29:08Z</time>
      </trkpt>
      <trkpt lat="47.27103" lon="1.4836">
        <ele>81.85</ele>
        <time>2015-08-16T17:29:20Z</time>
      </trkpt>
      <trkpt lat="47.27105" lon="1.48363">
        <ele>81.37</ele>
        <time>2015-08-16T17:29:21Z</time>
      </trkpt>
      <trkpt lat="47.27117" lon="1.48402">
        <ele>81.37</ele>
        <time>2015-08-16T17:29:34Z</time>
      </trkpt>
      <trkpt lat="47.27138" lon="1.48417">
        <ele>81.37</ele>
        <time>2015-08-16T17:29:42Z</time>
      </trkpt>
      <trkpt lat="47.27139" lon="1.48429">
        <ele>81.37</ele>
        <time>2015-08-16T17:29:44Z</time>
      </trkpt>
      <trkpt lat="47.2714" lon="1.48503">
        <ele>82.33</ele>
        <time>2015-08-16T17:29:57Z</time>
      </trkpt>
      <trkpt lat="47.27145" lon="1.48582">
        <ele>82.33</ele>
        <time>2015-08-16T17:30:12Z</time>
      </trkpt>
      <trkpt lat="47.27152" lon="1.48645">
        <ele>82.81</ele>
        <time>2015-08-16T17:30:25Z</time>
      </trkpt>
      <trkpt lat="47.27157" lon="1.48692">
        <ele>82.81</ele>
        <time>2015-08-16T17:30:36Z</time>
      </trkpt>
      <trkpt lat="47.2716" lon="1.48734">
        <ele>82.33</ele>
        <time>2015-08-16T17:30:48Z</time>
      </trkpt>
      <trkpt lat="47.27162" lon="1.48743">
        <ele>83.77</ele>
        <time>2015-08-16T17:31:18Z</time>
      </trkpt>
      <trkpt lat="47.27161" lon="1.48745">
        <ele>82.33</ele>
        <time>2015-08-16T17:31:47Z</time>
      </trkpt>
      <trkpt lat="47.27161" lon="1.48745">
        <ele>81.85</ele>
        <time>2015-08-16T17:32:10Z</time>
      </trkpt>
      <trkpt lat="47.27163" lon="1.48757">
        <ele>82.81</ele>
        <time>2015-08-16T17:32:24Z</time>
      </trkpt>
      <trkpt lat="47.27171" lon="1.48796">
        <ele>82.81</ele>
        <time>2015-08-16T17:32:39Z</time>
      </trkpt>
      <trkpt lat="47.2717" lon="1.48812">
        <ele>82.81</ele>
        <time>2015-08-16T17:32:47Z</time>
      </trkpt>
      <trkpt lat="47.27161" lon="1.48815">
        <ele>81.85</ele>
        <time>2015-08-16T17:32:54Z</time>
      </trkpt>
      <trkpt lat="47.27161" lon="1.48817">
        <ele>81.85</ele>
        <time>2015-08-16T17:32:55Z</time>
      </trkpt>
      <trkpt lat="47.27164" lon="1.48871">
        <ele>81.85</ele>
        <time>2015-08-16T17:33:10Z</time>
      </trkpt>
      <trkpt lat="47.27168" lon="1.48935">
        <ele>82.33</ele>
        <time>2015-08-16T17:33:28Z</time>
      </trkpt>
      <trkpt lat="47.27173" lon="1.48983">
        <ele>81.85</ele>
        <time>2015-08-16T17:33:42Z</time>
      </trkpt>
      <trkpt lat="47.27175" lon="1.4903">
        <ele>81.85</ele>
        <time>2015-08-16T17:33:55Z</time>
      </trkpt>
      <trkpt lat="47.2718" lon="1.49079">
        <ele>82.33</ele>
        <time>2015-08-16T17:34:09Z</time>
      </trkpt>
      <trkpt lat="47.27183" lon="1.4913">
        <ele>82.33</ele>
        <time>2015-08-16T17:34:24Z</time>
      </trkpt>
      <trkpt lat="47.27187" lon="1.49178">
        <ele>82.33</ele>
        <time>2015-08-16T17:34:39Z</time>
      </trkpt>
      <trkpt lat="47.27192" lon="1.49236">
        <ele>82.33</ele>
        <time>2015-08-16T17:34:56Z</time>
      </trkpt>
      <trkpt lat="47.27199" lon="1.49294">
        <ele>81.85</ele>
        <time>2015-08-16T17:35:13Z</time>
      </trkpt>
      <trkpt lat="47.27209" lon="1.49351">
        <ele>82.33</ele>
        <time>2015-08-16T17:35:28Z</time>
      </trkpt>
      <trkpt lat="47.27217" lon="1.49403">
        <ele>82.81</ele>
        <time>2015-08-16T17:35:41Z</time>
      </trkpt>
      <trkpt lat="47.27225" lon="1.49447">
        <ele>82.81</ele>
        <time>2015-08-16T17:35:53Z</time>
      </trkpt>
      <trkpt lat="47.27237" lon="1.49498">
        <ele>82.81</ele>
        <time>2015-08-16T17:36:07Z</time>
      </trkpt>
      <trkpt lat="47.27253" lon="1.49535">
        <ele>82.81</ele>
        <time>2015-08-16T17:36:19Z</time>
      </trkpt>
      <trkpt lat="47.27272" lon="1.49584">
        <ele>82.81</ele>
        <time>2015-08-16T17:36:34Z</time>
      </trkpt>
      <trkpt lat="47.27288" lon="1.49624">
        <ele>82.33</ele>
        <time>2015-08-16T17:36:47Z</time>
      </trkpt>
      <trkpt lat="47.27308" lon="1.49673">
        <ele>82.81</ele>
        <time>2015-08-16T17:37:02Z</time>
      </trkpt>
      <trkpt lat="47.27324" lon="1.49719">
        <ele>83.29</ele>
        <time>2015-08-16T17:37:16Z</time>
      </trkpt>
      <trkpt lat="47.2733" lon="1.49732">
        <ele>84.73</ele>
        <time>2015-08-16T17:37:21Z</time>
      </trkpt>
      <trkpt lat="47.27331" lon="1.49734">
        <ele>82.81</ele>
        <time>2015-08-16T17:37:22Z</time>
      </trkpt>
      <trkpt lat="47.27344" lon="1.49781">
        <ele>83.29</ele>
        <time>2015-08-16T17:37:37Z</time>
      </trkpt>
      <trkpt lat="47.27346" lon="1.49792">
        <ele>83.29</ele>
        <time>2015-08-16T17:37:41Z</time>
      </trkpt>
      <trkpt lat="47.27352" lon="1.49819">
        <ele>83.29</ele>
        <time>2015-08-16T17:37:49Z</time>
      </trkpt>
      <trkpt lat="47.27358" lon="1.49883">
        <ele>83.29</ele>
        <time>2015-08-16T17:38:06Z</time>
      </trkpt>
      <trkpt lat="47.27359" lon="1.49937">
        <ele>83.29</ele>
        <time>2015-08-16T17:38:21Z</time>
      </trkpt>
      <trkpt lat="47.27361" lon="1.49997">
        <ele>83.29</ele>
        <time>2015-08-16T17:38:37Z</time>
      </trkpt>
      <trkpt lat="47.27367" lon="1.50054">
        <ele>83.29</ele>
        <time>2015-08-16T17:38:53Z</time>
      </trkpt>
      <trkpt lat="47.27372" lon="1.50106">
        <ele>83.29</ele>
        <time>2015-08-16T17:39:07Z</time>
      </trkpt>
      <trkpt lat="47.27378" lon="1.50167">
        <ele>83.77</ele>
        <time>2015-08-16T17:39:24Z</time>
      </trkpt>
      <trkpt lat="47.27383" lon="1.50212">
        <ele>83.77</ele>
        <time>2015-08-16T17:39:38Z</time>
      </trkpt>
      <trkpt lat="47.2739" lon="1.50265">
        <ele>83.77</ele>
        <time>2015-08-16T17:39:54Z</time>
      </trkpt>
      <trkpt lat="47.27396" lon="1.50318">
        <ele>83.77</ele>
        <time>2015-08-16T17:40:10Z</time>
      </trkpt>
      <trkpt lat="47.27402" lon="1.50371">
        <ele>83.29</ele>
        <time>2015-08-16T17:40:27Z</time>
      </trkpt>
      <trkpt lat="47.27409" lon="1.50426">
        <ele>83.77</ele>
        <time>2015-08-16T17:40:44Z</time>
      </trkpt>
      <trkpt lat="47.27418" lon="1.50478">
        <ele>83.77</ele>
        <time>2015-08-16T17:41:01Z</time>
      </trkpt>
      <trkpt lat="47.27426" lon="1.50528">
        <ele>83.77</ele>
        <time>2015-08-16T17:41:15Z</time>
      </trkpt>
      <trkpt lat="47.27434" lon="1.50585">
        <ele>83.77</ele>
        <time>2015-08-16T17:41:30Z</time>
      </trkpt>
      <trkpt lat="47.27445" lon="1.50646">
        <ele>84.25</ele>
        <time>2015-08-16T17:41:45Z</time>
      </trkpt>
      <trkpt lat="47.27457" lon="1.50697">
        <ele>84.25</ele>
        <time>2015-08-16T17:41:59Z</time>
      </trkpt>
      <trkpt lat="47.2747" lon="1.50738">
        <ele>84.25</ele>
        <time>2015-08-16T17:42:11Z</time>
      </trkpt>
      <trkpt lat="47.27485" lon="1.50791">
        <ele>84.25</ele>
        <time>2015-08-16T17:42:26Z</time>
      </trkpt>
      <trkpt lat="47.27497" lon="1.50832">
        <ele>84.73</ele>
        <time>2015-08-16T17:42:38Z</time>
      </trkpt>
      <trkpt lat="47.27512" lon="1.50873">
        <ele>84.25</ele>
        <time>2015-08-16T17:42:52Z</time>
      </trkpt>
      <trkpt lat="47.27524" lon="1.50916">
        <ele>84.73</ele>
        <time>2015-08-16T17:43:06Z</time>
      </trkpt>
      <trkpt lat="47.27539" lon="1.50967">
        <ele>84.73</ele>
        <time>2015-08-16T17:43:22Z</time>
      </trkpt>
      <trkpt lat="47.27555" lon="1.51025">
        <ele>84.73</ele>
        <time>2015-08-16T17:43:40Z</time>
      </trkpt>
      <trkpt lat="47.27555" lon="1.51029">
        <ele>84.73</ele>
        <time>2015-08-16T17:43:42Z</time>
      </trkpt>
      <trkpt lat="47.27561" lon="1.51053">
        <ele>84.73</ele>
        <time>2015-08-16T17:43:49Z</time>
      </trkpt>
      <trkpt lat="47.27566" lon="1.51095">
        <ele>84.73</ele>
        <time>2015-08-16T17:44:03Z</time>
      </trkpt>
      <trkpt lat="47.27565" lon="1.51149">
        <ele>84.25</ele>
        <time>2015-08-16T17:44:21Z</time>
      </trkpt>
      <trkpt lat="47.27564" lon="1.51164">
        <ele>84.25</ele>
        <time>2015-08-16T17:44:28Z</time>
      </trkpt>
      <trkpt lat="47.27561" lon="1.51177">
        <ele>84.25</ele>
        <time>2015-08-16T17:44:43Z</time>
      </trkpt>
      <trkpt lat="47.27569" lon="1.5118">
        <ele>83.29</ele>
        <time>2015-08-16T17:44:57Z</time>
      </trkpt>
      <trkpt lat="47.27574" lon="1.51188">
        <ele>83.29</ele>
        <time>2015-08-16T17:45:12Z</time>
      </trkpt>
      <trkpt lat="47.27583" lon="1.51197">
        <ele>83.29</ele>
        <time>2015-08-16T17:45:20Z</time>
      </trkpt>
      <trkpt lat="47.27573" lon="1.51196">
        <ele>84.25</ele>
        <time>2015-08-16T17:45:51Z</time>
      </trkpt>
      <trkpt lat="47.27577" lon="1.51198">
        <ele>83.29</ele>
        <time>2015-08-16T18:21:46Z</time>
      </trkpt>
      <trkpt lat="47.27576" lon="1.51198">
        <ele>83.77</ele>
        <time>2015-08-16T18:21:53Z</time>
      </trkpt>
      <trkpt lat="47.27561" lon="1.5119">
        <ele>84.73</ele>
        <time>2015-08-16T18:22:08Z</time>
      </trkpt>
      <trkpt lat="47.27559" lon="1.5119">
        <ele>84.73</ele>
        <time>2015-08-16T18:22:23Z</time>
      </trkpt>
      <trkpt lat="47.27557" lon="1.51202">
        <ele>84.73</ele>
        <time>2015-08-16T18:22:34Z</time>
      </trkpt>
      <trkpt lat="47.27546" lon="1.5124">
        <ele>84.73</ele>
        <time>2015-08-16T18:22:46Z</time>
      </trkpt>
      <trkpt lat="47.2752" lon="1.51294">
        <ele>85.21</ele>
        <time>2015-08-16T18:23:04Z</time>
      </trkpt>
      <trkpt lat="47.27508" lon="1.51313">
        <ele>84.73</ele>
        <time>2015-08-16T18:23:14Z</time>
      </trkpt>
      <trkpt lat="47.27507" lon="1.51314">
        <ele>85.21</ele>
        <time>2015-08-16T18:23:23Z</time>
      </trkpt>
      <trkpt lat="47.27508" lon="1.51313">
        <ele>85.21</ele>
        <time>2015-08-16T18:23:54Z</time>
      </trkpt>
      <trkpt lat="47.2751" lon="1.51314">
        <ele>85.69</ele>
        <time>2015-08-16T18:24:28Z</time>
      </trkpt>
      <trkpt lat="47.2751" lon="1.51315">
        <ele>85.69</ele>
        <time>2015-08-16T18:25:01Z</time>
      </trkpt>
      <trkpt lat="47.27509" lon="1.51316">
        <ele>86.18</ele>
        <time>2015-08-16T18:25:37Z</time>
      </trkpt>
      <trkpt lat="47.27508" lon="1.51316">
        <ele>86.18</ele>
        <time>2015-08-16T18:25:51Z</time>
      </trkpt>
      <trkpt lat="47.27494" lon="1.51328">
        <ele>86.18</ele>
        <time>2015-08-16T18:26:06Z</time>
      </trkpt>
      <trkpt lat="47.27484" lon="1.51348">
        <ele>86.66</ele>
        <time>2015-08-16T18:26:21Z</time>
      </trkpt>
      <trkpt lat="47.27485" lon="1.51348">
        <ele>86.66</ele>
        <time>2015-08-16T18:26:56Z</time>
      </trkpt>
      <trkpt lat="47.27485" lon="1.51347">
        <ele>86.66</ele>
        <time>2015-08-16T18:27:34Z</time>
      </trkpt>
      <trkpt lat="47.27485" lon="1.51347">
        <ele>87.14</ele>
        <time>2015-08-16T18:28:10Z</time>
      </trkpt>
      <trkpt lat="47.27485" lon="1.51346">
        <ele>87.14</ele>
        <time>2015-08-16T18:28:41Z</time>
      </trkpt>
      <trkpt lat="47.27485" lon="1.51345">
        <ele>87.62</ele>
        <time>2015-08-16T18:29:14Z</time>
      </trkpt>
      <trkpt lat="47.27484" lon="1.51347">
        <ele>87.62</ele>
        <time>2015-08-16T18:29:50Z</time>
      </trkpt>
      <trkpt lat="47.27483" lon="1.51347">
        <ele>87.62</ele>
        <time>2015-08-16T18:30:04Z</time>
      </trkpt>
      <trkpt lat="47.27486" lon="1.51346">
        <ele>88.1</ele>
        <time>2015-08-16T18:30:28Z</time>
      </trkpt>
      <trkpt lat="47.27483" lon="1.51347">
        <ele>88.1</ele>
        <time>2015-08-16T18:30:44Z</time>
      </trkpt>
      <trkpt lat="47.27471" lon="1.51366">
        <ele>88.1</ele>
        <time>2015-08-16T18:30:55Z</time>
      </trkpt>
      <trkpt lat="47.27469" lon="1.51376">
        <ele>88.1</ele>
        <time>2015-08-16T18:30:59Z</time>
      </trkpt>
      <trkpt lat="47.27467" lon="1.51388">
        <ele>87.62</ele>
        <time>2015-08-16T18:31:04Z</time>
      </trkpt>
      <trkpt lat="47.27467" lon="1.5139">
        <ele>87.62</ele>
        <time>2015-08-16T18:31:05Z</time>
      </trkpt>
      <trkpt lat="47.27466" lon="1.51393">
        <ele>87.62</ele>
        <time>2015-08-16T18:31:06Z</time>
      </trkpt>
      <trkpt lat="47.27466" lon="1.51395">
        <ele>87.62</ele>
        <time>2015-08-16T18:31:07Z</time>
      </trkpt>
      <trkpt lat="47.27465" lon="1.51397">
        <ele>87.62</ele>
        <time>2015-08-16T18:31:08Z</time>
      </trkpt>
      <trkpt lat="47.27465" lon="1.51398">
        <ele>87.62</ele>
        <time>2015-08-16T18:31:09Z</time>
      </trkpt>
      <trkpt lat="47.27463" lon="1.51401">
        <ele>87.62</ele>
        <time>2015-08-16T18:31:18Z</time>
      </trkpt>
      <trkpt lat="47.27457" lon="1.51412">
        <ele>87.62</ele>
        <time>2015-08-16T18:31:40Z</time>
      </trkpt>
      <trkpt lat="47.27442" lon="1.51446">
        <ele>87.14</ele>
        <time>2015-08-16T18:31:54Z</time>
      </trkpt>
      <trkpt lat="47.27426" lon="1.51471">
        <ele>87.14</ele>
        <time>2015-08-16T18:32:05Z</time>
      </trkpt>
      <trkpt lat="47.27413" lon="1.51509">
        <ele>87.14</ele>
        <time>2015-08-16T18:32:17Z</time>
      </trkpt>
      <trkpt lat="47.27404" lon="1.51546">
        <ele>86.66</ele>
        <time>2015-08-16T18:32:28Z</time>
      </trkpt>
      <trkpt lat="47.27404" lon="1.51551">
        <ele>86.66</ele>
        <time>2015-08-16T18:32:29Z</time>
      </trkpt>
      <trkpt lat="47.27403" lon="1.51564">
        <ele>86.66</ele>
        <time>2015-08-16T18:32:33Z</time>
      </trkpt>
      <trkpt lat="47.274" lon="1.51614">
        <ele>86.18</ele>
        <time>2015-08-16T18:32:46Z</time>
      </trkpt>
      <trkpt lat="47.27395" lon="1.51658">
        <ele>86.66</ele>
        <time>2015-08-16T18:32:58Z</time>
      </trkpt>
      <trkpt lat="47.27395" lon="1.51662">
        <ele>86.66</ele>
        <time>2015-08-16T18:32:59Z</time>
      </trkpt>
      <trkpt lat="47.27396" lon="1.51666">
        <ele>86.18</ele>
        <time>2015-08-16T18:33:00Z</time>
      </trkpt>
      <trkpt lat="47.27395" lon="1.51707">
        <ele>86.18</ele>
        <time>2015-08-16T18:33:10Z</time>
      </trkpt>
      <trkpt lat="47.27395" lon="1.51711">
        <ele>86.18</ele>
        <time>2015-08-16T18:33:11Z</time>
      </trkpt>
      <trkpt lat="47.27395" lon="1.51715">
        <ele>86.18</ele>
        <time>2015-08-16T18:33:12Z</time>
      </trkpt>
      <trkpt lat="47.27392" lon="1.51761">
        <ele>86.18</ele>
        <time>2015-08-16T18:33:24Z</time>
      </trkpt>
      <trkpt lat="47.27391" lon="1.51812">
        <ele>85.69</ele>
        <time>2015-08-16T18:33:38Z</time>
      </trkpt>
      <trkpt lat="47.27391" lon="1.51815">
        <ele>85.69</ele>
        <time>2015-08-16T18:33:39Z</time>
      </trkpt>
      <trkpt lat="47.27391" lon="1.51818">
        <ele>85.69</ele>
        <time>2015-08-16T18:33:40Z</time>
      </trkpt>
      <trkpt lat="47.2739" lon="1.51821">
        <ele>85.69</ele>
        <time>2015-08-16T18:33:41Z</time>
      </trkpt>
      <trkpt lat="47.2739" lon="1.51824">
        <ele>85.69</ele>
        <time>2015-08-16T18:33:42Z</time>
      </trkpt>
      <trkpt lat="47.2739" lon="1.51828">
        <ele>85.69</ele>
        <time>2015-08-16T18:33:43Z</time>
      </trkpt>
      <trkpt lat="47.2739" lon="1.51831">
        <ele>85.69</ele>
        <time>2015-08-16T18:33:44Z</time>
      </trkpt>
      <trkpt lat="47.27387" lon="1.5187">
        <ele>85.69</ele>
        <time>2015-08-16T18:33:56Z</time>
      </trkpt>
      <trkpt lat="47.27386" lon="1.51906">
        <ele>85.69</ele>
        <time>2015-08-16T18:34:06Z</time>
      </trkpt>
      <trkpt lat="47.27384" lon="1.51948">
        <ele>85.69</ele>
        <time>2015-08-16T18:34:17Z</time>
      </trkpt>
      <trkpt lat="47.27385" lon="1.51996">
        <ele>84.73</ele>
        <time>2015-08-16T18:34:29Z</time>
      </trkpt>
      <trkpt lat="47.2738" lon="1.52035">
        <ele>84.73</ele>
        <time>2015-08-16T18:34:40Z</time>
      </trkpt>
      <trkpt lat="47.2738" lon="1.52086">
        <ele>84.73</ele>
        <time>2015-08-16T18:34:53Z</time>
      </trkpt>
      <trkpt lat="47.27377" lon="1.52127">
        <ele>84.25</ele>
        <time>2015-08-16T18:35:05Z</time>
      </trkpt>
      <trkpt lat="47.27373" lon="1.52177">
        <ele>84.25</ele>
        <time>2015-08-16T18:35:19Z</time>
      </trkpt>
      <trkpt lat="47.27368" lon="1.5222">
        <ele>83.77</ele>
        <time>2015-08-16T18:35:32Z</time>
      </trkpt>
      <trkpt lat="47.2736" lon="1.52264">
        <ele>83.77</ele>
        <time>2015-08-16T18:35:46Z</time>
      </trkpt>
      <trkpt lat="47.2736" lon="1.52268">
        <ele>83.77</ele>
        <time>2015-08-16T18:35:47Z</time>
      </trkpt>
      <trkpt lat="47.2736" lon="1.52272">
        <ele>83.77</ele>
        <time>2015-08-16T18:35:48Z</time>
      </trkpt>
      <trkpt lat="47.27355" lon="1.52309">
        <ele>83.77</ele>
        <time>2015-08-16T18:35:59Z</time>
      </trkpt>
      <trkpt lat="47.27348" lon="1.52348">
        <ele>83.29</ele>
        <time>2015-08-16T18:36:10Z</time>
      </trkpt>
      <trkpt lat="47.27337" lon="1.52422">
        <ele>85.21</ele>
        <time>2015-08-16T18:36:22Z</time>
      </trkpt>
      <trkpt lat="47.27333" lon="1.52443">
        <ele>86.18</ele>
        <time>2015-08-16T18:36:26Z</time>
      </trkpt>
      <trkpt lat="47.27332" lon="1.52446">
        <ele>86.18</ele>
        <time>2015-08-16T18:36:27Z</time>
      </trkpt>
      <trkpt lat="47.27332" lon="1.52448">
        <ele>86.18</ele>
        <time>2015-08-16T18:36:28Z</time>
      </trkpt>
      <trkpt lat="47.27332" lon="1.52449">
        <ele>86.66</ele>
        <time>2015-08-16T18:36:36Z</time>
      </trkpt>
      <trkpt lat="47.27332" lon="1.52448">
        <ele>86.18</ele>
        <time>2015-08-16T18:36:51Z</time>
      </trkpt>
      <trkpt lat="47.27331" lon="1.52449">
        <ele>86.18</ele>
        <time>2015-08-16T18:37:20Z</time>
      </trkpt>
      <trkpt lat="47.27331" lon="1.52454">
        <ele>86.18</ele>
        <time>2015-08-16T18:37:32Z</time>
      </trkpt>
      <trkpt lat="47.2733" lon="1.52454">
        <ele>86.18</ele>
        <time>2015-08-16T18:37:33Z</time>
      </trkpt>
      <trkpt lat="47.27329" lon="1.52453">
        <ele>86.18</ele>
        <time>2015-08-16T18:37:34Z</time>
      </trkpt>
      <trkpt lat="47.27327" lon="1.52451">
        <ele>86.18</ele>
        <time>2015-08-16T18:37:36Z</time>
      </trkpt>
      <trkpt lat="47.27326" lon="1.5245">
        <ele>86.18</ele>
        <time>2015-08-16T18:37:37Z</time>
      </trkpt>
      <trkpt lat="47.27325" lon="1.52451">
        <ele>86.18</ele>
        <time>2015-08-16T18:37:39Z</time>
      </trkpt>
      <trkpt lat="47.27324" lon="1.52451">
        <ele>86.18</ele>
        <time>2015-08-16T18:37:40Z</time>
      </trkpt>
      <trkpt lat="47.27323" lon="1.52453">
        <ele>85.69</ele>
        <time>2015-08-16T18:37:41Z</time>
      </trkpt>
      <trkpt lat="47.27322" lon="1.52455">
        <ele>85.69</ele>
        <time>2015-08-16T18:37:42Z</time>
      </trkpt>
      <trkpt lat="47.27322" lon="1.52458">
        <ele>85.69</ele>
        <time>2015-08-16T18:37:43Z</time>
      </trkpt>
      <trkpt lat="47.27322" lon="1.52461">
        <ele>85.69</ele>
        <time>2015-08-16T18:37:44Z</time>
      </trkpt>
      <trkpt lat="47.27314" lon="1.52497">
        <ele>85.69</ele>
        <time>2015-08-16T18:37:57Z</time>
      </trkpt>
      <trkpt lat="47.27312" lon="1.525">
        <ele>85.69</ele>
        <time>2015-08-16T18:38:22Z</time>
      </trkpt>
      <trkpt lat="47.27311" lon="1.52501">
        <ele>85.69</ele>
        <time>2015-08-16T18:38:34Z</time>
      </trkpt>
      <trkpt lat="47.27304" lon="1.52555">
        <ele>85.21</ele>
        <time>2015-08-16T18:38:50Z</time>
      </trkpt>
      <trkpt lat="47.27299" lon="1.52616">
        <ele>85.21</ele>
        <time>2015-08-16T18:39:06Z</time>
      </trkpt>
      <trkpt lat="47.27298" lon="1.52671">
        <ele>85.21</ele>
        <time>2015-08-16T18:39:22Z</time>
      </trkpt>
      <trkpt lat="47.27297" lon="1.52721">
        <ele>84.73</ele>
        <time>2015-08-16T18:39:37Z</time>
      </trkpt>
      <trkpt lat="47.27297" lon="1.52777">
        <ele>84.73</ele>
        <time>2015-08-16T18:39:52Z</time>
      </trkpt>
      <trkpt lat="47.27297" lon="1.52831">
        <ele>84.73</ele>
        <time>2015-08-16T18:40:07Z</time>
      </trkpt>
      <trkpt lat="47.27299" lon="1.52881">
        <ele>84.73</ele>
        <time>2015-08-16T18:40:21Z</time>
      </trkpt>
      <trkpt lat="47.27303" lon="1.52924">
        <ele>84.73</ele>
        <time>2015-08-16T18:40:35Z</time>
      </trkpt>
      <trkpt lat="47.27306" lon="1.52959">
        <ele>84.73</ele>
        <time>2015-08-16T18:40:48Z</time>
      </trkpt>
      <trkpt lat="47.27307" lon="1.52969">
        <ele>84.73</ele>
        <time>2015-08-16T18:41:06Z</time>
      </trkpt>
      <trkpt lat="47.27305" lon="1.52971">
        <ele>84.73</ele>
        <time>2015-08-16T18:41:31Z</time>
      </trkpt>
      <trkpt lat="47.27305" lon="1.52972">
        <ele>84.25</ele>
        <time>2015-08-16T18:41:57Z</time>
      </trkpt>
      <trkpt lat="47.27303" lon="1.52972">
        <ele>84.25</ele>
        <time>2015-08-16T18:42:20Z</time>
      </trkpt>
      <trkpt lat="47.27304" lon="1.52974">
        <ele>84.25</ele>
        <time>2015-08-16T18:42:49Z</time>
      </trkpt>
      <trkpt lat="47.27304" lon="1.52974">
        <ele>84.25</ele>
        <time>2015-08-16T18:43:24Z</time>
      </trkpt>
      <trkpt lat="47.27306" lon="1.52973">
        <ele>84.25</ele>
        <time>2015-08-16T18:44:01Z</time>
      </trkpt>
      <trkpt lat="47.27307" lon="1.52974">
        <ele>83.77</ele>
        <time>2015-08-16T18:44:36Z</time>
      </trkpt>
      <trkpt lat="47.27307" lon="1.52972">
        <ele>83.77</ele>
        <time>2015-08-16T18:45:07Z</time>
      </trkpt>
      <trkpt lat="47.27307" lon="1.52972">
        <ele>83.77</ele>
        <time>2015-08-16T18:45:38Z</time>
      </trkpt>
      <trkpt lat="47.27307" lon="1.52973">
        <ele>84.25</ele>
        <time>2015-08-16T18:46:10Z</time>
      </trkpt>
      <trkpt lat="47.27307" lon="1.52974">
        <ele>83.77</ele>
        <time>2015-08-16T18:46:36Z</time>
      </trkpt>
      <trkpt lat="47.27307" lon="1.52975">
        <ele>83.77</ele>
        <time>2015-08-16T18:47:10Z</time>
      </trkpt>
      <trkpt lat="47.27307" lon="1.52973">
        <ele>83.77</ele>
        <time>2015-08-16T18:47:38Z</time>
      </trkpt>
      <trkpt lat="47.27308" lon="1.52973">
        <ele>83.77</ele>
        <time>2015-08-16T18:48:09Z</time>
      </trkpt>
      <trkpt lat="47.27307" lon="1.52971">
        <ele>83.77</ele>
        <time>2015-08-16T18:48:40Z</time>
      </trkpt>
      <trkpt lat="47.27306" lon="1.5297">
        <ele>83.29</ele>
        <time>2015-08-16T18:49:16Z</time>
      </trkpt>
      <trkpt lat="47.27307" lon="1.5297">
        <ele>83.29</ele>
        <time>2015-08-16T18:49:51Z</time>
      </trkpt>
      <trkpt lat="47.27307" lon="1.52971">
        <ele>83.29</ele>
        <time>2015-08-16T18:50:23Z</time>
      </trkpt>
      <trkpt lat="47.27306" lon="1.52973">
        <ele>83.29</ele>
        <time>2015-08-16T18:50:54Z</time>
      </trkpt>
      <trkpt lat="47.27306" lon="1.52974">
        <ele>83.29</ele>
        <time>2015-08-16T18:51:23Z</time>
      </trkpt>
      <trkpt lat="47.27306" lon="1.52975">
        <ele>83.29</ele>
        <time>2015-08-16T18:51:56Z</time>
      </trkpt>
      <trkpt lat="47.27307" lon="1.52973">
        <ele>82.81</ele>
        <time>2015-08-16T18:52:27Z</time>
      </trkpt>
      <trkpt lat="47.27307" lon="1.52974">
        <ele>82.81</ele>
        <time>2015-08-16T18:52:57Z</time>
      </trkpt>
      <trkpt lat="47.27307" lon="1.52976">
        <ele>82.33</ele>
        <time>2015-08-16T18:53:28Z</time>
      </trkpt>
      <trkpt lat="47.27307" lon="1.52976">
        <ele>82.33</ele>
        <time>2015-08-16T18:54:03Z</time>
      </trkpt>
      <trkpt lat="47.27308" lon="1.52977">
        <ele>82.33</ele>
        <time>2015-08-16T18:54:31Z</time>
      </trkpt>
      <trkpt lat="47.27308" lon="1.52975">
        <ele>82.33</ele>
        <time>2015-08-16T18:54:59Z</time>
      </trkpt>
      <trkpt lat="47.27311" lon="1.52976">
        <ele>82.33</ele>
        <time>2015-08-16T18:55:33Z</time>
      </trkpt>
      <trkpt lat="47.27308" lon="1.52973">
        <ele>82.33</ele>
        <time>2015-08-16T18:55:53Z</time>
      </trkpt>
      <trkpt lat="47.27311" lon="1.53001">
        <ele>82.33</ele>
        <time>2015-08-16T18:56:06Z</time>
      </trkpt>
      <trkpt lat="47.27315" lon="1.53057">
        <ele>82.33</ele>
        <time>2015-08-16T18:56:21Z</time>
      </trkpt>
      <trkpt lat="47.27321" lon="1.53126">
        <ele>82.33</ele>
        <time>2015-08-16T18:56:38Z</time>
      </trkpt>
      <trkpt lat="47.27328" lon="1.53194">
        <ele>82.33</ele>
        <time>2015-08-16T18:56:56Z</time>
      </trkpt>
      <trkpt lat="47.27335" lon="1.5325">
        <ele>82.33</ele>
        <time>2015-08-16T18:57:11Z</time>
      </trkpt>
      <trkpt lat="47.27342" lon="1.53315">
        <ele>82.33</ele>
        <time>2015-08-16T18:57:27Z</time>
      </trkpt>
      <trkpt lat="47.27351" lon="1.5337">
        <ele>81.85</ele>
        <time>2015-08-16T18:57:41Z</time>
      </trkpt>
      <trkpt lat="47.2736" lon="1.53444">
        <ele>82.33</ele>
        <time>2015-08-16T18:57:54Z</time>
      </trkpt>
      <trkpt lat="47.27363" lon="1.53457">
        <ele>82.81</ele>
        <time>2015-08-16T18:57:56Z</time>
      </trkpt>
      <trkpt lat="47.27368" lon="1.53487">
        <ele>84.25</ele>
        <time>2015-08-16T18:58:04Z</time>
      </trkpt>
      <trkpt lat="47.27368" lon="1.53488">
        <ele>84.25</ele>
        <time>2015-08-16T18:58:33Z</time>
      </trkpt>
      <trkpt lat="47.27368" lon="1.53489">
        <ele>84.25</ele>
        <time>2015-08-16T18:58:51Z</time>
      </trkpt>
      <trkpt lat="47.27375" lon="1.53526">
        <ele>83.77</ele>
        <time>2015-08-16T18:59:03Z</time>
      </trkpt>
      <trkpt lat="47.27377" lon="1.53544">
        <ele>83.77</ele>
        <time>2015-08-16T18:59:19Z</time>
      </trkpt>
      <trkpt lat="47.27377" lon="1.53544">
        <ele>83.77</ele>
        <time>2015-08-16T18:59:44Z</time>
      </trkpt>
      <trkpt lat="47.27384" lon="1.53585">
        <ele>84.73</ele>
        <time>2015-08-16T18:59:56Z</time>
      </trkpt>
      <trkpt lat="47.27398" lon="1.53657">
        <ele>85.21</ele>
        <time>2015-08-16T19:00:09Z</time>
      </trkpt>
      <trkpt lat="47.27427" lon="1.53716">
        <ele>85.69</ele>
        <time>2015-08-16T19:00:22Z</time>
      </trkpt>
      <trkpt lat="47.2745" lon="1.53742">
        <ele>85.69</ele>
        <time>2015-08-16T19:00:31Z</time>
      </trkpt>
      <trkpt lat="47.27472" lon="1.5376">
        <ele>86.18</ele>
        <time>2015-08-16T19:00:38Z</time>
      </trkpt>
      <trkpt lat="47.27492" lon="1.53778">
        <ele>87.62</ele>
        <time>2015-08-16T19:00:46Z</time>
      </trkpt>
      <trkpt lat="47.27494" lon="1.53778">
        <ele>87.62</ele>
        <time>2015-08-16T19:00:58Z</time>
      </trkpt>
      <trkpt lat="47.27496" lon="1.53806">
        <ele>87.62</ele>
        <time>2015-08-16T19:01:09Z</time>
      </trkpt>
      <trkpt lat="47.27501" lon="1.5387">
        <ele>87.14</ele>
        <time>2015-08-16T19:01:24Z</time>
      </trkpt>
      <trkpt lat="47.27505" lon="1.5394">
        <ele>86.18</ele>
        <time>2015-08-16T19:01:39Z</time>
      </trkpt>
      <trkpt lat="47.27513" lon="1.54022">
        <ele>85.21</ele>
        <time>2015-08-16T19:01:58Z</time>
      </trkpt>
      <trkpt lat="47.27521" lon="1.54088">
        <ele>84.25</ele>
        <time>2015-08-16T19:02:14Z</time>
      </trkpt>
      <trkpt lat="47.27526" lon="1.54138">
        <ele>83.29</ele>
        <time>2015-08-16T19:02:27Z</time>
      </trkpt>
      <trkpt lat="47.27534" lon="1.54191">
        <ele>82.81</ele>
        <time>2015-08-16T19:02:42Z</time>
      </trkpt>
      <trkpt lat="47.27534" lon="1.54194">
        <ele>81.85</ele>
        <time>2015-08-16T19:02:43Z</time>
      </trkpt>
      <trkpt lat="47.27535" lon="1.54196">
        <ele>81.85</ele>
        <time>2015-08-16T19:02:44Z</time>
      </trkpt>
      <trkpt lat="47.27535" lon="1.54198">
        <ele>81.85</ele>
        <time>2015-08-16T19:02:45Z</time>
      </trkpt>
      <trkpt lat="47.27536" lon="1.542">
        <ele>81.85</ele>
        <time>2015-08-16T19:02:46Z</time>
      </trkpt>
      <trkpt lat="47.27537" lon="1.54202">
        <ele>81.85</ele>
        <time>2015-08-16T19:02:47Z</time>
      </trkpt>
      <trkpt lat="47.27572" lon="1.54197">
        <ele>81.85</ele>
        <time>2015-08-16T19:02:58Z</time>
      </trkpt>
      <trkpt lat="47.27617" lon="1.54185">
        <ele>82.81</ele>
        <time>2015-08-16T19:03:08Z</time>
      </trkpt>
      <trkpt lat="47.27642" lon="1.54178">
        <ele>82.81</ele>
        <time>2015-08-16T19:03:14Z</time>
      </trkpt>
      <trkpt lat="47.27646" lon="1.54176">
        <ele>82.81</ele>
        <time>2015-08-16T19:03:15Z</time>
      </trkpt>
      <trkpt lat="47.2765" lon="1.54175">
        <ele>83.29</ele>
        <time>2015-08-16T19:03:16Z</time>
      </trkpt>
      <trkpt lat="47.27655" lon="1.54173">
        <ele>83.29</ele>
        <time>2015-08-16T19:03:17Z</time>
      </trkpt>
      <trkpt lat="47.27659" lon="1.54172">
        <ele>83.29</ele>
        <time>2015-08-16T19:03:18Z</time>
      </trkpt>
      <trkpt lat="47.27663" lon="1.54171">
        <ele>82.81</ele>
        <time>2015-08-16T19:03:19Z</time>
      </trkpt>
      <trkpt lat="47.27667" lon="1.54168">
        <ele>83.29</ele>
        <time>2015-08-16T19:03:20Z</time>
      </trkpt>
      <trkpt lat="47.2767" lon="1.54164">
        <ele>83.29</ele>
        <time>2015-08-16T19:03:21Z</time>
      </trkpt>
      <trkpt lat="47.27675" lon="1.54122">
        <ele>83.77</ele>
        <time>2015-08-16T19:03:31Z</time>
      </trkpt>
      <trkpt lat="47.27675" lon="1.54121">
        <ele>83.77</ele>
        <time>2015-08-16T19:03:37Z</time>
      </trkpt>
      <trkpt lat="47.27679" lon="1.54118">
        <ele>83.77</ele>
        <time>2015-08-16T19:03:53Z</time>
      </trkpt>
      <trkpt lat="47.27688" lon="1.54114">
        <ele>84.25</ele>
        <time>2015-08-16T19:03:59Z</time>
      </trkpt>
      <trkpt lat="47.27696" lon="1.54109">
        <ele>84.25</ele>
        <time>2015-08-16T19:04:04Z</time>
      </trkpt>
      <trkpt lat="47.27733" lon="1.54093">
        <ele>84.25</ele>
        <time>2015-08-16T19:04:23Z</time>
      </trkpt>
      <trkpt lat="47.2777" lon="1.54096">
        <ele>84.25</ele>
        <time>2015-08-16T19:04:40Z</time>
      </trkpt>
      <trkpt lat="47.278" lon="1.54109">
        <ele>84.25</ele>
        <time>2015-08-16T19:04:55Z</time>
      </trkpt>
      <trkpt lat="47.27826" lon="1.54135">
        <ele>83.77</ele>
        <time>2015-08-16T19:05:10Z</time>
      </trkpt>
      <trkpt lat="47.27848" lon="1.54171">
        <ele>83.77</ele>
        <time>2015-08-16T19:05:25Z</time>
      </trkpt>
      <trkpt lat="47.27863" lon="1.54224">
        <ele>84.25</ele>
        <time>2015-08-16T19:05:43Z</time>
      </trkpt>
      <trkpt lat="47.27867" lon="1.54274">
        <ele>83.77</ele>
        <time>2015-08-16T19:05:59Z</time>
      </trkpt>
      <trkpt lat="47.27862" lon="1.54325">
        <ele>83.77</ele>
        <time>2015-08-16T19:06:16Z</time>
      </trkpt>
      <trkpt lat="47.27851" lon="1.54375">
        <ele>83.77</ele>
        <time>2015-08-16T19:06:33Z</time>
      </trkpt>
      <trkpt lat="47.27842" lon="1.54416">
        <ele>83.77</ele>
        <time>2015-08-16T19:06:48Z</time>
      </trkpt>
      <trkpt lat="47.2784" lon="1.54422">
        <ele>83.77</ele>
        <time>2015-08-16T19:07:02Z</time>
      </trkpt>
      <trkpt lat="47.27838" lon="1.54428">
        <ele>84.25</ele>
        <time>2015-08-16T19:07:13Z</time>
      </trkpt>
      <trkpt lat="47.27836" lon="1.54431">
        <ele>84.25</ele>
        <time>2015-08-16T19:07:32Z</time>
      </trkpt>
      <trkpt lat="47.27836" lon="1.54431">
        <ele>86.66</ele>
        <time>2015-08-16T19:07:33Z</time>
      </trkpt>
      <trkpt lat="47.27836" lon="1.54432">
        <ele>80.89</ele>
        <time>2015-08-16T19:07:35Z</time>
      </trkpt>
      <trkpt lat="47.27836" lon="1.54432">
        <ele>84.25</ele>
        <time>2015-08-16T19:07:46Z</time>
      </trkpt>
      <trkpt lat="47.27837" lon="1.54434">
        <ele>83.77</ele>
        <time>2015-08-16T19:08:06Z</time>
      </trkpt>
      <trkpt lat="47.27838" lon="1.54432">
        <ele>83.77</ele>
        <time>2015-08-16T19:08:38Z</time>
      </trkpt>
      <trkpt lat="47.27834" lon="1.54455">
        <ele>83.77</ele>
        <time>2015-08-16T19:08:51Z</time>
      </trkpt>
      <trkpt lat="47.27824" lon="1.54503">
        <ele>83.77</ele>
        <time>2015-08-16T19:09:07Z</time>
      </trkpt>
      <trkpt lat="47.27814" lon="1.54546">
        <ele>83.77</ele>
        <time>2015-08-16T19:09:21Z</time>
      </trkpt>
      <trkpt lat="47.27807" lon="1.54603">
        <ele>83.77</ele>
        <time>2015-08-16T19:09:39Z</time>
      </trkpt>
      <trkpt lat="47.27808" lon="1.54652">
        <ele>83.77</ele>
        <time>2015-08-16T19:09:54Z</time>
      </trkpt>
      <trkpt lat="47.27816" lon="1.54701">
        <ele>83.77</ele>
        <time>2015-08-16T19:10:11Z</time>
      </trkpt>
      <trkpt lat="47.27835" lon="1.54753">
        <ele>83.77</ele>
        <time>2015-08-16T19:10:29Z</time>
      </trkpt>
      <trkpt lat="47.27865" lon="1.54801">
        <ele>84.25</ele>
        <time>2015-08-16T19:10:48Z</time>
      </trkpt>
      <trkpt lat="47.27888" lon="1.54834">
        <ele>84.25</ele>
        <time>2015-08-16T19:11:03Z</time>
      </trkpt>
      <trkpt lat="47.27889" lon="1.54836">
        <ele>84.25</ele>
        <time>2015-08-16T19:11:04Z</time>
      </trkpt>
      <trkpt lat="47.2789" lon="1.54837">
        <ele>84.25</ele>
        <time>2015-08-16T19:11:05Z</time>
      </trkpt>
      <trkpt lat="47.27891" lon="1.54838">
        <ele>84.25</ele>
        <time>2015-08-16T19:11:06Z</time>
      </trkpt>
      <trkpt lat="47.27892" lon="1.54839">
        <ele>84.25</ele>
        <time>2015-08-16T19:11:07Z</time>
      </trkpt>
      <trkpt lat="47.27893" lon="1.5484">
        <ele>84.25</ele>
        <time>2015-08-16T19:11:08Z</time>
      </trkpt>
      <trkpt lat="47.27893" lon="1.54842">
        <ele>84.25</ele>
        <time>2015-08-16T19:11:27Z</time>
      </trkpt>
      <trkpt lat="47.27893" lon="1.54842">
        <ele>83.77</ele>
        <time>2015-08-16T19:11:51Z</time>
      </trkpt>
      <trkpt lat="47.27893" lon="1.54841">
        <ele>83.77</ele>
        <time>2015-08-16T19:12:20Z</time>
      </trkpt>
      <trkpt lat="47.27893" lon="1.54841">
        <ele>83.77</ele>
        <time>2015-08-16T19:12:44Z</time>
      </trkpt>
      <trkpt lat="47.27892" lon="1.54841">
        <ele>84.25</ele>
        <time>2015-08-16T19:13:11Z</time>
      </trkpt>
      <trkpt lat="47.27892" lon="1.54841">
        <ele>83.77</ele>
        <time>2015-08-16T19:13:35Z</time>
      </trkpt>
      <trkpt lat="47.27892" lon="1.54841">
        <ele>84.25</ele>
        <time>2015-08-16T19:13:59Z</time>
      </trkpt>
      <trkpt lat="47.27891" lon="1.54837">
        <ele>84.25</ele>
        <time>2015-08-16T19:14:15Z</time>
      </trkpt>
      <trkpt lat="47.27892" lon="1.54835">
        <ele>84.25</ele>
        <time>2015-08-16T19:14:16Z</time>
      </trkpt>
      <trkpt lat="47.27893" lon="1.54834">
        <ele>84.25</ele>
        <time>2015-08-16T19:14:17Z</time>
      </trkpt>
      <trkpt lat="47.27894" lon="1.54835">
        <ele>84.25</ele>
        <time>2015-08-16T19:14:18Z</time>
      </trkpt>
      <trkpt lat="47.27894" lon="1.54836">
        <ele>84.25</ele>
        <time>2015-08-16T19:14:19Z</time>
      </trkpt>
      <trkpt lat="47.27895" lon="1.54841">
        <ele>84.25</ele>
        <time>2015-08-16T19:14:23Z</time>
      </trkpt>
      <trkpt lat="47.27905" lon="1.5485">
        <ele>83.77</ele>
        <time>2015-08-16T19:14:38Z</time>
      </trkpt>
      <trkpt lat="47.27906" lon="1.54852">
        <ele>84.25</ele>
        <time>2015-08-16T19:14:39Z</time>
      </trkpt>
      <trkpt lat="47.27905" lon="1.54852">
        <ele>83.77</ele>
        <time>2015-08-16T19:14:51Z</time>
      </trkpt>
      <trkpt lat="47.27888" lon="1.54885">
        <ele>83.77</ele>
        <time>2015-08-16T19:15:06Z</time>
      </trkpt>
      <trkpt lat="47.27882" lon="1.54913">
        <ele>83.77</ele>
        <time>2015-08-16T19:15:18Z</time>
      </trkpt>
      <trkpt lat="47.27898" lon="1.54956">
        <ele>84.25</ele>
        <time>2015-08-16T19:15:32Z</time>
      </trkpt>
      <trkpt lat="47.27929" lon="1.54995">
        <ele>83.77</ele>
        <time>2015-08-16T19:15:48Z</time>
      </trkpt>
      <trkpt lat="47.27955" lon="1.55015">
        <ele>83.77</ele>
        <time>2015-08-16T19:16:02Z</time>
      </trkpt>
      <trkpt lat="47.2798" lon="1.55024">
        <ele>80.89</ele>
        <time>2015-08-16T19:16:16Z</time>
      </trkpt>
      <trkpt lat="47.28" lon="1.55062">
        <ele>80.41</ele>
        <time>2015-08-16T19:16:28Z</time>
      </trkpt>
      <trkpt lat="47.27989" lon="1.55132">
        <ele>79.93</ele>
        <time>2015-08-16T19:16:42Z</time>
      </trkpt>
      <trkpt lat="47.27967" lon="1.55206">
        <ele>79.93</ele>
        <time>2015-08-16T19:16:58Z</time>
      </trkpt>
      <trkpt lat="47.27942" lon="1.55289">
        <ele>79.93</ele>
        <time>2015-08-16T19:17:14Z</time>
      </trkpt>
      <trkpt lat="47.27927" lon="1.55346">
        <ele>80.41</ele>
        <time>2015-08-16T19:17:25Z</time>
      </trkpt>
      <trkpt lat="47.27913" lon="1.55431">
        <ele>79.93</ele>
        <time>2015-08-16T19:17:43Z</time>
      </trkpt>
      <trkpt lat="47.2791" lon="1.55531">
        <ele>79.45</ele>
        <time>2015-08-16T19:18:01Z</time>
      </trkpt>
      <trkpt lat="47.27905" lon="1.55613">
        <ele>78.48</ele>
        <time>2015-08-16T19:18:17Z</time>
      </trkpt>
      <trkpt lat="47.27902" lon="1.55672">
        <ele>78.48</ele>
        <time>2015-08-16T19:18:30Z</time>
      </trkpt>
      <trkpt lat="47.27898" lon="1.5573">
        <ele>77.52</ele>
        <time>2015-08-16T19:18:45Z</time>
      </trkpt>
      <trkpt lat="47.27897" lon="1.55733">
        <ele>77.52</ele>
        <time>2015-08-16T19:18:46Z</time>
      </trkpt>
      <trkpt lat="47.27897" lon="1.55737">
        <ele>77.04</ele>
        <time>2015-08-16T19:18:47Z</time>
      </trkpt>
      <trkpt lat="47.27896" lon="1.5574">
        <ele>77.04</ele>
        <time>2015-08-16T19:18:48Z</time>
      </trkpt>
      <trkpt lat="47.27896" lon="1.55743">
        <ele>77.52</ele>
        <time>2015-08-16T19:18:49Z</time>
      </trkpt>
      <trkpt lat="47.27896" lon="1.55745">
        <ele>78</ele>
        <time>2015-08-16T19:18:50Z</time>
      </trkpt>
      <trkpt lat="47.27895" lon="1.55748">
        <ele>77.04</ele>
        <time>2015-08-16T19:18:51Z</time>
      </trkpt>
      <trkpt lat="47.27891" lon="1.55752">
        <ele>77.04</ele>
        <time>2015-08-16T19:18:58Z</time>
      </trkpt>
      <trkpt lat="47.27889" lon="1.55751">
        <ele>77.04</ele>
        <time>2015-08-16T19:18:59Z</time>
      </trkpt>
      <trkpt lat="47.27887" lon="1.55751">
        <ele>77.04</ele>
        <time>2015-08-16T19:19:00Z</time>
      </trkpt>
      <trkpt lat="47.27886" lon="1.55751">
        <ele>77.04</ele>
        <time>2015-08-16T19:19:01Z</time>
      </trkpt>
      <trkpt lat="47.27885" lon="1.55751">
        <ele>77.04</ele>
        <time>2015-08-16T19:19:02Z</time>
      </trkpt>
      <trkpt lat="47.27882" lon="1.55751">
        <ele>77.04</ele>
        <time>2015-08-16T19:19:04Z</time>
      </trkpt>
      <trkpt lat="47.27882" lon="1.55753">
        <ele>77.04</ele>
        <time>2015-08-16T19:19:06Z</time>
      </trkpt>
      <trkpt lat="47.27871" lon="1.55768">
        <ele>77.52</ele>
        <time>2015-08-16T19:19:17Z</time>
      </trkpt>
      <trkpt lat="47.27831" lon="1.55783">
        <ele>78.97</ele>
        <time>2015-08-16T19:19:32Z</time>
      </trkpt>
      <trkpt lat="47.27828" lon="1.55784">
        <ele>78.97</ele>
        <time>2015-08-16T19:19:33Z</time>
      </trkpt>
      <trkpt lat="47.27826" lon="1.55785">
        <ele>78.97</ele>
        <time>2015-08-16T19:19:34Z</time>
      </trkpt>
      <trkpt lat="47.27824" lon="1.55786">
        <ele>78.97</ele>
        <time>2015-08-16T19:19:35Z</time>
      </trkpt>
      <trkpt lat="47.27823" lon="1.55786">
        <ele>78.97</ele>
        <time>2015-08-16T19:19:36Z</time>
      </trkpt>
      <trkpt lat="47.27821" lon="1.55786">
        <ele>78.97</ele>
        <time>2015-08-16T19:19:37Z</time>
      </trkpt>
      <trkpt lat="47.2782" lon="1.55786">
        <ele>78.97</ele>
        <time>2015-08-16T19:19:38Z</time>
      </trkpt>
      <trkpt lat="47.2782" lon="1.55786">
        <ele>78.97</ele>
        <time>2015-08-16T19:19:45Z</time>
      </trkpt>
      <trkpt lat="47.2782" lon="1.55786">
        <ele>78.97</ele>
        <time>2015-08-16T19:20:08Z</time>
      </trkpt>
      <trkpt lat="47.2782" lon="1.55783">
        <ele>78.97</ele>
        <time>2015-08-16T19:20:39Z</time>
      </trkpt>
      <trkpt lat="47.27819" lon="1.55783">
        <ele>78.97</ele>
        <time>2015-08-16T19:21:06Z</time>
      </trkpt>
      <trkpt lat="47.27788" lon="1.55794">
        <ele>79.45</ele>
        <time>2015-08-16T19:21:21Z</time>
      </trkpt>
      <trkpt lat="47.27786" lon="1.55794">
        <ele>79.45</ele>
        <time>2015-08-16T19:21:22Z</time>
      </trkpt>
      <trkpt lat="47.27784" lon="1.55794">
        <ele>79.45</ele>
        <time>2015-08-16T19:21:23Z</time>
      </trkpt>
      <trkpt lat="47.27782" lon="1.55793">
        <ele>79.45</ele>
        <time>2015-08-16T19:21:24Z</time>
      </trkpt>
      <trkpt lat="47.2778" lon="1.55791">
        <ele>79.45</ele>
        <time>2015-08-16T19:21:25Z</time>
      </trkpt>
      <trkpt lat="47.27778" lon="1.55789">
        <ele>79.45</ele>
        <time>2015-08-16T19:21:26Z</time>
      </trkpt>
      <trkpt lat="47.27777" lon="1.55787">
        <ele>78.97</ele>
        <time>2015-08-16T19:21:27Z</time>
      </trkpt>
      <trkpt lat="47.27776" lon="1.55785">
        <ele>78.97</ele>
        <time>2015-08-16T19:21:28Z</time>
      </trkpt>
      <trkpt lat="47.27775" lon="1.55782">
        <ele>78.97</ele>
        <time>2015-08-16T19:21:29Z</time>
      </trkpt>
      <trkpt lat="47.27773" lon="1.5578">
        <ele>78.97</ele>
        <time>2015-08-16T19:21:30Z</time>
      </trkpt>
      <trkpt lat="47.27771" lon="1.55778">
        <ele>78.97</ele>
        <time>2015-08-16T19:21:31Z</time>
      </trkpt>
      <trkpt lat="47.27769" lon="1.55779">
        <ele>78.97</ele>
        <time>2015-08-16T19:21:32Z</time>
      </trkpt>
      <trkpt lat="47.27767" lon="1.5578">
        <ele>78.97</ele>
        <time>2015-08-16T19:21:33Z</time>
      </trkpt>
      <trkpt lat="47.27765" lon="1.55782">
        <ele>78.97</ele>
        <time>2015-08-16T19:21:34Z</time>
      </trkpt>
      <trkpt lat="47.27763" lon="1.55785">
        <ele>78.97</ele>
        <time>2015-08-16T19:21:35Z</time>
      </trkpt>
      <trkpt lat="47.27762" lon="1.55788">
        <ele>78.97</ele>
        <time>2015-08-16T19:21:36Z</time>
      </trkpt>
      <trkpt lat="47.27735" lon="1.558">
        <ele>79.45</ele>
        <time>2015-08-16T19:21:45Z</time>
      </trkpt>
      <trkpt lat="47.27671" lon="1.55821">
        <ele>79.45</ele>
        <time>2015-08-16T19:22:05Z</time>
      </trkpt>
      <trkpt lat="47.27631" lon="1.55834">
        <ele>78.97</ele>
        <time>2015-08-16T19:22:19Z</time>
      </trkpt>
      <trkpt lat="47.2763" lon="1.55835">
        <ele>78.97</ele>
        <time>2015-08-16T19:22:20Z</time>
      </trkpt>
      <trkpt lat="47.27628" lon="1.55836">
        <ele>78.97</ele>
        <time>2015-08-16T19:22:21Z</time>
      </trkpt>
      <trkpt lat="47.27624" lon="1.5584">
        <ele>78.97</ele>
        <time>2015-08-16T19:22:29Z</time>
      </trkpt>
      <trkpt lat="47.27624" lon="1.55841">
        <ele>78.97</ele>
        <time>2015-08-16T19:22:30Z</time>
      </trkpt>
      <trkpt lat="47.27627" lon="1.55845">
        <ele>78.97</ele>
        <time>2015-08-16T19:22:33Z</time>
      </trkpt>
      <trkpt lat="47.27628" lon="1.55845">
        <ele>78.97</ele>
        <time>2015-08-16T19:22:34Z</time>
      </trkpt>
      <trkpt lat="47.27629" lon="1.55849">
        <ele>78.97</ele>
        <time>2015-08-16T19:22:46Z</time>
      </trkpt>
      <trkpt lat="47.27628" lon="1.5585">
        <ele>78.97</ele>
        <time>2015-08-16T19:23:06Z</time>
      </trkpt>
      <trkpt lat="47.27582" lon="1.55866">
        <ele>78.97</ele>
        <time>2015-08-16T19:23:22Z</time>
      </trkpt>
      <trkpt lat="47.27524" lon="1.55887">
        <ele>78.48</ele>
        <time>2015-08-16T19:23:39Z</time>
      </trkpt>
      <trkpt lat="47.2748" lon="1.55903">
        <ele>78.48</ele>
        <time>2015-08-16T19:23:53Z</time>
      </trkpt>
      <trkpt lat="47.27424" lon="1.55925">
        <ele>78.48</ele>
        <time>2015-08-16T19:24:10Z</time>
      </trkpt>
      <trkpt lat="47.27379" lon="1.55943">
        <ele>78.48</ele>
        <time>2015-08-16T19:24:25Z</time>
      </trkpt>
      <trkpt lat="47.27376" lon="1.55944">
        <ele>78.48</ele>
        <time>2015-08-16T19:24:26Z</time>
      </trkpt>
      <trkpt lat="47.27374" lon="1.55945">
        <ele>78.48</ele>
        <time>2015-08-16T19:24:27Z</time>
      </trkpt>
      <trkpt lat="47.27373" lon="1.55946">
        <ele>78.48</ele>
        <time>2015-08-16T19:24:28Z</time>
      </trkpt>
      <trkpt lat="47.27371" lon="1.55945">
        <ele>78.48</ele>
        <time>2015-08-16T19:24:29Z</time>
      </trkpt>
      <trkpt lat="47.27355" lon="1.55961">
        <ele>78.48</ele>
        <time>2015-08-16T19:24:41Z</time>
      </trkpt>
      <trkpt lat="47.27324" lon="1.5599">
        <ele>79.93</ele>
        <time>2015-08-16T19:24:53Z</time>
      </trkpt>
      <trkpt lat="47.27291" lon="1.5597">
        <ele>78</ele>
        <time>2015-08-16T19:25:03Z</time>
      </trkpt>
      <trkpt lat="47.27248" lon="1.55987">
        <ele>77.52</ele>
        <time>2015-08-16T19:25:16Z</time>
      </trkpt>
      <trkpt lat="47.27225" lon="1.56054">
        <ele>77.04</ele>
        <time>2015-08-16T19:25:29Z</time>
      </trkpt>
      <trkpt lat="47.2722" lon="1.56071">
        <ele>77.04</ele>
        <time>2015-08-16T19:25:32Z</time>
      </trkpt>
      <trkpt lat="47.27201" lon="1.56137">
        <ele>77.52</ele>
        <time>2015-08-16T19:25:45Z</time>
      </trkpt>
      <trkpt lat="47.272" lon="1.56141">
        <ele>77.52</ele>
        <time>2015-08-16T19:25:46Z</time>
      </trkpt>
      <trkpt lat="47.27199" lon="1.56144">
        <ele>77.04</ele>
        <time>2015-08-16T19:25:47Z</time>
      </trkpt>
      <trkpt lat="47.27198" lon="1.56147">
        <ele>77.04</ele>
        <time>2015-08-16T19:25:48Z</time>
      </trkpt>
      <trkpt lat="47.27197" lon="1.5615">
        <ele>77.52</ele>
        <time>2015-08-16T19:25:49Z</time>
      </trkpt>
      <trkpt lat="47.27197" lon="1.56153">
        <ele>77.04</ele>
        <time>2015-08-16T19:25:50Z</time>
      </trkpt>
      <trkpt lat="47.27197" lon="1.56155">
        <ele>77.04</ele>
        <time>2015-08-16T19:25:51Z</time>
      </trkpt>
      <trkpt lat="47.27198" lon="1.56157">
        <ele>77.52</ele>
        <time>2015-08-16T19:25:52Z</time>
      </trkpt>
      <trkpt lat="47.27197" lon="1.56157">
        <ele>77.52</ele>
        <time>2015-08-16T19:26:08Z</time>
      </trkpt>
      <trkpt lat="47.27197" lon="1.56157">
        <ele>77.52</ele>
        <time>2015-08-16T19:26:33Z</time>
      </trkpt>
      <trkpt lat="47.27194" lon="1.56156">
        <ele>77.52</ele>
        <time>2015-08-16T19:27:00Z</time>
      </trkpt>
      <trkpt lat="47.27188" lon="1.56157">
        <ele>77.52</ele>
        <time>2015-08-16T19:27:12Z</time>
      </trkpt>
      <trkpt lat="47.27187" lon="1.56158">
        <ele>77.52</ele>
        <time>2015-08-16T19:27:13Z</time>
      </trkpt>
      <trkpt lat="47.27169" lon="1.56203">
        <ele>77.52</ele>
        <time>2015-08-16T19:27:26Z</time>
      </trkpt>
      <trkpt lat="47.2715" lon="1.56268">
        <ele>77.52</ele>
        <time>2015-08-16T19:27:42Z</time>
      </trkpt>
      <trkpt lat="47.27131" lon="1.56319">
        <ele>77.52</ele>
        <time>2015-08-16T19:27:57Z</time>
      </trkpt>
      <trkpt lat="47.27129" lon="1.56324">
        <ele>77.52</ele>
        <time>2015-08-16T19:27:58Z</time>
      </trkpt>
      <trkpt lat="47.27127" lon="1.56328">
        <ele>77.52</ele>
        <time>2015-08-16T19:27:59Z</time>
      </trkpt>
      <trkpt lat="47.27125" lon="1.56333">
        <ele>78</ele>
        <time>2015-08-16T19:28:00Z</time>
      </trkpt>
      <trkpt lat="47.27123" lon="1.56338">
        <ele>78</ele>
        <time>2015-08-16T19:28:01Z</time>
      </trkpt>
      <trkpt lat="47.27121" lon="1.56343">
        <ele>77.52</ele>
        <time>2015-08-16T19:28:02Z</time>
      </trkpt>
      <trkpt lat="47.27105" lon="1.56379">
        <ele>77.52</ele>
        <time>2015-08-16T19:28:09Z</time>
      </trkpt>
      <trkpt lat="47.27087" lon="1.56467">
        <ele>77.52</ele>
        <time>2015-08-16T19:28:25Z</time>
      </trkpt>
      <trkpt lat="47.27086" lon="1.56557">
        <ele>77.52</ele>
        <time>2015-08-16T19:28:41Z</time>
      </trkpt>
      <trkpt lat="47.27076" lon="1.56633">
        <ele>78.48</ele>
        <time>2015-08-16T19:28:55Z</time>
      </trkpt>
      <trkpt lat="47.27072" lon="1.56682">
        <ele>76</ele>
        <time>2015-08-16T19:29:18.82Z</time>
      </trkpt>
      <trkpt lat="47.27072" lon="1.56682">
        <ele>76</ele>
        <time>2015-08-16T19:29:19.46Z</time>
      </trkpt>
      <trkpt lat="47.27072" lon="1.56693">
        <ele>76</ele>
        <time>2015-08-16T19:29:24.55Z</time>
      </trkpt>
      <trkpt lat="47.27072" lon="1.5672">
        <ele>76</ele>
        <time>2015-08-16T19:29:37.88Z</time>
      </trkpt>
      <trkpt lat="47.27072" lon="1.5674">
        <ele>76</ele>
        <time>2015-08-16T19:29:47.10Z</time>
      </trkpt>
      <trkpt lat="47.27072" lon="1.5677">
        <ele>76</ele>
        <time>2015-08-16T19:30:01.46Z</time>
      </trkpt>
      <trkpt lat="47.27072" lon="1.56791">
        <ele>76</ele>
        <time>2015-08-16T19:30:11.71Z</time>
      </trkpt>
      <trkpt lat="47.27072" lon="1.56811">
        <ele>76</ele>
        <time>2015-08-16T19:30:20.94Z</time>
      </trkpt>
      <trkpt lat="47.27074" lon="1.56832">
        <ele>76</ele>
        <time>2015-08-16T19:30:31.30Z</time>
      </trkpt>
      <trkpt lat="47.27076" lon="1.56853">
        <ele>76</ele>
        <time>2015-08-16T19:30:41.66Z</time>
      </trkpt>
      <trkpt lat="47.2708" lon="1.56886">
        <ele>76</ele>
        <time>2015-08-16T19:30:57.33Z</time>
      </trkpt>
      <trkpt lat="47.27082" lon="1.56914">
        <ele>76</ele>
        <time>2015-08-16T19:31:10.74Z</time>
      </trkpt>
      <trkpt lat="47.27087" lon="1.56937">
        <ele>76</ele>
        <time>2015-08-16T19:31:22.42Z</time>
      </trkpt>
      <trkpt lat="47.27087" lon="1.56948">
        <ele>76</ele>
        <time>2015-08-16T19:31:27.54Z</time>
      </trkpt>
      <trkpt lat="47.27087" lon="1.56963">
        <ele>76</ele>
        <time>2015-08-16T19:31:34.72Z</time>
      </trkpt>
      <trkpt lat="47.27087" lon="1.56982">
        <ele>76</ele>
        <time>2015-08-16T19:31:43.95Z</time>
      </trkpt>
      <trkpt lat="47.27082" lon="1.57019">
        <ele>76</ele>
        <time>2015-08-16T19:32:01.64Z</time>
      </trkpt>
      <trkpt lat="47.27078" lon="1.57057">
        <ele>76</ele>
        <time>2015-08-16T19:32:20.33Z</time>
      </trkpt>
      <trkpt lat="47.27067" lon="1.5713">
        <ele>76</ele>
        <time>2015-08-16T19:32:56Z</time>
      </trkpt>
      <trkpt lat="47.27059" lon="1.5718">
        <ele>76.2</ele>
        <time>2015-08-16T19:33:20.34Z</time>
      </trkpt>
      <trkpt lat="47.27054" lon="1.57214">
        <ele>76.36</ele>
        <time>2015-08-16T19:33:37.02Z</time>
      </trkpt>
      <trkpt lat="47.27048" lon="1.57238">
        <ele>76.59</ele>
        <time>2015-08-16T19:33:49.17Z</time>
      </trkpt>
      <trkpt lat="47.27048" lon="1.57244">
        <ele>76.68</ele>
        <time>2015-08-16T19:33:52.25Z</time>
      </trkpt>
      <trkpt lat="47.27039" lon="1.57287">
        <ele>77</ele>
        <time>2015-08-16T19:34:13.62Z</time>
      </trkpt>
      <trkpt lat="47.27031" lon="1.57328">
        <ele>78</ele>
        <time>2015-08-16T19:34:34.02Z</time>
      </trkpt>
      <trkpt lat="47.27016" lon="1.57377">
        <ele>78</ele>
        <time>2015-08-16T19:34:59.86Z</time>
      </trkpt>
      <trkpt lat="47.27005" lon="1.57426">
        <ele>78</ele>
        <time>2015-08-16T19:35:24.62Z</time>
      </trkpt>
      <trkpt lat="47.27003" lon="1.57441">
        <ele>78</ele>
        <time>2015-08-16T19:35:31.95Z</time>
      </trkpt>
      <trkpt lat="47.27001" lon="1.57454">
        <ele>78</ele>
        <time>2015-08-16T19:35:38.29Z</time>
      </trkpt>
      <trkpt lat="47.26996" lon="1.57467">
        <ele>78</ele>
        <time>2015-08-16T19:35:45.14Z</time>
      </trkpt>
      <trkpt lat="47.26994" lon="1.5748">
        <ele>78</ele>
        <time>2015-08-16T19:35:51.48Z</time>
      </trkpt>
      <trkpt lat="47.2699" lon="1.57493">
        <ele>78</ele>
        <time>2015-08-16T19:35:58.33Z</time>
      </trkpt>
      <trkpt lat="47.26986" lon="1.57508">
        <ele>78</ele>
        <time>2015-08-16T19:36:06.12Z</time>
      </trkpt>
      <trkpt lat="47.26979" lon="1.57527">
        <ele>78</ele>
        <time>2015-08-16T19:36:16.40Z</time>
      </trkpt>
      <trkpt lat="47.26973" lon="1.57551">
        <ele>77.71</ele>
        <time>2015-08-16T19:36:28.55Z</time>
      </trkpt>
      <trkpt lat="47.26971" lon="1.57564">
        <ele>77.25</ele>
        <time>2015-08-16T19:36:34.88Z</time>
      </trkpt>
      <trkpt lat="47.26969" lon="1.57587">
        <ele>77</ele>
        <time>2015-08-16T19:36:46.26Z</time>
      </trkpt>
      <trkpt lat="47.26966" lon="1.57609">
        <ele>77</ele>
        <time>2015-08-16T19:36:56.62Z</time>
      </trkpt>
      <trkpt lat="47.26966" lon="1.5763">
        <ele>77</ele>
        <time>2015-08-16T19:37:06.88Z</time>
      </trkpt>
      <trkpt lat="47.26969" lon="1.57654">
        <ele>77</ele>
        <time>2015-08-16T19:37:18.25Z</time>
      </trkpt>
      <trkpt lat="47.26969" lon="1.57671">
        <ele>77</ele>
        <time>2015-08-16T19:37:26.46Z</time>
      </trkpt>
      <trkpt lat="47.26969" lon="1.57684">
        <ele>77</ele>
        <time>2015-08-16T19:37:32.61Z</time>
      </trkpt>
      <trkpt lat="47.26966" lon="1.57697">
        <ele>77</ele>
        <time>2015-08-16T19:37:38.94Z</time>
      </trkpt>
      <trkpt lat="47.26962" lon="1.57723">
        <ele>77</ele>
        <time>2015-08-16T19:37:51.61Z</time>
      </trkpt>
      <trkpt lat="47.26945" lon="1.57815">
        <ele>77</ele>
        <time>2015-08-16T19:38:37.32Z</time>
      </trkpt>
      <trkpt lat="47.26932" lon="1.57883">
        <ele>77</ele>
        <time>2015-08-16T19:39:11.35Z</time>
      </trkpt>
      <trkpt lat="47.26921" lon="1.5795">
        <ele>77</ele>
        <time>2015-08-16T19:39:44.02Z</time>
      </trkpt>
      <trkpt lat="47.26917" lon="1.57978">
        <ele>77</ele>
        <time>2015-08-16T19:39:57.69Z</time>
      </trkpt>
      <trkpt lat="47.26913" lon="1.58019">
        <ele>77</ele>
        <time>2015-08-16T19:40:17.40Z</time>
      </trkpt>
      <trkpt lat="47.26908" lon="1.58053">
        <ele>77</ele>
        <time>2015-08-16T19:40:34.08Z</time>
      </trkpt>
      <trkpt lat="47.26904" lon="1.58083">
        <ele>77</ele>
        <time>2015-08-16T19:40:48.75Z</time>
      </trkpt>
      <trkpt lat="47.26898" lon="1.58135">
        <ele>77</ele>
        <time>2015-08-16T19:41:13.76Z</time>
      </trkpt>
      <trkpt lat="47.26891" lon="1.58173">
        <ele>77</ele>
        <time>2015-08-16T19:41:32.77Z</time>
      </trkpt>
      <trkpt lat="47.26889" lon="1.58201">
        <ele>77</ele>
        <time>2015-08-16T19:41:46.18Z</time>
      </trkpt>
      <trkpt lat="47.26889" lon="1.58222">
        <ele>77</ele>
        <time>2015-08-16T19:41:56.43Z</time>
      </trkpt>
      <trkpt lat="47.26889" lon="1.58242">
        <ele>77</ele>
        <time>2015-08-16T19:42:05.66Z</time>
      </trkpt>
      <trkpt lat="47.26889" lon="1.58278">
        <ele>77</ele>
        <time>2015-08-16T19:42:23.09Z</time>
      </trkpt>
      <trkpt lat="47.26891" lon="1.58323">
        <ele>77</ele>
        <time>2015-08-16T19:42:44.67Z</time>
      </trkpt>
      <trkpt lat="47.26891" lon="1.58349">
        <ele>77.03</ele>
        <time>2015-08-16T19:42:56.97Z</time>
      </trkpt>
      <trkpt lat="47.26891" lon="1.58371">
        <ele>77.63</ele>
        <time>2015-08-16T19:43:07.22Z</time>
      </trkpt>
      <trkpt lat="47.26891" lon="1.5839">
        <ele>77.89</ele>
        <time>2015-08-16T19:43:16.45Z</time>
      </trkpt>
      <trkpt lat="47.26889" lon="1.58409">
        <ele>78</ele>
        <time>2015-08-16T19:43:25.80Z</time>
      </trkpt>
      <trkpt lat="47.26885" lon="1.58428">
        <ele>78</ele>
        <time>2015-08-16T19:43:35.51Z</time>
      </trkpt>
      <trkpt lat="47.26878" lon="1.58465">
        <ele>78</ele>
        <time>2015-08-16T19:43:53.52Z</time>
      </trkpt>
      <trkpt lat="47.26863" lon="1.58542">
        <ele>78</ele>
        <time>2015-08-16T19:44:31.91Z</time>
      </trkpt>
      <trkpt lat="47.26836" lon="1.58658">
        <ele>78</ele>
        <time>2015-08-16T19:45:30.65Z</time>
      </trkpt>
      <trkpt lat="47.26803" lon="1.58806">
        <ele>79</ele>
        <time>2015-08-16T19:46:44.94Z</time>
      </trkpt>
      <trkpt lat="47.26784" lon="1.58898">
        <ele>79</ele>
        <time>2015-08-16T19:47:31.07Z</time>
      </trkpt>
      <trkpt lat="47.26775" lon="1.58943">
        <ele>79</ele>
        <time>2015-08-16T19:47:53.43Z</time>
      </trkpt>
      <trkpt lat="47.26743" lon="1.59096">
        <ele>79</ele>
        <time>2015-08-16T19:49:09.67Z</time>
      </trkpt>
      <trkpt lat="47.26722" lon="1.59201">
        <ele>79</ele>
        <time>2015-08-16T19:50:02.13Z</time>
      </trkpt>
      <trkpt lat="47.26718" lon="1.59222">
        <ele>79</ele>
        <time>2015-08-16T19:50:12.82Z</time>
      </trkpt>
      <trkpt lat="47.26711" lon="1.59242">
        <ele>79</ele>
        <time>2015-08-16T19:50:23.10Z</time>
      </trkpt>
      <trkpt lat="47.26694" lon="1.59298">
        <ele>79</ele>
        <time>2015-08-16T19:50:52.37Z</time>
      </trkpt>
      <trkpt lat="47.2669" lon="1.5931">
        <ele>79</ele>
        <time>2015-08-16T19:50:59.22Z</time>
      </trkpt>
      <trkpt lat="47.2669" lon="1.59315">
        <ele>79</ele>
        <time>2015-08-16T19:51:01.27Z</time>
      </trkpt>
      <trkpt lat="47.26687" lon="1.59334">
        <ele>79</ele>
        <time>2015-08-16T19:51:10.62Z</time>
      </trkpt>
      <trkpt lat="47.26687" lon="1.59358">
        <ele>79</ele>
        <time>2015-08-16T19:51:21.90Z</time>
      </trkpt>
      <trkpt lat="47.26687" lon="1.59375">
        <ele>79</ele>
        <time>2015-08-16T19:51:30.10Z</time>
      </trkpt>
      <trkpt lat="47.26687" lon="1.59385">
        <ele>79</ele>
        <time>2015-08-16T19:51:35.23Z</time>
      </trkpt>
      <trkpt lat="47.2669" lon="1.59398">
        <ele>79</ele>
        <time>2015-08-16T19:51:41.56Z</time>
      </trkpt>
      <trkpt lat="47.26692" lon="1.5942">
        <ele>79</ele>
        <time>2015-08-16T19:51:51.92Z</time>
      </trkpt>
      <trkpt lat="47.26705" lon="1.59473">
        <ele>79</ele>
        <time>2015-08-16T19:52:19.11Z</time>
      </trkpt>
      <trkpt lat="47.26711" lon="1.59508">
        <ele>78.79</ele>
        <time>2015-08-16T19:52:36.13Z</time>
      </trkpt>
      <trkpt lat="47.26715" lon="1.5954">
        <ele>78.04</ele>
        <time>2015-08-16T19:52:51.80Z</time>
      </trkpt>
      <trkpt lat="47.26718" lon="1.59559">
        <ele>78</ele>
        <time>2015-08-16T19:53:01.15Z</time>
      </trkpt>
      <trkpt lat="47.26722" lon="1.59609">
        <ele>78</ele>
        <time>2015-08-16T19:53:24.93Z</time>
      </trkpt>
      <trkpt lat="47.26724" lon="1.5963">
        <ele>78</ele>
        <time>2015-08-16T19:53:35.29Z</time>
      </trkpt>
      <trkpt lat="47.26728" lon="1.59701">
        <ele>78</ele>
        <time>2015-08-16T19:54:09.26Z</time>
      </trkpt>
      <trkpt lat="47.2673" lon="1.59759">
        <ele>78</ele>
        <time>2015-08-16T19:54:36.98Z</time>
      </trkpt>
      <trkpt lat="47.2673" lon="1.5981">
        <ele>78</ele>
        <time>2015-08-16T19:55:01.58Z</time>
      </trkpt>
      <trkpt lat="47.26733" lon="1.5987">
        <ele>78.95</ele>
        <time>2015-08-16T19:55:30.33Z</time>
      </trkpt>
      <trkpt lat="47.26733" lon="1.60059">
        <ele>79</ele>
        <time>2015-08-16T19:57:00.55Z</time>
      </trkpt>
      <trkpt lat="47.26733" lon="1.60079">
        <ele>79</ele>
        <time>2015-08-16T19:57:09.78Z</time>
      </trkpt>
      <trkpt lat="47.26733" lon="1.60096">
        <ele>79</ele>
        <time>2015-08-16T19:57:17.98Z</time>
      </trkpt>
      <trkpt lat="47.2673" lon="1.60121">
        <ele>79</ele>
        <time>2015-08-16T19:57:30.38Z</time>
      </trkpt>
      <trkpt lat="47.26724" lon="1.60233">
        <ele>79</ele>
        <time>2015-08-16T19:58:23.88Z</time>
      </trkpt>
      <trkpt lat="47.26724" lon="1.60259">
        <ele>79.83</ele>
        <time>2015-08-16T19:58:36.18Z</time>
      </trkpt>
      <trkpt lat="47.26722" lon="1.60276">
        <ele>80</ele>
        <time>2015-08-16T19:58:44.52Z</time>
      </trkpt>
      <trkpt lat="47.26722" lon="1.6031">
        <ele>80</ele>
        <time>2015-08-16T19:59:00.93Z</time>
      </trkpt>
      <trkpt lat="47.26722" lon="1.60347">
        <ele>80</ele>
        <time>2015-08-16T19:59:18.36Z</time>
      </trkpt>
      <trkpt lat="47.26722" lon="1.60373">
        <ele>80</ele>
        <time>2015-08-16T19:59:30.66Z</time>
      </trkpt>
      <trkpt lat="47.26722" lon="1.60394">
        <ele>80.7</ele>
        <time>2015-08-16T19:59:40.91Z</time>
      </trkpt>
      <trkpt lat="47.26724" lon="1.60415">
        <ele>81</ele>
        <time>2015-08-16T19:59:51.27Z</time>
      </trkpt>
      <trkpt lat="47.2673" lon="1.60495">
        <ele>81</ele>
        <time>2015-08-16T20:00:29.48Z</time>
      </trkpt>
      <trkpt lat="47.2673" lon="1.60523">
        <ele>81</ele>
        <time>2015-08-16T20:00:42.81Z</time>
      </trkpt>
      <trkpt lat="47.26733" lon="1.60538">
        <ele>81</ele>
        <time>2015-08-16T20:00:50.14Z</time>
      </trkpt>
      <trkpt lat="47.26733" lon="1.6057">
        <ele>81</ele>
        <time>2015-08-16T20:01:05.52Z</time>
      </trkpt>
      <trkpt lat="47.26733" lon="1.60585">
        <ele>81</ele>
        <time>2015-08-16T20:01:12.70Z</time>
      </trkpt>
      <trkpt lat="47.26733" lon="1.60609">
        <ele>81</ele>
        <time>2015-08-16T20:01:23.97Z</time>
      </trkpt>
      <trkpt lat="47.2673" lon="1.60701">
        <ele>81</ele>
        <time>2015-08-16T20:02:08.08Z</time>
      </trkpt>
      <trkpt lat="47.2673" lon="1.60735">
        <ele>81</ele>
        <time>2015-08-16T20:02:24.49Z</time>
      </trkpt>
      <trkpt lat="47.26729" lon="1.6091">
        <ele>81</ele>
        <time>2015-08-16T20:03:48.14Z</time>
      </trkpt>
      <trkpt lat="47.26728" lon="1.60997">
        <ele>80.58</ele>
        <time>2015-08-16T20:04:29.58Z</time>
      </trkpt>
      <trkpt lat="47.26726" lon="1.61059">
        <ele>80</ele>
        <time>2015-08-16T20:04:59.35Z</time>
      </trkpt>
      <trkpt lat="47.26726" lon="1.61089">
        <ele>80</ele>
        <time>2015-08-16T20:05:13.70Z</time>
      </trkpt>
      <trkpt lat="47.26726" lon="1.61104">
        <ele>80</ele>
        <time>2015-08-16T20:05:20.88Z</time>
      </trkpt>
      <trkpt lat="47.26726" lon="1.61121">
        <ele>80</ele>
        <time>2015-08-16T20:05:29.08Z</time>
      </trkpt>
      <trkpt lat="47.26726" lon="1.61136">
        <ele>80</ele>
        <time>2015-08-16T20:05:36.26Z</time>
      </trkpt>
      <trkpt lat="47.26726" lon="1.61147">
        <ele>80</ele>
        <time>2015-08-16T20:05:41.38Z</time>
      </trkpt>
      <trkpt lat="47.26724" lon="1.61164">
        <ele>80</ele>
        <time>2015-08-16T20:05:49.72Z</time>
      </trkpt>
      <trkpt lat="47.26722" lon="1.61186">
        <ele>80</ele>
        <time>2015-08-16T20:06:00.08Z</time>
      </trkpt>
      <trkpt lat="47.26709" lon="1.61282">
        <ele>80</ele>
        <time>2015-08-16T20:06:47.10Z</time>
      </trkpt>
      <trkpt lat="47.26707" lon="1.613">
        <ele>80</ele>
        <time>2015-08-16T20:06:55.44Z</time>
      </trkpt>
      <trkpt lat="47.26705" lon="1.6131">
        <ele>80</ele>
        <time>2015-08-16T20:07:00.79Z</time>
      </trkpt>
      <trkpt lat="47.26703" lon="1.61321">
        <ele>80</ele>
        <time>2015-08-16T20:07:06.13Z</time>
      </trkpt>
      <trkpt lat="47.26698" lon="1.61336">
        <ele>80</ele>
        <time>2015-08-16T20:07:13.92Z</time>
      </trkpt>
      <trkpt lat="47.26668" lon="1.61418">
        <ele>80</ele>
        <time>2015-08-16T20:07:58.25Z</time>
      </trkpt>
      <trkpt lat="47.26636" lon="1.61512">
        <ele>79.57</ele>
        <time>2015-08-16T20:08:48.73Z</time>
      </trkpt>
      <trkpt lat="47.26619" lon="1.61561">
        <ele>79</ele>
        <time>2015-08-16T20:09:15.23Z</time>
      </trkpt>
      <trkpt lat="47.26593" lon="1.61634">
        <ele>79.02</ele>
        <time>2015-08-16T20:09:54.52Z</time>
      </trkpt>
      <trkpt lat="47.26587" lon="1.61651">
        <ele>79</ele>
        <time>2015-08-16T20:10:03.89Z</time>
      </trkpt>
      <trkpt lat="47.26574" lon="1.61686">
        <ele>79</ele>
        <time>2015-08-16T20:10:22.64Z</time>
      </trkpt>
      <trkpt lat="47.26572" lon="1.61696">
        <ele>79</ele>
        <time>2015-08-16T20:10:27.98Z</time>
      </trkpt>
      <trkpt lat="47.26567" lon="1.61705">
        <ele>79</ele>
        <time>2015-08-16T20:10:33.07Z</time>
      </trkpt>
      <trkpt lat="47.26563" lon="1.61714">
        <ele>79</ele>
        <time>2015-08-16T20:10:38.17Z</time>
      </trkpt>
      <trkpt lat="47.26559" lon="1.6172">
        <ele>79</ele>
        <time>2015-08-16T20:10:42.48Z</time>
      </trkpt>
      <trkpt lat="47.26552" lon="1.61727">
        <ele>79</ele>
        <time>2015-08-16T20:10:47.96Z</time>
      </trkpt>
      <trkpt lat="47.26484" lon="1.61821">
        <ele>78</ele>
        <time>2015-08-16T20:11:54.08Z</time>
      </trkpt>
      <trkpt lat="47.26419" lon="1.61913">
        <ele>78</ele>
        <time>2015-08-16T20:12:57.31Z</time>
      </trkpt>
      <trkpt lat="47.26411" lon="1.61928">
        <ele>78</ele>
        <time>2015-08-16T20:13:06.70Z</time>
      </trkpt>
      <trkpt lat="47.26406" lon="1.61937">
        <ele>78</ele>
        <time>2015-08-16T20:13:11.79Z</time>
      </trkpt>
      <trkpt lat="47.26402" lon="1.61952">
        <ele>78</ele>
        <time>2015-08-16T20:13:19.58Z</time>
      </trkpt>
      <trkpt lat="47.264" lon="1.61958">
        <ele>78</ele>
        <time>2015-08-16T20:13:23.01Z</time>
      </trkpt>
      <trkpt lat="47.264" lon="1.61967">
        <ele>78</ele>
        <time>2015-08-16T20:13:27.11Z</time>
      </trkpt>
      <trkpt lat="47.26398" lon="1.61975">
        <ele>78</ele>
        <time>2015-08-16T20:13:31.48Z</time>
      </trkpt>
      <trkpt lat="47.26398" lon="1.61993">
        <ele>78</ele>
        <time>2015-08-16T20:13:39.68Z</time>
      </trkpt>
      <trkpt lat="47.264" lon="1.62001">
        <ele>78</ele>
        <time>2015-08-16T20:13:44.05Z</time>
      </trkpt>
      <trkpt lat="47.26404" lon="1.62081">
        <ele>78</ele>
        <time>2015-08-16T20:14:22.11Z</time>
      </trkpt>
      <trkpt lat="47.26409" lon="1.62151">
        <ele>78</ele>
        <time>2015-08-16T20:14:56.08Z</time>
      </trkpt>
      <trkpt lat="47.26411" lon="1.62214">
        <ele>78</ele>
        <time>2015-08-16T20:15:25.85Z</time>
      </trkpt>
      <trkpt lat="47.26413" lon="1.62244">
        <ele>78</ele>
        <time>2015-08-16T20:15:40.28Z</time>
      </trkpt>
      <trkpt lat="47.26413" lon="1.62261">
        <ele>78</ele>
        <time>2015-08-16T20:15:48.48Z</time>
      </trkpt>
      <trkpt lat="47.26413" lon="1.62282">
        <ele>78</ele>
        <time>2015-08-16T20:15:58.74Z</time>
      </trkpt>
      <trkpt lat="47.26413" lon="1.62295">
        <ele>78</ele>
        <time>2015-08-16T20:16:04.89Z</time>
      </trkpt>
      <trkpt lat="47.26413" lon="1.62312">
        <ele>78</ele>
        <time>2015-08-16T20:16:13.09Z</time>
      </trkpt>
      <trkpt lat="47.26413" lon="1.62327">
        <ele>78</ele>
        <time>2015-08-16T20:16:20.27Z</time>
      </trkpt>
      <trkpt lat="47.26411" lon="1.62353">
        <ele>78</ele>
        <time>2015-08-16T20:16:32.66Z</time>
      </trkpt>
      <trkpt lat="47.26409" lon="1.62424">
        <ele>78</ele>
        <time>2015-08-16T20:17:06.53Z</time>
      </trkpt>
      <trkpt lat="47.26409" lon="1.62448">
        <ele>78</ele>
        <time>2015-08-16T20:17:17.81Z</time>
      </trkpt>
      <trkpt lat="47.26409" lon="1.62461">
        <ele>78</ele>
        <time>2015-08-16T20:17:24.17Z</time>
      </trkpt>
      <trkpt lat="47.26411" lon="1.62473">
        <ele>78</ele>
        <time>2015-08-16T20:17:30.29Z</time>
      </trkpt>
      <trkpt lat="47.26411" lon="1.62486">
        <ele>78</ele>
        <time>2015-08-16T20:17:36.44Z</time>
      </trkpt>
      <trkpt lat="47.26413" lon="1.62499">
        <ele>78</ele>
        <time>2015-08-16T20:17:42.78Z</time>
      </trkpt>
      <trkpt lat="47.26417" lon="1.62531">
        <ele>78</ele>
        <time>2015-08-16T20:17:58.45Z</time>
      </trkpt>
      <trkpt lat="47.26421" lon="1.6255">
        <ele>78</ele>
        <time>2015-08-16T20:18:08.16Z</time>
      </trkpt>
      <trkpt lat="47.26424" lon="1.62568">
        <ele>78</ele>
        <time>2015-08-16T20:18:16.50Z</time>
      </trkpt>
      <trkpt lat="47.26424" lon="1.62576">
        <ele>78</ele>
        <time>2015-08-16T20:18:20.60Z</time>
      </trkpt>
      <trkpt lat="47.26426" lon="1.62585">
        <ele>78</ele>
        <time>2015-08-16T20:18:24.98Z</time>
      </trkpt>
      <trkpt lat="47.26426" lon="1.626">
        <ele>78</ele>
        <time>2015-08-16T20:18:32.15Z</time>
      </trkpt>
      <trkpt lat="47.26426" lon="1.62613">
        <ele>78</ele>
        <time>2015-08-16T20:18:38.30Z</time>
      </trkpt>
      <trkpt lat="47.26426" lon="1.62626">
        <ele>78</ele>
        <time>2015-08-16T20:18:44.46Z</time>
      </trkpt>
      <trkpt lat="47.26426" lon="1.62641">
        <ele>78</ele>
        <time>2015-08-16T20:18:51.63Z</time>
      </trkpt>
      <trkpt lat="47.26424" lon="1.62653">
        <ele>78</ele>
        <time>2015-08-16T20:18:57.97Z</time>
      </trkpt>
      <trkpt lat="47.26421" lon="1.62669">
        <ele>78</ele>
        <time>2015-08-16T20:19:05.30Z</time>
      </trkpt>
      <trkpt lat="47.26419" lon="1.62692">
        <ele>78</ele>
        <time>2015-08-16T20:19:16.68Z</time>
      </trkpt>
      <trkpt lat="47.26411" lon="1.62731">
        <ele>78</ele>
        <time>2015-08-16T20:19:36.10Z</time>
      </trkpt>
      <trkpt lat="47.26404" lon="1.62774">
        <ele>78</ele>
        <time>2015-08-16T20:19:57.10Z</time>
      </trkpt>
      <trkpt lat="47.264" lon="1.62791">
        <ele>78</ele>
        <time>2015-08-16T20:20:05.84Z</time>
      </trkpt>
      <trkpt lat="47.26398" lon="1.62806">
        <ele>78</ele>
        <time>2015-08-16T20:20:13.18Z</time>
      </trkpt>
      <trkpt lat="47.26391" lon="1.62821">
        <ele>78</ele>
        <time>2015-08-16T20:20:21.67Z</time>
      </trkpt>
      <trkpt lat="47.26387" lon="1.62842">
        <ele>78</ele>
        <time>2015-08-16T20:20:32.35Z</time>
      </trkpt>
      <trkpt lat="47.26376" lon="1.62883">
        <ele>78</ele>
        <time>2015-08-16T20:20:53.25Z</time>
      </trkpt>
      <trkpt lat="47.26372" lon="1.62898">
        <ele>78</ele>
        <time>2015-08-16T20:21:01.04Z</time>
      </trkpt>
      <trkpt lat="47.2637" lon="1.62902">
        <ele>78</ele>
        <time>2015-08-16T20:21:03.58Z</time>
      </trkpt>
      <trkpt lat="47.26366" lon="1.62917">
        <ele>78</ele>
        <time>2015-08-16T20:21:11.37Z</time>
      </trkpt>
      <trkpt lat="47.26357" lon="1.62937">
        <ele>78</ele>
        <time>2015-08-16T20:21:22.40Z</time>
      </trkpt>
      <trkpt lat="47.26348" lon="1.62956">
        <ele>78</ele>
        <time>2015-08-16T20:21:33.43Z</time>
      </trkpt>
      <trkpt lat="47.2631" lon="1.63038">
        <ele>78</ele>
        <time>2015-08-16T20:22:20.95Z</time>
      </trkpt>
      <trkpt lat="47.26301" lon="1.63057">
        <ele>78</ele>
        <time>2015-08-16T20:22:31.98Z</time>
      </trkpt>
      <trkpt lat="47.26297" lon="1.63068">
        <ele>78</ele>
        <time>2015-08-16T20:22:37.93Z</time>
      </trkpt>
      <trkpt lat="47.26293" lon="1.63081">
        <ele>78</ele>
        <time>2015-08-16T20:22:44.78Z</time>
      </trkpt>
      <trkpt lat="47.2626" lon="1.63205">
        <ele>78.96</ele>
        <time>2015-08-16T20:23:48.42Z</time>
      </trkpt>
      <trkpt lat="47.26254" lon="1.63231">
        <ele>79</ele>
        <time>2015-08-16T20:24:01.54Z</time>
      </trkpt>
      <trkpt lat="47.2625" lon="1.63244">
        <ele>79</ele>
        <time>2015-08-16T20:24:08.39Z</time>
      </trkpt>
      <trkpt lat="47.26245" lon="1.63256">
        <ele>79</ele>
        <time>2015-08-16T20:24:15.24Z</time>
      </trkpt>
      <trkpt lat="47.26243" lon="1.63269">
        <ele>79</ele>
        <time>2015-08-16T20:24:21.58Z</time>
      </trkpt>
      <trkpt lat="47.26239" lon="1.63278">
        <ele>79</ele>
        <time>2015-08-16T20:24:26.67Z</time>
      </trkpt>
      <trkpt lat="47.26233" lon="1.63295">
        <ele>79</ele>
        <time>2015-08-16T20:24:36.04Z</time>
      </trkpt>
      <trkpt lat="47.26228" lon="1.63306">
        <ele>79</ele>
        <time>2015-08-16T20:24:42Z</time>
      </trkpt>
      <trkpt lat="47.26222" lon="1.63317">
        <ele>79</ele>
        <time>2015-08-16T20:24:48.84Z</time>
      </trkpt>
      <trkpt lat="47.26218" lon="1.63327">
        <ele>79</ele>
        <time>2015-08-16T20:24:54.79Z</time>
      </trkpt>
      <trkpt lat="47.26209" lon="1.63342">
        <ele>79</ele>
        <time>2015-08-16T20:25:04.17Z</time>
      </trkpt>
      <trkpt lat="47.26194" lon="1.6337">
        <ele>79</ele>
        <time>2015-08-16T20:25:21.19Z</time>
      </trkpt>
      <trkpt lat="47.26153" lon="1.63447">
        <ele>79</ele>
        <time>2015-08-16T20:26:07.95Z</time>
      </trkpt>
      <trkpt lat="47.26142" lon="1.63467">
        <ele>79</ele>
        <time>2015-08-16T20:26:19.87Z</time>
      </trkpt>
      <trkpt lat="47.26136" lon="1.63477">
        <ele>79</ele>
        <time>2015-08-16T20:26:26.72Z</time>
      </trkpt>
      <trkpt lat="47.26132" lon="1.63488">
        <ele>79</ele>
        <time>2015-08-16T20:26:32.67Z</time>
      </trkpt>
      <trkpt lat="47.26127" lon="1.63497">
        <ele>79</ele>
        <time>2015-08-16T20:26:37.76Z</time>
      </trkpt>
      <trkpt lat="47.26123" lon="1.63508">
        <ele>79</ele>
        <time>2015-08-16T20:26:43.71Z</time>
      </trkpt>
      <trkpt lat="47.26121" lon="1.6352">
        <ele>79</ele>
        <time>2015-08-16T20:26:50.05Z</time>
      </trkpt>
      <trkpt lat="47.26119" lon="1.63531">
        <ele>79</ele>
        <time>2015-08-16T20:26:55.39Z</time>
      </trkpt>
      <trkpt lat="47.26112" lon="1.63555">
        <ele>79</ele>
        <time>2015-08-16T20:27:07.55Z</time>
      </trkpt>
      <trkpt lat="47.2611" lon="1.63565">
        <ele>79</ele>
        <time>2015-08-16T20:27:12.89Z</time>
      </trkpt>
      <trkpt lat="47.2611" lon="1.6357">
        <ele>79</ele>
        <time>2015-08-16T20:27:14.94Z</time>
      </trkpt>
      <trkpt lat="47.26108" lon="1.63585">
        <ele>79</ele>
        <time>2015-08-16T20:27:22.28Z</time>
      </trkpt>
      <trkpt lat="47.26097" lon="1.63711">
        <ele>79</ele>
        <time>2015-08-16T20:28:23.25Z</time>
      </trkpt>
      <trkpt lat="47.26093" lon="1.63744">
        <ele>79</ele>
        <time>2015-08-16T20:28:38.92Z</time>
      </trkpt>
      <trkpt lat="47.26091" lon="1.63765">
        <ele>79</ele>
        <time>2015-08-16T20:28:49.28Z</time>
      </trkpt>
      <trkpt lat="47.26089" lon="1.63812">
        <ele>79</ele>
        <time>2015-08-16T20:29:11.89Z</time>
      </trkpt>
      <trkpt lat="47.2608" lon="1.63902">
        <ele>79</ele>
        <time>2015-08-16T20:29:55.38Z</time>
      </trkpt>
      <trkpt lat="47.26076" lon="1.63958">
        <ele>79</ele>
        <time>2015-08-16T20:30:22.21Z</time>
      </trkpt>
      <trkpt lat="47.26074" lon="1.63986">
        <ele>79</ele>
        <time>2015-08-16T20:30:35.63Z</time>
      </trkpt>
      <trkpt lat="47.26072" lon="1.64005">
        <ele>79</ele>
        <time>2015-08-16T20:30:44.98Z</time>
      </trkpt>
      <trkpt lat="47.2607" lon="1.6402">
        <ele>79.05</ele>
        <time>2015-08-16T20:30:52.31Z</time>
      </trkpt>
      <trkpt lat="47.26067" lon="1.64033">
        <ele>79.07</ele>
        <time>2015-08-16T20:30:58.65Z</time>
      </trkpt>
      <trkpt lat="47.26061" lon="1.64057">
        <ele>79.55</ele>
        <time>2015-08-16T20:31:10.80Z</time>
      </trkpt>
      <trkpt lat="47.26054" lon="1.64085">
        <ele>79.63</ele>
        <time>2015-08-16T20:31:24.88Z</time>
      </trkpt>
      <trkpt lat="47.26052" lon="1.64094">
        <ele>79.52</ele>
        <time>2015-08-16T20:31:29.84Z</time>
      </trkpt>
      <trkpt lat="47.26052" lon="1.64094">
        <ele>79.52</ele>
        <time>2015-08-16T20:31:30.48Z</time>
      </trkpt>
      <trkpt lat="47.26048" lon="1.64106">
        <ele>79.39</ele>
        <time>2015-08-16T20:31:36.73Z</time>
      </trkpt>
      <trkpt lat="47.26046" lon="1.64119">
        <ele>79.31</ele>
        <time>2015-08-16T20:31:43.06Z</time>
      </trkpt>
      <trkpt lat="47.26042" lon="1.64145">
        <ele>79.16</ele>
        <time>2015-08-16T20:31:55.73Z</time>
      </trkpt>
      <trkpt lat="47.26031" lon="1.64211">
        <ele>80</ele>
        <time>2015-08-16T20:32:28.40Z</time>
      </trkpt>
      <trkpt lat="47.26031" lon="1.64222">
        <ele>80</ele>
        <time>2015-08-16T20:32:33.53Z</time>
      </trkpt>
      <trkpt lat="47.2602" lon="1.64276">
        <ele>80.71</ele>
        <time>2015-08-16T20:33:00.25Z</time>
      </trkpt>
      <trkpt lat="47.26014" lon="1.64321">
        <ele>81.28</ele>
        <time>2015-08-16T20:33:22.26Z</time>
      </trkpt>
      <trkpt lat="47.26005" lon="1.64353">
        <ele>81.84</ele>
        <time>2015-08-16T20:33:38.78Z</time>
      </trkpt>
      <trkpt lat="47.26001" lon="1.6437">
        <ele>81.69</ele>
        <time>2015-08-16T20:33:47.53Z</time>
      </trkpt>
      <trkpt lat="47.25997" lon="1.64385">
        <ele>81.54</ele>
        <time>2015-08-16T20:33:55.31Z</time>
      </trkpt>
      <trkpt lat="47.25964" lon="1.64477">
        <ele>82</ele>
        <time>2015-08-16T20:34:44.89Z</time>
      </trkpt>
      <trkpt lat="47.25939" lon="1.64546">
        <ele>82</ele>
        <time>2015-08-16T20:35:22.38Z</time>
      </trkpt>
      <trkpt lat="47.25919" lon="1.64602">
        <ele>82</ele>
        <time>2015-08-16T20:35:52.30Z</time>
      </trkpt>
      <trkpt lat="47.25911" lon="1.64619">
        <ele>82</ele>
        <time>2015-08-16T20:36:02.49Z</time>
      </trkpt>
      <trkpt lat="47.25904" lon="1.64632">
        <ele>82</ele>
        <time>2015-08-16T20:36:10.13Z</time>
      </trkpt>
      <trkpt lat="47.25872" lon="1.64681">
        <ele>82</ele>
        <time>2015-08-16T20:36:42.84Z</time>
      </trkpt>
      <trkpt lat="47.25853" lon="1.64711">
        <ele>82</ele>
        <time>2015-08-16T20:37:02.62Z</time>
      </trkpt>
      <trkpt lat="47.25846" lon="1.6472">
        <ele>82</ele>
        <time>2015-08-16T20:37:08.73Z</time>
      </trkpt>
      <trkpt lat="47.2584" lon="1.64726">
        <ele>82</ele>
        <time>2015-08-16T20:37:14.21Z</time>
      </trkpt>
      <trkpt lat="47.25825" lon="1.64741">
        <ele>82</ele>
        <time>2015-08-16T20:37:26.99Z</time>
      </trkpt>
      <trkpt lat="47.25818" lon="1.64746">
        <ele>82</ele>
        <time>2015-08-16T20:37:31.96Z</time>
      </trkpt>
      <trkpt lat="47.25812" lon="1.6475">
        <ele>82</ele>
        <time>2015-08-16T20:37:36.94Z</time>
      </trkpt>
      <trkpt lat="47.25806" lon="1.64754">
        <ele>82</ele>
        <time>2015-08-16T20:37:41.91Z</time>
      </trkpt>
      <trkpt lat="47.25801" lon="1.64758">
        <ele>82</ele>
        <time>2015-08-16T20:37:45.57Z</time>
      </trkpt>
      <trkpt lat="47.25797" lon="1.64763">
        <ele>82</ele>
        <time>2015-08-16T20:37:49.22Z</time>
      </trkpt>
      <trkpt lat="47.25788" lon="1.64776">
        <ele>82</ele>
        <time>2015-08-16T20:37:57.84Z</time>
      </trkpt>
      <trkpt lat="47.25765" lon="1.64814">
        <ele>82</ele>
        <time>2015-08-16T20:38:22.68Z</time>
      </trkpt>
      <trkpt lat="47.25754" lon="1.64834">
        <ele>82</ele>
        <time>2015-08-16T20:38:34.61Z</time>
      </trkpt>
      <trkpt lat="47.25728" lon="1.6487">
        <ele>82.13</ele>
        <time>2015-08-16T20:38:59.76Z</time>
      </trkpt>
      <trkpt lat="47.25724" lon="1.64877">
        <ele>82.28</ele>
        <time>2015-08-16T20:39:04.07Z</time>
      </trkpt>
      <trkpt lat="47.2572" lon="1.64881">
        <ele>82.43</ele>
        <time>2015-08-16T20:39:07.72Z</time>
      </trkpt>
      <trkpt lat="47.25718" lon="1.64892">
        <ele>82.51</ele>
        <time>2015-08-16T20:39:13.07Z</time>
      </trkpt>
      <trkpt lat="47.25715" lon="1.64907">
        <ele>82.59</ele>
        <time>2015-08-16T20:39:20.40Z</time>
      </trkpt>
      <trkpt lat="47.25713" lon="1.64932">
        <ele>82.67</ele>
        <time>2015-08-16T20:39:32.80Z</time>
      </trkpt>
      <trkpt lat="47.25711" lon="1.64954">
        <ele>82.74</ele>
        <time>2015-08-16T20:39:43.16Z</time>
      </trkpt>
      <trkpt lat="47.25707" lon="1.65014">
        <ele>82</ele>
        <time>2015-08-16T20:40:12.04Z</time>
      </trkpt>
      <trkpt lat="47.25705" lon="1.65035">
        <ele>82</ele>
        <time>2015-08-16T20:40:22.40Z</time>
      </trkpt>
      <trkpt lat="47.25703" lon="1.6505">
        <ele>82.05</ele>
        <time>2015-08-16T20:40:29.74Z</time>
      </trkpt>
      <trkpt lat="47.257" lon="1.65063">
        <ele>82.13</ele>
        <time>2015-08-16T20:40:36.07Z</time>
      </trkpt>
      <trkpt lat="47.25698" lon="1.65072">
        <ele>82.21</ele>
        <time>2015-08-16T20:40:40.44Z</time>
      </trkpt>
      <trkpt lat="47.25696" lon="1.65083">
        <ele>82.29</ele>
        <time>2015-08-16T20:40:45.79Z</time>
      </trkpt>
      <trkpt lat="47.25692" lon="1.65091">
        <ele>82.44</ele>
        <time>2015-08-16T20:40:50.88Z</time>
      </trkpt>
      <trkpt lat="47.25688" lon="1.65102">
        <ele>82.59</ele>
        <time>2015-08-16T20:40:56.83Z</time>
      </trkpt>
      <trkpt lat="47.25685" lon="1.65106">
        <ele>82.67</ele>
        <time>2015-08-16T20:40:59.38Z</time>
      </trkpt>
      <trkpt lat="47.25683" lon="1.65113">
        <ele>82.75</ele>
        <time>2015-08-16T20:41:02.81Z</time>
      </trkpt>
      <trkpt lat="47.25679" lon="1.65123">
        <ele>82.9</ele>
        <time>2015-08-16T20:41:08.76Z</time>
      </trkpt>
      <trkpt lat="47.25668" lon="1.6514">
        <ele>83</ele>
        <time>2015-08-16T20:41:19.91Z</time>
      </trkpt>
      <trkpt lat="47.2564" lon="1.65179">
        <ele>83</ele>
        <time>2015-08-16T20:41:46.86Z</time>
      </trkpt>
      <trkpt lat="47.25634" lon="1.65192">
        <ele>83</ele>
        <time>2015-08-16T20:41:54.51Z</time>
      </trkpt>
      <trkpt lat="47.2563" lon="1.65201">
        <ele>83</ele>
        <time>2015-08-16T20:41:59.60Z</time>
      </trkpt>
      <trkpt lat="47.25623" lon="1.65213">
        <ele>83</ele>
        <time>2015-08-16T20:42:07.24Z</time>
      </trkpt>
      <trkpt lat="47.25617" lon="1.65233">
        <ele>83</ele>
        <time>2015-08-16T20:42:17.53Z</time>
      </trkpt>
      <trkpt lat="47.25589" lon="1.65327">
        <ele>83</ele>
        <time>2015-08-16T20:43:06.73Z</time>
      </trkpt>
      <trkpt lat="47.25585" lon="1.65336">
        <ele>83</ele>
        <time>2015-08-16T20:43:11.83Z</time>
      </trkpt>
      <trkpt lat="47.25582" lon="1.65342">
        <ele>83</ele>
        <time>2015-08-16T20:43:15.26Z</time>
      </trkpt>
      <trkpt lat="47.25578" lon="1.65351">
        <ele>83</ele>
        <time>2015-08-16T20:43:20.35Z</time>
      </trkpt>
      <trkpt lat="47.2558" lon="1.65357">
        <ele>83</ele>
        <time>2015-08-16T20:43:23.78Z</time>
      </trkpt>
      <trkpt lat="47.25585" lon="1.65385">
        <ele>83</ele>
        <time>2015-08-16T20:43:37.45Z</time>
      </trkpt>
      <trkpt lat="47.25585" lon="1.65396">
        <ele>83</ele>
        <time>2015-08-16T20:43:42.58Z</time>
      </trkpt>
      <trkpt lat="47.25585" lon="1.65404">
        <ele>83</ele>
        <time>2015-08-16T20:43:46.68Z</time>
      </trkpt>
      <trkpt lat="47.25585" lon="1.65415">
        <ele>83</ele>
        <time>2015-08-16T20:43:51.80Z</time>
      </trkpt>
      <trkpt lat="47.25585" lon="1.6542">
        <ele>83</ele>
        <time>2015-08-16T20:43:54.31Z</time>
      </trkpt>
      <trkpt lat="47.25607" lon="1.65451">
        <ele>81.37</ele>
        <time>2015-08-16T20:44:16Z</time>
      </trkpt>
      <trkpt lat="47.2566" lon="1.65479">
        <ele>80.89</ele>
        <time>2015-08-16T20:44:31Z</time>
      </trkpt>
      <trkpt lat="47.2573" lon="1.65516">
        <ele>80.41</ele>
        <time>2015-08-16T20:44:49Z</time>
      </trkpt>
      <trkpt lat="47.25795" lon="1.6555">
        <ele>80.41</ele>
        <time>2015-08-16T20:45:05Z</time>
      </trkpt>
      <trkpt lat="47.25873" lon="1.65594">
        <ele>80.41</ele>
        <time>2015-08-16T20:45:24Z</time>
      </trkpt>
      <trkpt lat="47.25955" lon="1.65638">
        <ele>81.37</ele>
        <time>2015-08-16T20:45:42Z</time>
      </trkpt>
      <trkpt lat="47.25999" lon="1.65661">
        <ele>82.81</ele>
        <time>2015-08-16T20:45:55Z</time>
      </trkpt>
      <trkpt lat="47.26001" lon="1.65661">
        <ele>82.81</ele>
        <time>2015-08-16T20:45:56Z</time>
      </trkpt>
      <trkpt lat="47.26003" lon="1.65662">
        <ele>82.81</ele>
        <time>2015-08-16T20:45:57Z</time>
      </trkpt>
      <trkpt lat="47.26005" lon="1.65663">
        <ele>82.81</ele>
        <time>2015-08-16T20:46:06Z</time>
      </trkpt>
      <trkpt lat="47.26033" lon="1.6568">
        <ele>83.29</ele>
        <time>2015-08-16T20:46:20Z</time>
      </trkpt>
      <trkpt lat="47.26081" lon="1.65706">
        <ele>82.81</ele>
        <time>2015-08-16T20:46:37Z</time>
      </trkpt>
      <trkpt lat="47.26136" lon="1.65735">
        <ele>81.37</ele>
        <time>2015-08-16T20:46:55Z</time>
      </trkpt>
      <trkpt lat="47.26191" lon="1.65767">
        <ele>80.41</ele>
        <time>2015-08-16T20:47:13Z</time>
      </trkpt>
      <trkpt lat="47.26193" lon="1.65768">
        <ele>80.41</ele>
        <time>2015-08-16T20:47:14Z</time>
      </trkpt>
      <trkpt lat="47.26195" lon="1.65771">
        <ele>80.41</ele>
        <time>2015-08-16T20:47:15Z</time>
      </trkpt>
      <trkpt lat="47.26196" lon="1.65776">
        <ele>79.93</ele>
        <time>2015-08-16T20:47:17Z</time>
      </trkpt>
      <trkpt lat="47.26195" lon="1.65779">
        <ele>79.93</ele>
        <time>2015-08-16T20:47:18Z</time>
      </trkpt>
      <trkpt lat="47.26196" lon="1.6578">
        <ele>79.93</ele>
        <time>2015-08-16T20:47:25Z</time>
      </trkpt>
      <trkpt lat="47.26193" lon="1.6579">
        <ele>79.93</ele>
        <time>2015-08-16T20:47:36Z</time>
      </trkpt>
      <trkpt lat="47.26184" lon="1.65839">
        <ele>79.45</ele>
        <time>2015-08-16T20:47:48Z</time>
      </trkpt>
      <trkpt lat="47.26174" lon="1.65917">
        <ele>79.45</ele>
        <time>2015-08-16T20:48:03Z</time>
      </trkpt>
      <trkpt lat="47.2616" lon="1.65976">
        <ele>79.45</ele>
        <time>2015-08-16T20:48:16Z</time>
      </trkpt>
      <trkpt lat="47.26159" lon="1.66027">
        <ele>79.45</ele>
        <time>2015-08-16T20:48:28Z</time>
      </trkpt>
      <trkpt lat="47.26164" lon="1.66049">
        <ele>79.45</ele>
        <time>2015-08-16T20:48:40Z</time>
      </trkpt>
      <trkpt lat="47.26165" lon="1.66062">
        <ele>79.45</ele>
        <time>2015-08-16T20:48:50Z</time>
      </trkpt>
      <trkpt lat="47.26166" lon="1.66066">
        <ele>79.45</ele>
        <time>2015-08-16T20:48:51Z</time>
      </trkpt>
      <trkpt lat="47.26166" lon="1.6607">
        <ele>79.45</ele>
        <time>2015-08-16T20:48:52Z</time>
      </trkpt>
      <trkpt lat="47.26167" lon="1.66073">
        <ele>79.45</ele>
        <time>2015-08-16T20:48:53Z</time>
      </trkpt>
      <trkpt lat="47.26168" lon="1.66075">
        <ele>79.45</ele>
        <time>2015-08-16T20:48:54Z</time>
      </trkpt>
      <trkpt lat="47.26169" lon="1.66078">
        <ele>79.45</ele>
        <time>2015-08-16T20:48:55Z</time>
      </trkpt>
      <trkpt lat="47.26169" lon="1.6608">
        <ele>79.45</ele>
        <time>2015-08-16T20:48:56Z</time>
      </trkpt>
      <trkpt lat="47.26183" lon="1.66127">
        <ele>78.97</ele>
        <time>2015-08-16T20:49:08Z</time>
      </trkpt>
      <trkpt lat="47.26188" lon="1.66183">
        <ele>78.97</ele>
        <time>2015-08-16T20:49:22Z</time>
      </trkpt>
      <trkpt lat="47.26185" lon="1.66196">
        <ele>78.97</ele>
        <time>2015-08-16T20:49:37Z</time>
      </trkpt>
      <trkpt lat="47.2618" lon="1.66237">
        <ele>78.97</ele>
        <time>2015-08-16T20:49:47Z</time>
      </trkpt>
      <trkpt lat="47.26166" lon="1.66292">
        <ele>79.45</ele>
        <time>2015-08-16T20:50:00Z</time>
      </trkpt>
      <trkpt lat="47.26135" lon="1.66355">
        <ele>79.45</ele>
        <time>2015-08-16T20:50:15Z</time>
      </trkpt>
      <trkpt lat="47.26131" lon="1.6643">
        <ele>79.93</ele>
        <time>2015-08-16T20:50:28Z</time>
      </trkpt>
      <trkpt lat="47.26137" lon="1.66488">
        <ele>80.41</ele>
        <time>2015-08-16T20:50:38Z</time>
      </trkpt>
      <trkpt lat="47.26152" lon="1.66556">
        <ele>79.93</ele>
        <time>2015-08-16T20:50:51Z</time>
      </trkpt>
      <trkpt lat="47.2618" lon="1.66614">
        <ele>79.93</ele>
        <time>2015-08-16T20:51:04Z</time>
      </trkpt>
      <trkpt lat="47.26206" lon="1.66655">
        <ele>79.93</ele>
        <time>2015-08-16T20:51:16Z</time>
      </trkpt>
      <trkpt lat="47.26226" lon="1.66713">
        <ele>79.93</ele>
        <time>2015-08-16T20:51:28Z</time>
      </trkpt>
      <trkpt lat="47.26242" lon="1.66787">
        <ele>79.93</ele>
        <time>2015-08-16T20:51:43Z</time>
      </trkpt>
      <trkpt lat="47.26255" lon="1.66846">
        <ele>79.93</ele>
        <time>2015-08-16T20:51:56Z</time>
      </trkpt>
      <trkpt lat="47.26274" lon="1.66874">
        <ele>79.93</ele>
        <time>2015-08-16T20:52:07Z</time>
      </trkpt>
      <trkpt lat="47.26276" lon="1.66874">
        <ele>79.45</ele>
        <time>2015-08-16T20:52:08Z</time>
      </trkpt>
      <trkpt lat="47.2629" lon="1.66868">
        <ele>79.45</ele>
        <time>2015-08-16T20:52:13Z</time>
      </trkpt>
      <trkpt lat="47.26292" lon="1.66866">
        <ele>79.93</ele>
        <time>2015-08-16T20:52:14Z</time>
      </trkpt>
      <trkpt lat="47.26295" lon="1.66864">
        <ele>79.93</ele>
        <time>2015-08-16T20:52:15Z</time>
      </trkpt>
      <trkpt lat="47.26298" lon="1.66863">
        <ele>79.93</ele>
        <time>2015-08-16T20:52:16Z</time>
      </trkpt>
      <trkpt lat="47.26302" lon="1.66864">
        <ele>79.93</ele>
        <time>2015-08-16T20:52:17Z</time>
      </trkpt>
      <trkpt lat="47.26304" lon="1.66867">
        <ele>79.93</ele>
        <time>2015-08-16T20:52:18Z</time>
      </trkpt>
      <trkpt lat="47.26304" lon="1.66871">
        <ele>80.41</ele>
        <time>2015-08-16T20:52:19Z</time>
      </trkpt>
      <trkpt lat="47.26297" lon="1.66903">
        <ele>80.41</ele>
        <time>2015-08-16T20:52:26Z</time>
      </trkpt>
      <trkpt lat="47.26294" lon="1.67008">
        <ele>80.41</ele>
        <time>2015-08-16T20:52:45Z</time>
      </trkpt>
      <trkpt lat="47.26294" lon="1.67013">
        <ele>80.41</ele>
        <time>2015-08-16T20:52:46Z</time>
      </trkpt>
      <trkpt lat="47.26296" lon="1.67045">
        <ele>80.41</ele>
        <time>2015-08-16T20:52:51Z</time>
      </trkpt>
      <trkpt lat="47.263" lon="1.67148">
        <ele>82.81</ele>
        <time>2015-08-16T20:53:08Z</time>
      </trkpt>
      <trkpt lat="47.263" lon="1.67154">
        <ele>77.04</ele>
        <time>2015-08-16T20:53:09Z</time>
      </trkpt>
      <trkpt lat="47.26301" lon="1.67174">
        <ele>80.41</ele>
        <time>2015-08-16T20:53:12Z</time>
      </trkpt>
      <trkpt lat="47.2631" lon="1.67283">
        <ele>80.41</ele>
        <time>2015-08-16T20:53:29Z</time>
      </trkpt>
      <trkpt lat="47.2631" lon="1.67289">
        <ele>80.41</ele>
        <time>2015-08-16T20:53:30Z</time>
      </trkpt>
      <trkpt lat="47.26311" lon="1.67296">
        <ele>80.41</ele>
        <time>2015-08-16T20:53:31Z</time>
      </trkpt>
      <trkpt lat="47.26316" lon="1.67352">
        <ele>80.41</ele>
        <time>2015-08-16T20:53:40Z</time>
      </trkpt>
      <trkpt lat="47.2632" lon="1.67388">
        <ele>80.41</ele>
        <time>2015-08-16T20:53:46Z</time>
      </trkpt>
      <trkpt lat="47.26342" lon="1.67479">
        <ele>80.89</ele>
        <time>2015-08-16T20:54:01Z</time>
      </trkpt>
      <trkpt lat="47.26344" lon="1.67484">
        <ele>80.89</ele>
        <time>2015-08-16T20:54:02Z</time>
      </trkpt>
      <trkpt lat="47.26354" lon="1.67522">
        <ele>80.89</ele>
        <time>2015-08-16T20:54:09Z</time>
      </trkpt>
      <trkpt lat="47.26356" lon="1.67528">
        <ele>81.37</ele>
        <time>2015-08-16T20:54:10Z</time>
      </trkpt>
      <trkpt lat="47.26358" lon="1.67546">
        <ele>80.89</ele>
        <time>2015-08-16T20:54:13Z</time>
      </trkpt>
      <trkpt lat="47.2637" lon="1.67655">
        <ele>81.37</ele>
        <time>2015-08-16T20:54:32Z</time>
      </trkpt>
      <trkpt lat="47.26379" lon="1.67752">
        <ele>80.89</ele>
        <time>2015-08-16T20:54:50Z</time>
      </trkpt>
      <trkpt lat="47.2638" lon="1.67824">
        <ele>80.89</ele>
        <time>2015-08-16T20:55:04Z</time>
      </trkpt>
      <trkpt lat="47.26382" lon="1.67867">
        <ele>80.89</ele>
        <time>2015-08-16T20:55:16Z</time>
      </trkpt>
      <trkpt lat="47.26385" lon="1.67952">
        <ele>80.41</ele>
        <time>2015-08-16T20:55:32Z</time>
      </trkpt>
      <trkpt lat="47.26389" lon="1.68026">
        <ele>80.41</ele>
        <time>2015-08-16T20:55:46Z</time>
      </trkpt>
      <trkpt lat="47.26396" lon="1.68075">
        <ele>80.89</ele>
        <time>2015-08-16T20:55:58Z</time>
      </trkpt>
      <trkpt lat="47.26396" lon="1.68077">
        <ele>80.41</ele>
        <time>2015-08-16T20:55:59Z</time>
      </trkpt>
      <trkpt lat="47.26396" lon="1.68079">
        <ele>80.41</ele>
        <time>2015-08-16T20:56:00Z</time>
      </trkpt>
      <trkpt lat="47.26397" lon="1.68091">
        <ele>80.41</ele>
        <time>2015-08-16T20:56:07Z</time>
      </trkpt>
      <trkpt lat="47.26403" lon="1.68126">
        <ele>80.89</ele>
        <time>2015-08-16T20:56:20Z</time>
      </trkpt>
      <trkpt lat="47.26421" lon="1.68196">
        <ele>80.89</ele>
        <time>2015-08-16T20:56:34Z</time>
      </trkpt>
      <trkpt lat="47.2645" lon="1.68295">
        <ele>81.37</ele>
        <time>2015-08-16T20:56:51Z</time>
      </trkpt>
      <trkpt lat="47.26452" lon="1.683">
        <ele>81.37</ele>
        <time>2015-08-16T20:56:52Z</time>
      </trkpt>
      <trkpt lat="47.26455" lon="1.68305">
        <ele>81.37</ele>
        <time>2015-08-16T20:56:53Z</time>
      </trkpt>
      <trkpt lat="47.26457" lon="1.6831">
        <ele>81.37</ele>
        <time>2015-08-16T20:56:54Z</time>
      </trkpt>
      <trkpt lat="47.26459" lon="1.68315">
        <ele>81.37</ele>
        <time>2015-08-16T20:56:55Z</time>
      </trkpt>
      <trkpt lat="47.26496" lon="1.68387">
        <ele>81.37</ele>
        <time>2015-08-16T20:57:10Z</time>
      </trkpt>
      <trkpt lat="47.26524" lon="1.68464">
        <ele>81.37</ele>
        <time>2015-08-16T20:57:25Z</time>
      </trkpt>
      <trkpt lat="47.26554" lon="1.68553">
        <ele>81.85</ele>
        <time>2015-08-16T20:57:43Z</time>
      </trkpt>
      <trkpt lat="47.26573" lon="1.68614">
        <ele>81.37</ele>
        <time>2015-08-16T20:57:57Z</time>
      </trkpt>
      <trkpt lat="47.26589" lon="1.68662">
        <ele>81.85</ele>
        <time>2015-08-16T20:58:10Z</time>
      </trkpt>
      <trkpt lat="47.26616" lon="1.68732">
        <ele>81.85</ele>
        <time>2015-08-16T20:58:26Z</time>
      </trkpt>
      <trkpt lat="47.26618" lon="1.68736">
        <ele>81.85</ele>
        <time>2015-08-16T20:58:27Z</time>
      </trkpt>
      <trkpt lat="47.26621" lon="1.68741">
        <ele>81.85</ele>
        <time>2015-08-16T20:58:28Z</time>
      </trkpt>
      <trkpt lat="47.26638" lon="1.68778">
        <ele>81.85</ele>
        <time>2015-08-16T20:58:36Z</time>
      </trkpt>
      <trkpt lat="47.26667" lon="1.68821">
        <ele>81.37</ele>
        <time>2015-08-16T20:58:48Z</time>
      </trkpt>
      <trkpt lat="47.26688" lon="1.68908">
        <ele>81.37</ele>
        <time>2015-08-16T20:59:04Z</time>
      </trkpt>
      <trkpt lat="47.26706" lon="1.68998">
        <ele>81.37</ele>
        <time>2015-08-16T20:59:20Z</time>
      </trkpt>
      <trkpt lat="47.26713" lon="1.69038">
        <ele>81.37</ele>
        <time>2015-08-16T20:59:27Z</time>
      </trkpt>
      <trkpt lat="47.26722" lon="1.69094">
        <ele>82.81</ele>
        <time>2015-08-16T20:59:38Z</time>
      </trkpt>
      <trkpt lat="47.26731" lon="1.69146">
        <ele>81.85</ele>
        <time>2015-08-16T20:59:49Z</time>
      </trkpt>
      <trkpt lat="47.2675" lon="1.69209">
        <ele>81.85</ele>
        <time>2015-08-16T21:00:05Z</time>
      </trkpt>
      <trkpt lat="47.26776" lon="1.69284">
        <ele>81.85</ele>
        <time>2015-08-16T21:00:22Z</time>
      </trkpt>
      <trkpt lat="47.26803" lon="1.69339">
        <ele>81.37</ele>
        <time>2015-08-16T21:00:37Z</time>
      </trkpt>
      <trkpt lat="47.26806" lon="1.69344">
        <ele>81.85</ele>
        <time>2015-08-16T21:00:38Z</time>
      </trkpt>
      <trkpt lat="47.26808" lon="1.69346">
        <ele>81.85</ele>
        <time>2015-08-16T21:00:39Z</time>
      </trkpt>
      <trkpt lat="47.2681" lon="1.69347">
        <ele>81.37</ele>
        <time>2015-08-16T21:00:40Z</time>
      </trkpt>
      <trkpt lat="47.26812" lon="1.69348">
        <ele>81.85</ele>
        <time>2015-08-16T21:00:41Z</time>
      </trkpt>
      <trkpt lat="47.26825" lon="1.69357">
        <ele>81.37</ele>
        <time>2015-08-16T21:00:47Z</time>
      </trkpt>
      <trkpt lat="47.26827" lon="1.69359">
        <ele>81.37</ele>
        <time>2015-08-16T21:00:48Z</time>
      </trkpt>
      <trkpt lat="47.26828" lon="1.6936">
        <ele>81.37</ele>
        <time>2015-08-16T21:00:49Z</time>
      </trkpt>
      <trkpt lat="47.26829" lon="1.69362">
        <ele>81.37</ele>
        <time>2015-08-16T21:00:50Z</time>
      </trkpt>
      <trkpt lat="47.26831" lon="1.69364">
        <ele>81.37</ele>
        <time>2015-08-16T21:00:51Z</time>
      </trkpt>
      <trkpt lat="47.26834" lon="1.69367">
        <ele>81.37</ele>
        <time>2015-08-16T21:00:53Z</time>
      </trkpt>
      <trkpt lat="47.26835" lon="1.69369">
        <ele>81.37</ele>
        <time>2015-08-16T21:00:54Z</time>
      </trkpt>
      <trkpt lat="47.26836" lon="1.69371">
        <ele>81.37</ele>
        <time>2015-08-16T21:00:55Z</time>
      </trkpt>
      <trkpt lat="47.26837" lon="1.69372">
        <ele>81.37</ele>
        <time>2015-08-16T21:00:56Z</time>
      </trkpt>
      <trkpt lat="47.26838" lon="1.69373">
        <ele>82.33</ele>
        <time>2015-08-16T21:00:57Z</time>
      </trkpt>
      <trkpt lat="47.26841" lon="1.69375">
        <ele>80.89</ele>
        <time>2015-08-16T21:01:00Z</time>
      </trkpt>
      <trkpt lat="47.26841" lon="1.69377">
        <ele>80.89</ele>
        <time>2015-08-16T21:01:01Z</time>
      </trkpt>
      <trkpt lat="47.26841" lon="1.69379">
        <ele>80.89</ele>
        <time>2015-08-16T21:01:02Z</time>
      </trkpt>
      <trkpt lat="47.26844" lon="1.6938">
        <ele>80.89</ele>
        <time>2015-08-16T21:01:31Z</time>
      </trkpt>
      <trkpt lat="47.26845" lon="1.6938">
        <ele>80.89</ele>
        <time>2015-08-16T21:02:04Z</time>
      </trkpt>
      <trkpt lat="47.26845" lon="1.6938">
        <ele>80.89</ele>
        <time>2015-08-16T21:02:39Z</time>
      </trkpt>
      <trkpt lat="47.26844" lon="1.6938">
        <ele>80.41</ele>
        <time>2015-08-16T21:03:10Z</time>
      </trkpt>
      <trkpt lat="47.26842" lon="1.6938">
        <ele>81.37</ele>
        <time>2015-08-16T21:03:41Z</time>
      </trkpt>
      <trkpt lat="47.26844" lon="1.6938">
        <ele>79.93</ele>
        <time>2015-08-16T21:04:21Z</time>
      </trkpt>
      <trkpt lat="47.26846" lon="1.69392">
        <ele>80.41</ele>
        <time>2015-08-16T21:04:33Z</time>
      </trkpt>
      <trkpt lat="47.26847" lon="1.69394">
        <ele>79.93</ele>
        <time>2015-08-16T21:04:34Z</time>
      </trkpt>
      <trkpt lat="47.26846" lon="1.69429">
        <ele>79.93</ele>
        <time>2015-08-16T21:04:43Z</time>
      </trkpt>
      <trkpt lat="47.26849" lon="1.69497">
        <ele>79.93</ele>
        <time>2015-08-16T21:04:54Z</time>
      </trkpt>
      <trkpt lat="47.26849" lon="1.69509">
        <ele>79.93</ele>
        <time>2015-08-16T21:04:56Z</time>
      </trkpt>
      <trkpt lat="47.26854" lon="1.69566">
        <ele>80.41</ele>
        <time>2015-08-16T21:05:06Z</time>
      </trkpt>
      <trkpt lat="47.26858" lon="1.69588">
        <ele>80.41</ele>
        <time>2015-08-16T21:05:10Z</time>
      </trkpt>
      <trkpt lat="47.26859" lon="1.69594">
        <ele>80.41</ele>
        <time>2015-08-16T21:05:11Z</time>
      </trkpt>
      <trkpt lat="47.2686" lon="1.69599">
        <ele>80.41</ele>
        <time>2015-08-16T21:05:12Z</time>
      </trkpt>
      <trkpt lat="47.26861" lon="1.69605">
        <ele>80.41</ele>
        <time>2015-08-16T21:05:13Z</time>
      </trkpt>
      <trkpt lat="47.26862" lon="1.69612">
        <ele>80.41</ele>
        <time>2015-08-16T21:05:14Z</time>
      </trkpt>
      <trkpt lat="47.26879" lon="1.69673">
        <ele>80.41</ele>
        <time>2015-08-16T21:05:24Z</time>
      </trkpt>
      <trkpt lat="47.26892" lon="1.69714">
        <ele>80.41</ele>
        <time>2015-08-16T21:05:31Z</time>
      </trkpt>
      <trkpt lat="47.26901" lon="1.69743">
        <ele>80.89</ele>
        <time>2015-08-16T21:05:36Z</time>
      </trkpt>
      <trkpt lat="47.26903" lon="1.69748">
        <ele>80.89</ele>
        <time>2015-08-16T21:05:37Z</time>
      </trkpt>
      <trkpt lat="47.26905" lon="1.69753">
        <ele>80.89</ele>
        <time>2015-08-16T21:05:38Z</time>
      </trkpt>
      <trkpt lat="47.26907" lon="1.69758">
        <ele>80.89</ele>
        <time>2015-08-16T21:05:39Z</time>
      </trkpt>
      <trkpt lat="47.26908" lon="1.69764">
        <ele>80.89</ele>
        <time>2015-08-16T21:05:40Z</time>
      </trkpt>
      <trkpt lat="47.2691" lon="1.69769">
        <ele>80.89</ele>
        <time>2015-08-16T21:05:41Z</time>
      </trkpt>
      <trkpt lat="47.2693" lon="1.69825">
        <ele>80.89</ele>
        <time>2015-08-16T21:05:51Z</time>
      </trkpt>
      <trkpt lat="47.26962" lon="1.6992">
        <ele>81.37</ele>
        <time>2015-08-16T21:06:08Z</time>
      </trkpt>
      <trkpt lat="47.26993" lon="1.7002">
        <ele>81.37</ele>
        <time>2015-08-16T21:06:26Z</time>
      </trkpt>
      <trkpt lat="47.27025" lon="1.70119">
        <ele>81.37</ele>
        <time>2015-08-16T21:06:46Z</time>
      </trkpt>
      <trkpt lat="47.27054" lon="1.70211">
        <ele>80.89</ele>
        <time>2015-08-16T21:07:04Z</time>
      </trkpt>
      <trkpt lat="47.27086" lon="1.70305">
        <ele>81.37</ele>
        <time>2015-08-16T21:07:22Z</time>
      </trkpt>
      <trkpt lat="47.27113" lon="1.70384">
        <ele>81.37</ele>
        <time>2015-08-16T21:07:37Z</time>
      </trkpt>
      <trkpt lat="47.27143" lon="1.70434">
        <ele>80.89</ele>
        <time>2015-08-16T21:07:50Z</time>
      </trkpt>
      <trkpt lat="47.27151" lon="1.70439">
        <ele>80.89</ele>
        <time>2015-08-16T21:07:52Z</time>
      </trkpt>
      <trkpt lat="47.27159" lon="1.70443">
        <ele>80.89</ele>
        <time>2015-08-16T21:07:54Z</time>
      </trkpt>
      <trkpt lat="47.27216" lon="1.70475">
        <ele>80.89</ele>
        <time>2015-08-16T21:08:09Z</time>
      </trkpt>
      <trkpt lat="47.27275" lon="1.70518">
        <ele>81.37</ele>
        <time>2015-08-16T21:08:24Z</time>
      </trkpt>
      <trkpt lat="47.27284" lon="1.70525">
        <ele>81.37</ele>
        <time>2015-08-16T21:08:26Z</time>
      </trkpt>
      <trkpt lat="47.27287" lon="1.70528">
        <ele>81.37</ele>
        <time>2015-08-16T21:08:27Z</time>
      </trkpt>
      <trkpt lat="47.27291" lon="1.70531">
        <ele>81.85</ele>
        <time>2015-08-16T21:08:28Z</time>
      </trkpt>
      <trkpt lat="47.27294" lon="1.70533">
        <ele>81.85</ele>
        <time>2015-08-16T21:08:29Z</time>
      </trkpt>
      <trkpt lat="47.27299" lon="1.70535">
        <ele>81.85</ele>
        <time>2015-08-16T21:08:30Z</time>
      </trkpt>
      <trkpt lat="47.27303" lon="1.70535">
        <ele>81.85</ele>
        <time>2015-08-16T21:08:31Z</time>
      </trkpt>
      <trkpt lat="47.27318" lon="1.7053">
        <ele>82.81</ele>
        <time>2015-08-16T21:08:36Z</time>
      </trkpt>
      <trkpt lat="47.2732" lon="1.7053">
        <ele>82.81</ele>
        <time>2015-08-16T21:08:37Z</time>
      </trkpt>
      <trkpt lat="47.27321" lon="1.70529">
        <ele>82.81</ele>
        <time>2015-08-16T21:08:38Z</time>
      </trkpt>
      <trkpt lat="47.27322" lon="1.70529">
        <ele>82.81</ele>
        <time>2015-08-16T21:08:53Z</time>
      </trkpt>
      <trkpt lat="47.27322" lon="1.70528">
        <ele>82.81</ele>
        <time>2015-08-16T21:09:25Z</time>
      </trkpt>
      <trkpt lat="47.27321" lon="1.70528">
        <ele>82.81</ele>
        <time>2015-08-16T21:09:47Z</time>
      </trkpt>
      <trkpt lat="47.27325" lon="1.70528">
        <ele>82.81</ele>
        <time>2015-08-16T21:10:12Z</time>
      </trkpt>
      <trkpt lat="47.27324" lon="1.70527">
        <ele>82.81</ele>
        <time>2015-08-16T21:10:45Z</time>
      </trkpt>
      <trkpt lat="47.27325" lon="1.70524">
        <ele>82.81</ele>
        <time>2015-08-16T21:11:24Z</time>
      </trkpt>
      <trkpt lat="47.27326" lon="1.70525">
        <ele>82.81</ele>
        <time>2015-08-16T21:11:59Z</time>
      </trkpt>
      <trkpt lat="47.27326" lon="1.70527">
        <ele>82.81</ele>
        <time>2015-08-16T21:12:32Z</time>
      </trkpt>
      <trkpt lat="47.27332" lon="1.70526">
        <ele>82.81</ele>
        <time>2015-08-16T21:12:43Z</time>
      </trkpt>
      <trkpt lat="47.27374" lon="1.70535">
        <ele>84.25</ele>
        <time>2015-08-16T21:12:55Z</time>
      </trkpt>
      <trkpt lat="47.27378" lon="1.70536">
        <ele>84.25</ele>
        <time>2015-08-16T21:12:56Z</time>
      </trkpt>
      <trkpt lat="47.27382" lon="1.70536">
        <ele>84.25</ele>
        <time>2015-08-16T21:12:57Z</time>
      </trkpt>
      <trkpt lat="47.27386" lon="1.70536">
        <ele>84.73</ele>
        <time>2015-08-16T21:12:58Z</time>
      </trkpt>
      <trkpt lat="47.27391" lon="1.70537">
        <ele>84.73</ele>
        <time>2015-08-16T21:12:59Z</time>
      </trkpt>
      <trkpt lat="47.27395" lon="1.70536">
        <ele>85.21</ele>
        <time>2015-08-16T21:13:00Z</time>
      </trkpt>
      <trkpt lat="47.274" lon="1.70536">
        <ele>85.21</ele>
        <time>2015-08-16T21:13:01Z</time>
      </trkpt>
      <trkpt lat="47.27405" lon="1.70536">
        <ele>86.18</ele>
        <time>2015-08-16T21:13:02Z</time>
      </trkpt>
      <trkpt lat="47.27434" lon="1.70534">
        <ele>88.58</ele>
        <time>2015-08-16T21:13:08Z</time>
      </trkpt>
      <trkpt lat="47.27468" lon="1.70521">
        <ele>90.02</ele>
        <time>2015-08-16T21:13:15Z</time>
      </trkpt>
      <trkpt lat="47.27513" lon="1.70506">
        <ele>91.46</ele>
        <time>2015-08-16T21:13:27Z</time>
      </trkpt>
      <trkpt lat="47.27515" lon="1.70505">
        <ele>91.46</ele>
        <time>2015-08-16T21:13:28Z</time>
      </trkpt>
      <trkpt lat="47.27517" lon="1.70505">
        <ele>91.94</ele>
        <time>2015-08-16T21:13:29Z</time>
      </trkpt>
      <trkpt lat="47.27524" lon="1.70509">
        <ele>91.46</ele>
        <time>2015-08-16T21:13:32Z</time>
      </trkpt>
      <trkpt lat="47.27545" lon="1.70565">
        <ele>91.94</ele>
        <time>2015-08-16T21:13:44Z</time>
      </trkpt>
      <trkpt lat="47.27566" lon="1.70627">
        <ele>91.94</ele>
        <time>2015-08-16T21:13:57Z</time>
      </trkpt>
      <trkpt lat="47.27583" lon="1.70679">
        <ele>91.94</ele>
        <time>2015-08-16T21:14:07Z</time>
      </trkpt>
      <trkpt lat="47.27593" lon="1.70717">
        <ele>91.94</ele>
        <time>2015-08-16T21:14:19Z</time>
      </trkpt>
      <trkpt lat="47.27593" lon="1.70718">
        <ele>92.42</ele>
        <time>2015-08-16T21:14:32Z</time>
      </trkpt>
      <trkpt lat="47.27593" lon="1.70718">
        <ele>96.27</ele>
        <time>2015-08-16T21:14:33Z</time>
      </trkpt>
      <trkpt lat="47.27593" lon="1.70718">
        <ele>87.14</ele>
        <time>2015-08-16T21:14:34Z</time>
      </trkpt>
      <trkpt lat="47.27593" lon="1.70719">
        <ele>91.94</ele>
        <time>2015-08-16T21:14:45Z</time>
      </trkpt>
      <trkpt lat="47.27593" lon="1.70719">
        <ele>90.02</ele>
        <time>2015-08-16T21:15:09Z</time>
      </trkpt>
      <trkpt lat="47.27593" lon="1.70719">
        <ele>94.35</ele>
        <time>2015-08-16T21:15:10Z</time>
      </trkpt>
      <trkpt lat="47.27593" lon="1.70718">
        <ele>88.1</ele>
        <time>2015-08-16T21:15:11Z</time>
      </trkpt>
      <trkpt lat="47.27593" lon="1.70718">
        <ele>92.42</ele>
        <time>2015-08-16T21:15:17Z</time>
      </trkpt>
      <trkpt lat="47.27593" lon="1.70718">
        <ele>97.23</ele>
        <time>2015-08-16T21:15:18Z</time>
      </trkpt>
      <trkpt lat="47.27593" lon="1.70718">
        <ele>86.66</ele>
        <time>2015-08-16T21:15:19Z</time>
      </trkpt>
      <trkpt lat="47.27593" lon="1.70718">
        <ele>90.5</ele>
        <time>2015-08-16T21:15:41Z</time>
      </trkpt>
      <trkpt lat="47.27593" lon="1.70718">
        <ele>95.31</ele>
        <time>2015-08-16T21:15:42Z</time>
      </trkpt>
      <trkpt lat="47.27593" lon="1.70718">
        <ele>87.62</ele>
        <time>2015-08-16T21:15:43Z</time>
      </trkpt>
      <trkpt lat="47.27593" lon="1.70718">
        <ele>95.31</ele>
        <time>2015-08-16T21:15:44Z</time>
      </trkpt>
      <trkpt lat="47.27593" lon="1.70718">
        <ele>87.62</ele>
        <time>2015-08-16T21:15:45Z</time>
      </trkpt>
      <trkpt lat="47.27593" lon="1.70717">
        <ele>93.87</ele>
        <time>2015-08-16T21:15:46Z</time>
      </trkpt>
      <trkpt lat="47.27593" lon="1.70717">
        <ele>90.02</ele>
        <time>2015-08-16T21:15:47Z</time>
      </trkpt>
      <trkpt lat="47.27593" lon="1.70718">
        <ele>93.87</ele>
        <time>2015-08-16T21:15:48Z</time>
      </trkpt>
      <trkpt lat="47.27593" lon="1.70718">
        <ele>90.5</ele>
        <time>2015-08-16T21:15:50Z</time>
      </trkpt>
      <trkpt lat="47.27593" lon="1.70718">
        <ele>93.87</ele>
        <time>2015-08-16T21:15:53Z</time>
      </trkpt>
      <trkpt lat="47.27593" lon="1.70718">
        <ele>89.06</ele>
        <time>2015-08-16T21:15:54Z</time>
      </trkpt>
      <trkpt lat="47.27592" lon="1.70718">
        <ele>93.87</ele>
        <time>2015-08-16T21:16:06Z</time>
      </trkpt>
      <trkpt lat="47.27592" lon="1.70718">
        <ele>90.5</ele>
        <time>2015-08-16T21:16:07Z</time>
      </trkpt>
      <trkpt lat="47.27592" lon="1.70717">
        <ele>93.87</ele>
        <time>2015-08-16T21:16:13Z</time>
      </trkpt>
      <trkpt lat="47.27592" lon="1.70717">
        <ele>90.5</ele>
        <time>2015-08-16T21:16:18Z</time>
      </trkpt>
      <trkpt lat="47.27592" lon="1.70717">
        <ele>94.35</ele>
        <time>2015-08-16T21:16:19Z</time>
      </trkpt>
      <trkpt lat="47.27593" lon="1.70723">
        <ele>91.94</ele>
        <time>2015-08-16T21:16:31Z</time>
      </trkpt>
      <trkpt lat="47.27597" lon="1.70741">
        <ele>94.83</ele>
        <time>2015-08-16T21:16:36Z</time>
      </trkpt>
      <trkpt lat="47.27598" lon="1.70746">
        <ele>88.1</ele>
        <time>2015-08-16T21:16:37Z</time>
      </trkpt>
      <trkpt lat="47.27599" lon="1.70751">
        <ele>94.35</ele>
        <time>2015-08-16T21:16:38Z</time>
      </trkpt>
      <trkpt lat="47.27605" lon="1.70784">
        <ele>90.98</ele>
        <time>2015-08-16T21:16:45Z</time>
      </trkpt>
      <trkpt lat="47.27606" lon="1.7079">
        <ele>94.35</ele>
        <time>2015-08-16T21:16:46Z</time>
      </trkpt>
      <trkpt lat="47.27607" lon="1.70795">
        <ele>91.46</ele>
        <time>2015-08-16T21:16:47Z</time>
      </trkpt>
      <trkpt lat="47.27608" lon="1.70801">
        <ele>95.79</ele>
        <time>2015-08-16T21:16:48Z</time>
      </trkpt>
      <trkpt lat="47.27609" lon="1.70807">
        <ele>90.02</ele>
        <time>2015-08-16T21:16:49Z</time>
      </trkpt>
      <trkpt lat="47.2761" lon="1.70813">
        <ele>95.79</ele>
        <time>2015-08-16T21:16:50Z</time>
      </trkpt>
      <trkpt lat="47.27611" lon="1.70819">
        <ele>87.62</ele>
        <time>2015-08-16T21:16:51Z</time>
      </trkpt>
      <trkpt lat="47.2762" lon="1.70863">
        <ele>92.42</ele>
        <time>2015-08-16T21:16:58Z</time>
      </trkpt>
      <trkpt lat="47.27622" lon="1.70869">
        <ele>92.42</ele>
        <time>2015-08-16T21:16:59Z</time>
      </trkpt>
      <trkpt lat="47.27635" lon="1.70935">
        <ele>92.9</ele>
        <time>2015-08-16T21:17:11Z</time>
      </trkpt>
      <trkpt lat="47.27645" lon="1.70962">
        <ele>92.42</ele>
        <time>2015-08-16T21:17:16Z</time>
      </trkpt>
      <trkpt lat="47.27662" lon="1.70997">
        <ele>92.42</ele>
        <time>2015-08-16T21:17:23Z</time>
      </trkpt>
      <trkpt lat="47.27687" lon="1.71036">
        <ele>92.42</ele>
        <time>2015-08-16T21:17:32Z</time>
      </trkpt>
      <trkpt lat="47.27733" lon="1.71102">
        <ele>92.42</ele>
        <time>2015-08-16T21:17:48Z</time>
      </trkpt>
      <trkpt lat="47.27736" lon="1.71106">
        <ele>96.75</ele>
        <time>2015-08-16T21:17:49Z</time>
      </trkpt>
      <trkpt lat="47.27765" lon="1.71154">
        <ele>92.42</ele>
        <time>2015-08-16T21:18:00Z</time>
      </trkpt>
      <trkpt lat="47.27768" lon="1.7116">
        <ele>92.42</ele>
        <time>2015-08-16T21:18:01Z</time>
      </trkpt>
      <trkpt lat="47.27778" lon="1.71183">
        <ele>92.9</ele>
        <time>2015-08-16T21:18:06Z</time>
      </trkpt>
      <trkpt lat="47.27804" lon="1.71257">
        <ele>92.9</ele>
        <time>2015-08-16T21:18:21Z</time>
      </trkpt>
      <trkpt lat="47.27806" lon="1.71262">
        <ele>92.42</ele>
        <time>2015-08-16T21:18:22Z</time>
      </trkpt>
      <trkpt lat="47.27809" lon="1.71267">
        <ele>92.42</ele>
        <time>2015-08-16T21:18:23Z</time>
      </trkpt>
      <trkpt lat="47.27811" lon="1.71272">
        <ele>92.9</ele>
        <time>2015-08-16T21:18:24Z</time>
      </trkpt>
      <trkpt lat="47.27814" lon="1.71276">
        <ele>92.42</ele>
        <time>2015-08-16T21:18:25Z</time>
      </trkpt>
      <trkpt lat="47.27816" lon="1.7128">
        <ele>92.42</ele>
        <time>2015-08-16T21:18:26Z</time>
      </trkpt>
      <trkpt lat="47.2782" lon="1.71284">
        <ele>92.9</ele>
        <time>2015-08-16T21:18:27Z</time>
      </trkpt>
      <trkpt lat="47.27826" lon="1.71291">
        <ele>92.9</ele>
        <time>2015-08-16T21:18:29Z</time>
      </trkpt>
      <trkpt lat="47.2783" lon="1.71293">
        <ele>92.9</ele>
        <time>2015-08-16T21:18:30Z</time>
      </trkpt>
      <trkpt lat="47.27834" lon="1.71295">
        <ele>92.42</ele>
        <time>2015-08-16T21:18:31Z</time>
      </trkpt>
      <trkpt lat="47.27885" lon="1.71325">
        <ele>92.9</ele>
        <time>2015-08-16T21:18:43Z</time>
      </trkpt>
      <trkpt lat="47.27892" lon="1.71334">
        <ele>92.9</ele>
        <time>2015-08-16T21:18:45Z</time>
      </trkpt>
      <trkpt lat="47.27932" lon="1.71388">
        <ele>92.9</ele>
        <time>2015-08-16T21:18:58Z</time>
      </trkpt>
      <trkpt lat="47.27971" lon="1.71444">
        <ele>92.42</ele>
        <time>2015-08-16T21:19:12Z</time>
      </trkpt>
      <trkpt lat="47.27975" lon="1.71448">
        <ele>92.42</ele>
        <time>2015-08-16T21:19:13Z</time>
      </trkpt>
      <trkpt lat="47.27978" lon="1.71452">
        <ele>92.42</ele>
        <time>2015-08-16T21:19:14Z</time>
      </trkpt>
      <trkpt lat="47.27981" lon="1.71454">
        <ele>92.42</ele>
        <time>2015-08-16T21:19:15Z</time>
      </trkpt>
      <trkpt lat="47.27985" lon="1.71456">
        <ele>92.42</ele>
        <time>2015-08-16T21:19:16Z</time>
      </trkpt>
      <trkpt lat="47.27989" lon="1.71456">
        <ele>92.42</ele>
        <time>2015-08-16T21:19:17Z</time>
      </trkpt>
      <trkpt lat="47.27993" lon="1.71454">
        <ele>92.42</ele>
        <time>2015-08-16T21:19:18Z</time>
      </trkpt>
      <trkpt lat="47.27996" lon="1.71451">
        <ele>92.42</ele>
        <time>2015-08-16T21:19:19Z</time>
      </trkpt>
      <trkpt lat="47.28006" lon="1.71436">
        <ele>92.42</ele>
        <time>2015-08-16T21:19:22Z</time>
      </trkpt>
      <trkpt lat="47.28019" lon="1.71412">
        <ele>92.9</ele>
        <time>2015-08-16T21:19:26Z</time>
      </trkpt>
      <trkpt lat="47.28074" lon="1.71321">
        <ele>93.87</ele>
        <time>2015-08-16T21:19:41Z</time>
      </trkpt>
      <trkpt lat="47.28077" lon="1.71316">
        <ele>93.87</ele>
        <time>2015-08-16T21:19:42Z</time>
      </trkpt>
      <trkpt lat="47.28081" lon="1.71311">
        <ele>93.87</ele>
        <time>2015-08-16T21:19:43Z</time>
      </trkpt>
      <trkpt lat="47.28085" lon="1.71306">
        <ele>93.87</ele>
        <time>2015-08-16T21:19:44Z</time>
      </trkpt>
      <trkpt lat="47.28089" lon="1.71302">
        <ele>94.35</ele>
        <time>2015-08-16T21:19:45Z</time>
      </trkpt>
      <trkpt lat="47.28094" lon="1.71298">
        <ele>94.35</ele>
        <time>2015-08-16T21:19:46Z</time>
      </trkpt>
      <trkpt lat="47.28121" lon="1.71276">
        <ele>94.83</ele>
        <time>2015-08-16T21:19:52Z</time>
      </trkpt>
      <trkpt lat="47.2813" lon="1.71272">
        <ele>94.83</ele>
        <time>2015-08-16T21:19:54Z</time>
      </trkpt>
      <trkpt lat="47.28167" lon="1.71252">
        <ele>95.31</ele>
        <time>2015-08-16T21:20:04Z</time>
      </trkpt>
      <trkpt lat="47.28211" lon="1.71231">
        <ele>95.79</ele>
        <time>2015-08-16T21:20:18Z</time>
      </trkpt>
      <trkpt lat="47.28247" lon="1.71215">
        <ele>96.27</ele>
        <time>2015-08-16T21:20:30Z</time>
      </trkpt>
      <trkpt lat="47.28272" lon="1.71204">
        <ele>96.27</ele>
        <time>2015-08-16T21:20:42Z</time>
      </trkpt>
      <trkpt lat="47.28275" lon="1.71202">
        <ele>96.27</ele>
        <time>2015-08-16T21:20:43Z</time>
      </trkpt>
      <trkpt lat="47.28277" lon="1.71201">
        <ele>96.27</ele>
        <time>2015-08-16T21:20:44Z</time>
      </trkpt>
      <trkpt lat="47.2828" lon="1.71199">
        <ele>96.27</ele>
        <time>2015-08-16T21:20:45Z</time>
      </trkpt>
      <trkpt lat="47.28282" lon="1.71198">
        <ele>96.27</ele>
        <time>2015-08-16T21:20:46Z</time>
      </trkpt>
      <trkpt lat="47.28285" lon="1.71197">
        <ele>96.27</ele>
        <time>2015-08-16T21:20:47Z</time>
      </trkpt>
      <trkpt lat="47.28288" lon="1.71199">
        <ele>96.27</ele>
        <time>2015-08-16T21:20:48Z</time>
      </trkpt>
      <trkpt lat="47.28297" lon="1.71214">
        <ele>96.27</ele>
        <time>2015-08-16T21:20:52Z</time>
      </trkpt>
      <trkpt lat="47.28299" lon="1.71219">
        <ele>96.27</ele>
        <time>2015-08-16T21:20:53Z</time>
      </trkpt>
      <trkpt lat="47.28317" lon="1.71261">
        <ele>96.75</ele>
        <time>2015-08-16T21:21:00Z</time>
      </trkpt>
      <trkpt lat="47.28346" lon="1.71341">
        <ele>96.27</ele>
        <time>2015-08-16T21:21:14Z</time>
      </trkpt>
      <trkpt lat="47.28349" lon="1.71351">
        <ele>97.23</ele>
        <time>2015-08-16T21:21:16Z</time>
      </trkpt>
      <trkpt lat="47.2835" lon="1.71356">
        <ele>103.48</ele>
        <time>2015-08-16T21:21:17Z</time>
      </trkpt>
      <trkpt lat="47.28351" lon="1.71362">
        <ele>89.54</ele>
        <time>2015-08-16T21:21:18Z</time>
      </trkpt>
      <trkpt lat="47.28376" lon="1.71452">
        <ele>96.27</ele>
        <time>2015-08-16T21:21:34Z</time>
      </trkpt>
      <trkpt lat="47.28394" lon="1.71521">
        <ele>96.27</ele>
        <time>2015-08-16T21:21:48Z</time>
      </trkpt>
      <trkpt lat="47.28413" lon="1.71575">
        <ele>96.27</ele>
        <time>2015-08-16T21:22:02Z</time>
      </trkpt>
      <trkpt lat="47.28435" lon="1.71643">
        <ele>96.75</ele>
        <time>2015-08-16T21:22:19Z</time>
      </trkpt>
      <trkpt lat="47.28453" lon="1.71688">
        <ele>96.75</ele>
        <time>2015-08-16T21:22:31Z</time>
      </trkpt>
      <trkpt lat="47.28476" lon="1.71749">
        <ele>97.23</ele>
        <time>2015-08-16T21:22:45Z</time>
      </trkpt>
      <trkpt lat="47.28492" lon="1.71827">
        <ele>96.27</ele>
        <time>2015-08-16T21:23:02Z</time>
      </trkpt>
      <trkpt lat="47.2851" lon="1.71916">
        <ele>96.27</ele>
        <time>2015-08-16T21:23:20Z</time>
      </trkpt>
      <trkpt lat="47.28524" lon="1.71984">
        <ele>95.79</ele>
        <time>2015-08-16T21:23:34Z</time>
      </trkpt>
      <trkpt lat="47.28541" lon="1.72064">
        <ele>95.31</ele>
        <time>2015-08-16T21:23:50Z</time>
      </trkpt>
      <trkpt lat="47.28557" lon="1.72146">
        <ele>94.83</ele>
        <time>2015-08-16T21:24:07Z</time>
      </trkpt>
      <trkpt lat="47.28573" lon="1.7221">
        <ele>94.35</ele>
        <time>2015-08-16T21:24:20Z</time>
      </trkpt>
      <trkpt lat="47.28592" lon="1.72308">
        <ele>94.35</ele>
        <time>2015-08-16T21:24:38Z</time>
      </trkpt>
      <trkpt lat="47.28598" lon="1.72352">
        <ele>94.35</ele>
        <time>2015-08-16T21:24:45Z</time>
      </trkpt>
      <trkpt lat="47.28613" lon="1.72452">
        <ele>94.83</ele>
        <time>2015-08-16T21:25:02Z</time>
      </trkpt>
      <trkpt lat="47.2862" lon="1.72508">
        <ele>95.31</ele>
        <time>2015-08-16T21:25:17Z</time>
      </trkpt>
      <trkpt lat="47.28628" lon="1.72566">
        <ele>95.31</ele>
        <time>2015-08-16T21:25:32Z</time>
      </trkpt>
      <trkpt lat="47.28637" lon="1.72621">
        <ele>95.31</ele>
        <time>2015-08-16T21:25:43Z</time>
      </trkpt>
      <trkpt lat="47.2865" lon="1.727">
        <ele>95.79</ele>
        <time>2015-08-16T21:25:57Z</time>
      </trkpt>
      <trkpt lat="47.28651" lon="1.72706">
        <ele>95.31</ele>
        <time>2015-08-16T21:25:58Z</time>
      </trkpt>
      <trkpt lat="47.28656" lon="1.72735">
        <ele>95.79</ele>
        <time>2015-08-16T21:26:03Z</time>
      </trkpt>
      <trkpt lat="47.28672" lon="1.72817">
        <ele>95.31</ele>
        <time>2015-08-16T21:26:18Z</time>
      </trkpt>
      <trkpt lat="47.28688" lon="1.72904">
        <ele>94.83</ele>
        <time>2015-08-16T21:26:35Z</time>
      </trkpt>
      <trkpt lat="47.28705" lon="1.72999">
        <ele>93.87</ele>
        <time>2015-08-16T21:26:56Z</time>
      </trkpt>
      <trkpt lat="47.28717" lon="1.73077">
        <ele>91.94</ele>
        <time>2015-08-16T21:27:14Z</time>
      </trkpt>
      <trkpt lat="47.28729" lon="1.73147">
        <ele>90.98</ele>
        <time>2015-08-16T21:27:31Z</time>
      </trkpt>
      <trkpt lat="47.28742" lon="1.73197">
        <ele>89.54</ele>
        <time>2015-08-16T21:27:45Z</time>
      </trkpt>
      <trkpt lat="47.28746" lon="1.732">
        <ele>89.54</ele>
        <time>2015-08-16T21:27:49Z</time>
      </trkpt>
      <trkpt lat="47.28749" lon="1.73203">
        <ele>89.54</ele>
        <time>2015-08-16T21:27:52Z</time>
      </trkpt>
      <trkpt lat="47.28753" lon="1.73246">
        <ele>90.02</ele>
        <time>2015-08-16T21:28:01Z</time>
      </trkpt>
      <trkpt lat="47.28771" lon="1.73314">
        <ele>90.98</ele>
        <time>2015-08-16T21:28:10Z</time>
      </trkpt>
      <trkpt lat="47.28796" lon="1.73422">
        <ele>92.9</ele>
        <time>2015-08-16T21:28:26Z</time>
      </trkpt>
      <trkpt lat="47.28813" lon="1.73485">
        <ele>93.39</ele>
        <time>2015-08-16T21:28:38Z</time>
      </trkpt>
      <trkpt lat="47.2884" lon="1.7359">
        <ele>94.35</ele>
        <time>2015-08-16T21:28:56Z</time>
      </trkpt>
      <trkpt lat="47.28864" lon="1.73689">
        <ele>94.83</ele>
        <time>2015-08-16T21:29:13Z</time>
      </trkpt>
      <trkpt lat="47.28872" lon="1.73712">
        <ele>94.83</ele>
        <time>2015-08-16T21:29:17Z</time>
      </trkpt>
      <trkpt lat="47.28895" lon="1.73812">
        <ele>94.35</ele>
        <time>2015-08-16T21:29:33Z</time>
      </trkpt>
      <trkpt lat="47.28897" lon="1.73818">
        <ele>94.35</ele>
        <time>2015-08-16T21:29:34Z</time>
      </trkpt>
      <trkpt lat="47.28917" lon="1.73888">
        <ele>94.35</ele>
        <time>2015-08-16T21:29:46Z</time>
      </trkpt>
      <trkpt lat="47.28934" lon="1.7397">
        <ele>94.35</ele>
        <time>2015-08-16T21:30:00Z</time>
      </trkpt>
      <trkpt lat="47.28935" lon="1.73976">
        <ele>94.35</ele>
        <time>2015-08-16T21:30:01Z</time>
      </trkpt>
      <trkpt lat="47.28935" lon="1.73982">
        <ele>94.35</ele>
        <time>2015-08-16T21:30:02Z</time>
      </trkpt>
      <trkpt lat="47.28942" lon="1.74007">
        <ele>94.35</ele>
        <time>2015-08-16T21:30:07Z</time>
      </trkpt>
      <trkpt lat="47.28956" lon="1.74068">
        <ele>94.35</ele>
        <time>2015-08-16T21:30:19Z</time>
      </trkpt>
      <trkpt lat="47.28966" lon="1.74146">
        <ele>93.39</ele>
        <time>2015-08-16T21:30:35Z</time>
      </trkpt>
      <trkpt lat="47.28982" lon="1.7425">
        <ele>91.46</ele>
        <time>2015-08-16T21:30:54Z</time>
      </trkpt>
      <trkpt lat="47.28995" lon="1.74339">
        <ele>90.98</ele>
        <time>2015-08-16T21:31:07Z</time>
      </trkpt>
      <trkpt lat="47.28998" lon="1.74354">
        <ele>90.98</ele>
        <time>2015-08-16T21:31:09Z</time>
      </trkpt>
      <trkpt lat="47.29008" lon="1.74409">
        <ele>90.98</ele>
        <time>2015-08-16T21:31:17Z</time>
      </trkpt>
      <trkpt lat="47.29034" lon="1.74548">
        <ele>92.42</ele>
        <time>2015-08-16T21:31:34Z</time>
      </trkpt>
      <trkpt lat="47.29057" lon="1.74671">
        <ele>94.83</ele>
        <time>2015-08-16T21:31:51Z</time>
      </trkpt>
      <trkpt lat="47.29069" lon="1.74702">
        <ele>95.31</ele>
        <time>2015-08-16T21:31:57Z</time>
      </trkpt>
      <trkpt lat="47.29071" lon="1.74707">
        <ele>95.31</ele>
        <time>2015-08-16T21:31:58Z</time>
      </trkpt>
      <trkpt lat="47.29081" lon="1.74759">
        <ele>95.31</ele>
        <time>2015-08-16T21:32:07Z</time>
      </trkpt>
      <trkpt lat="47.29103" lon="1.74839">
        <ele>95.79</ele>
        <time>2015-08-16T21:32:21Z</time>
      </trkpt>
      <trkpt lat="47.29128" lon="1.74928">
        <ele>95.79</ele>
        <time>2015-08-16T21:32:37Z</time>
      </trkpt>
      <trkpt lat="47.29153" lon="1.75024">
        <ele>96.27</ele>
        <time>2015-08-16T21:32:54Z</time>
      </trkpt>
      <trkpt lat="47.29178" lon="1.75117">
        <ele>96.27</ele>
        <time>2015-08-16T21:33:10Z</time>
      </trkpt>
      <trkpt lat="47.29207" lon="1.75226">
        <ele>97.23</ele>
        <time>2015-08-16T21:33:29Z</time>
      </trkpt>
      <trkpt lat="47.29208" lon="1.75231">
        <ele>101.56</ele>
        <time>2015-08-16T21:33:30Z</time>
      </trkpt>
      <trkpt lat="47.2921" lon="1.75237">
        <ele>94.83</ele>
        <time>2015-08-16T21:33:31Z</time>
      </trkpt>
      <trkpt lat="47.29211" lon="1.75242">
        <ele>92.9</ele>
        <time>2015-08-16T21:33:32Z</time>
      </trkpt>
      <trkpt lat="47.29226" lon="1.75297">
        <ele>97.23</ele>
        <time>2015-08-16T21:33:42Z</time>
      </trkpt>
      <trkpt lat="47.29248" lon="1.75387">
        <ele>97.23</ele>
        <time>2015-08-16T21:33:58Z</time>
      </trkpt>
      <trkpt lat="47.29262" lon="1.75475">
        <ele>97.23</ele>
        <time>2015-08-16T21:34:15Z</time>
      </trkpt>
      <trkpt lat="47.29272" lon="1.75548">
        <ele>96.75</ele>
        <time>2015-08-16T21:34:30Z</time>
      </trkpt>
      <trkpt lat="47.29281" lon="1.75633">
        <ele>96.27</ele>
        <time>2015-08-16T21:34:46Z</time>
      </trkpt>
      <trkpt lat="47.29291" lon="1.75717">
        <ele>96.27</ele>
        <time>2015-08-16T21:35:02Z</time>
      </trkpt>
      <trkpt lat="47.293" lon="1.75778">
        <ele>95.79</ele>
        <time>2015-08-16T21:35:15Z</time>
      </trkpt>
      <trkpt lat="47.29304" lon="1.75832">
        <ele>95.79</ele>
        <time>2015-08-16T21:35:29Z</time>
      </trkpt>
      <trkpt lat="47.29308" lon="1.75891">
        <ele>95.31</ele>
        <time>2015-08-16T21:35:45Z</time>
      </trkpt>
      <trkpt lat="47.29313" lon="1.75953">
        <ele>94.83</ele>
        <time>2015-08-16T21:36:03Z</time>
      </trkpt>
      <trkpt lat="47.29317" lon="1.76005">
        <ele>94.35</ele>
        <time>2015-08-16T21:36:18Z</time>
      </trkpt>
      <trkpt lat="47.2932" lon="1.76057">
        <ele>93.87</ele>
        <time>2015-08-16T21:36:32Z</time>
      </trkpt>
      <trkpt lat="47.29324" lon="1.76114">
        <ele>93.39</ele>
        <time>2015-08-16T21:36:46Z</time>
      </trkpt>
      <trkpt lat="47.29327" lon="1.76178">
        <ele>92.42</ele>
        <time>2015-08-16T21:37:02Z</time>
      </trkpt>
      <trkpt lat="47.29327" lon="1.76246">
        <ele>90.98</ele>
        <time>2015-08-16T21:37:20Z</time>
      </trkpt>
      <trkpt lat="47.29329" lon="1.76306">
        <ele>89.06</ele>
        <time>2015-08-16T21:37:37Z</time>
      </trkpt>
      <trkpt lat="47.2933" lon="1.76361">
        <ele>87.62</ele>
        <time>2015-08-16T21:37:53Z</time>
      </trkpt>
      <trkpt lat="47.29331" lon="1.76427">
        <ele>85.69</ele>
        <time>2015-08-16T21:38:10Z</time>
      </trkpt>
      <trkpt lat="47.2933" lon="1.76495">
        <ele>84.73</ele>
        <time>2015-08-16T21:38:26Z</time>
      </trkpt>
      <trkpt lat="47.2933" lon="1.76578">
        <ele>83.77</ele>
        <time>2015-08-16T21:38:41Z</time>
      </trkpt>
      <trkpt lat="47.29318" lon="1.76678">
        <ele>84.73</ele>
        <time>2015-08-16T21:38:56Z</time>
      </trkpt>
      <trkpt lat="47.2931" lon="1.76747">
        <ele>85.69</ele>
        <time>2015-08-16T21:39:08Z</time>
      </trkpt>
      <trkpt lat="47.2931" lon="1.76752">
        <ele>89.54</ele>
        <time>2015-08-16T21:39:09Z</time>
      </trkpt>
      <trkpt lat="47.2931" lon="1.76757">
        <ele>79.93</ele>
        <time>2015-08-16T21:39:10Z</time>
      </trkpt>
      <trkpt lat="47.29307" lon="1.76792">
        <ele>85.21</ele>
        <time>2015-08-16T21:39:17Z</time>
      </trkpt>
      <trkpt lat="47.29301" lon="1.76867">
        <ele>85.21</ele>
        <time>2015-08-16T21:39:32Z</time>
      </trkpt>
      <trkpt lat="47.29293" lon="1.76937">
        <ele>84.73</ele>
        <time>2015-08-16T21:39:46Z</time>
      </trkpt>
      <trkpt lat="47.29292" lon="1.76942">
        <ele>85.21</ele>
        <time>2015-08-16T21:39:47Z</time>
      </trkpt>
      <trkpt lat="47.29292" lon="1.76946">
        <ele>85.21</ele>
        <time>2015-08-16T21:39:48Z</time>
      </trkpt>
      <trkpt lat="47.29291" lon="1.7695">
        <ele>85.21</ele>
        <time>2015-08-16T21:39:49Z</time>
      </trkpt>
      <trkpt lat="47.2929" lon="1.76954">
        <ele>84.73</ele>
        <time>2015-08-16T21:39:50Z</time>
      </trkpt>
      <trkpt lat="47.2929" lon="1.76958">
        <ele>84.73</ele>
        <time>2015-08-16T21:39:51Z</time>
      </trkpt>
      <trkpt lat="47.29291" lon="1.76961">
        <ele>84.73</ele>
        <time>2015-08-16T21:39:52Z</time>
      </trkpt>
      <trkpt lat="47.2929" lon="1.76965">
        <ele>84.73</ele>
        <time>2015-08-16T21:39:53Z</time>
      </trkpt>
      <trkpt lat="47.2929" lon="1.76968">
        <ele>84.73</ele>
        <time>2015-08-16T21:39:54Z</time>
      </trkpt>
      <trkpt lat="47.29289" lon="1.76972">
        <ele>84.73</ele>
        <time>2015-08-16T21:39:55Z</time>
      </trkpt>
      <trkpt lat="47.29288" lon="1.76975">
        <ele>84.73</ele>
        <time>2015-08-16T21:39:56Z</time>
      </trkpt>
      <trkpt lat="47.29287" lon="1.76983">
        <ele>84.73</ele>
        <time>2015-08-16T21:40:08Z</time>
      </trkpt>
      <trkpt lat="47.29286" lon="1.76985">
        <ele>84.73</ele>
        <time>2015-08-16T21:40:09Z</time>
      </trkpt>
      <trkpt lat="47.29287" lon="1.76987">
        <ele>84.73</ele>
        <time>2015-08-16T21:40:10Z</time>
      </trkpt>
      <trkpt lat="47.29286" lon="1.77004">
        <ele>84.73</ele>
        <time>2015-08-16T21:40:16Z</time>
      </trkpt>
      <trkpt lat="47.29277" lon="1.77063">
        <ele>84.73</ele>
        <time>2015-08-16T21:40:31Z</time>
      </trkpt>
      <trkpt lat="47.2927" lon="1.7711">
        <ele>85.21</ele>
        <time>2015-08-16T21:40:43Z</time>
      </trkpt>
      <trkpt lat="47.29267" lon="1.77146">
        <ele>85.21</ele>
        <time>2015-08-16T21:40:55Z</time>
      </trkpt>
      <trkpt lat="47.29267" lon="1.77149">
        <ele>85.21</ele>
        <time>2015-08-16T21:40:56Z</time>
      </trkpt>
      <trkpt lat="47.29267" lon="1.7715">
        <ele>85.21</ele>
        <time>2015-08-16T21:40:57Z</time>
      </trkpt>
      <trkpt lat="47.29269" lon="1.77152">
        <ele>85.21</ele>
        <time>2015-08-16T21:41:00Z</time>
      </trkpt>
      <trkpt lat="47.29269" lon="1.77152">
        <ele>85.21</ele>
        <time>2015-08-16T21:41:09Z</time>
      </trkpt>
      <trkpt lat="47.29267" lon="1.77152">
        <ele>85.21</ele>
        <time>2015-08-16T21:41:37Z</time>
      </trkpt>
      <trkpt lat="47.29264" lon="1.77153">
        <ele>84.73</ele>
        <time>2015-08-16T21:42:02Z</time>
      </trkpt>
      <trkpt lat="47.29267" lon="1.77154">
        <ele>84.73</ele>
        <time>2015-08-16T21:42:25Z</time>
      </trkpt>
      <trkpt lat="47.29268" lon="1.77153">
        <ele>84.73</ele>
        <time>2015-08-16T21:43:03Z</time>
      </trkpt>
      <trkpt lat="47.29268" lon="1.77153">
        <ele>84.73</ele>
        <time>2015-08-16T21:43:32Z</time>
      </trkpt>
      <trkpt lat="47.2927" lon="1.77155">
        <ele>84.25</ele>
        <time>2015-08-16T21:43:51Z</time>
      </trkpt>
      <trkpt lat="47.2927" lon="1.77157">
        <ele>84.25</ele>
        <time>2015-08-16T21:44:08Z</time>
      </trkpt>
      <trkpt lat="47.29269" lon="1.77163">
        <ele>84.73</ele>
        <time>2015-08-16T21:44:22Z</time>
      </trkpt>
      <trkpt lat="47.29268" lon="1.77165">
        <ele>84.25</ele>
        <time>2015-08-16T21:44:23Z</time>
      </trkpt>
      <trkpt lat="47.29268" lon="1.77166">
        <ele>84.25</ele>
        <time>2015-08-16T21:44:24Z</time>
      </trkpt>
      <trkpt lat="47.29268" lon="1.7717">
        <ele>84.25</ele>
        <time>2015-08-16T21:44:41Z</time>
      </trkpt>
      <trkpt lat="47.29269" lon="1.77171">
        <ele>84.25</ele>
        <time>2015-08-16T21:45:12Z</time>
      </trkpt>
      <trkpt lat="47.29269" lon="1.77171">
        <ele>83.77</ele>
        <time>2015-08-16T21:45:41Z</time>
      </trkpt>
      <trkpt lat="47.2927" lon="1.77171">
        <ele>83.77</ele>
        <time>2015-08-16T21:46:10Z</time>
      </trkpt>
      <trkpt lat="47.2927" lon="1.77172">
        <ele>83.29</ele>
        <time>2015-08-16T21:46:40Z</time>
      </trkpt>
      <trkpt lat="47.2927" lon="1.77171">
        <ele>83.29</ele>
        <time>2015-08-16T21:47:09Z</time>
      </trkpt>
      <trkpt lat="47.2927" lon="1.77171">
        <ele>83.29</ele>
        <time>2015-08-16T21:47:36Z</time>
      </trkpt>
      <trkpt lat="47.29271" lon="1.77171">
        <ele>83.29</ele>
        <time>2015-08-16T21:48:07Z</time>
      </trkpt>
      <trkpt lat="47.29272" lon="1.77171">
        <ele>82.81</ele>
        <time>2015-08-16T21:48:33Z</time>
      </trkpt>
      <trkpt lat="47.29272" lon="1.7717">
        <ele>82.81</ele>
        <time>2015-08-16T21:49:00Z</time>
      </trkpt>
      <trkpt lat="47.29271" lon="1.77169">
        <ele>82.81</ele>
        <time>2015-08-16T21:49:31Z</time>
      </trkpt>
      <trkpt lat="47.2927" lon="1.77167">
        <ele>82.81</ele>
        <time>2015-08-16T21:50:05Z</time>
      </trkpt>
      <trkpt lat="47.2927" lon="1.77166">
        <ele>82.33</ele>
        <time>2015-08-16T21:50:33Z</time>
      </trkpt>
      <trkpt lat="47.29267" lon="1.77169">
        <ele>82.33</ele>
        <time>2015-08-16T21:50:45Z</time>
      </trkpt>
      <trkpt lat="47.29266" lon="1.77171">
        <ele>82.33</ele>
        <time>2015-08-16T21:50:46Z</time>
      </trkpt>
      <trkpt lat="47.29265" lon="1.77194">
        <ele>82.33</ele>
        <time>2015-08-16T21:50:52Z</time>
      </trkpt>
      <trkpt lat="47.29264" lon="1.77262">
        <ele>81.85</ele>
        <time>2015-08-16T21:51:06Z</time>
      </trkpt>
      <trkpt lat="47.29259" lon="1.77345">
        <ele>82.33</ele>
        <time>2015-08-16T21:51:21Z</time>
      </trkpt>
      <trkpt lat="47.29258" lon="1.77437">
        <ele>82.33</ele>
        <time>2015-08-16T21:51:38Z</time>
      </trkpt>
      <trkpt lat="47.29255" lon="1.77513">
        <ele>82.33</ele>
        <time>2015-08-16T21:51:53Z</time>
      </trkpt>
      <trkpt lat="47.2925" lon="1.77579">
        <ele>83.29</ele>
        <time>2015-08-16T21:52:07Z</time>
      </trkpt>
      <trkpt lat="47.29239" lon="1.77644">
        <ele>81.37</ele>
        <time>2015-08-16T21:52:21Z</time>
      </trkpt>
      <trkpt lat="47.2923" lon="1.77712">
        <ele>80.89</ele>
        <time>2015-08-16T21:52:35Z</time>
      </trkpt>
      <trkpt lat="47.29217" lon="1.77793">
        <ele>80.41</ele>
        <time>2015-08-16T21:52:52Z</time>
      </trkpt>
      <trkpt lat="47.29205" lon="1.77866">
        <ele>80.41</ele>
        <time>2015-08-16T21:53:07Z</time>
      </trkpt>
      <trkpt lat="47.29189" lon="1.7796">
        <ele>79.45</ele>
        <time>2015-08-16T21:53:25Z</time>
      </trkpt>
      <trkpt lat="47.29172" lon="1.78069">
        <ele>79.45</ele>
        <time>2015-08-16T21:53:44Z</time>
      </trkpt>
      <trkpt lat="47.29158" lon="1.78146">
        <ele>78.97</ele>
        <time>2015-08-16T21:53:58Z</time>
      </trkpt>
      <trkpt lat="47.29147" lon="1.78212">
        <ele>78.97</ele>
        <time>2015-08-16T21:54:10Z</time>
      </trkpt>
      <trkpt lat="47.29131" lon="1.78312">
        <ele>79.45</ele>
        <time>2015-08-16T21:54:28Z</time>
      </trkpt>
      <trkpt lat="47.29116" lon="1.78403">
        <ele>79.45</ele>
        <time>2015-08-16T21:54:44Z</time>
      </trkpt>
      <trkpt lat="47.29101" lon="1.78496">
        <ele>79.93</ele>
        <time>2015-08-16T21:55:01Z</time>
      </trkpt>
      <trkpt lat="47.29087" lon="1.78574">
        <ele>79.45</ele>
        <time>2015-08-16T21:55:16Z</time>
      </trkpt>
      <trkpt lat="47.29075" lon="1.78655">
        <ele>79.45</ele>
        <time>2015-08-16T21:55:31Z</time>
      </trkpt>
      <trkpt lat="47.29057" lon="1.7876">
        <ele>79.45</ele>
        <time>2015-08-16T21:55:50Z</time>
      </trkpt>
      <trkpt lat="47.29042" lon="1.7885">
        <ele>79.45</ele>
        <time>2015-08-16T21:56:06Z</time>
      </trkpt>
      <trkpt lat="47.29028" lon="1.78927">
        <ele>79.45</ele>
        <time>2015-08-16T21:56:20Z</time>
      </trkpt>
      <trkpt lat="47.29027" lon="1.78933">
        <ele>79.45</ele>
        <time>2015-08-16T21:56:21Z</time>
      </trkpt>
      <trkpt lat="47.29025" lon="1.78946">
        <ele>79.45</ele>
        <time>2015-08-16T21:56:23Z</time>
      </trkpt>
      <trkpt lat="47.29018" lon="1.78983">
        <ele>79.45</ele>
        <time>2015-08-16T21:56:29Z</time>
      </trkpt>
      <trkpt lat="47.29004" lon="1.79077">
        <ele>79.93</ele>
        <time>2015-08-16T21:56:46Z</time>
      </trkpt>
      <trkpt lat="47.28986" lon="1.79175">
        <ele>79.93</ele>
        <time>2015-08-16T21:57:04Z</time>
      </trkpt>
      <trkpt lat="47.28974" lon="1.79263">
        <ele>79.93</ele>
        <time>2015-08-16T21:57:21Z</time>
      </trkpt>
      <trkpt lat="47.28962" lon="1.79326">
        <ele>79.45</ele>
        <time>2015-08-16T21:57:33Z</time>
      </trkpt>
      <trkpt lat="47.2895" lon="1.7941">
        <ele>79.93</ele>
        <time>2015-08-16T21:57:48Z</time>
      </trkpt>
      <trkpt lat="47.28949" lon="1.79416">
        <ele>79.45</ele>
        <time>2015-08-16T21:57:49Z</time>
      </trkpt>
      <trkpt lat="47.28948" lon="1.79421">
        <ele>79.45</ele>
        <time>2015-08-16T21:57:50Z</time>
      </trkpt>
      <trkpt lat="47.28934" lon="1.79488">
        <ele>79.93</ele>
        <time>2015-08-16T21:58:03Z</time>
      </trkpt>
      <trkpt lat="47.28923" lon="1.7956">
        <ele>79.45</ele>
        <time>2015-08-16T21:58:16Z</time>
      </trkpt>
      <trkpt lat="47.28922" lon="1.79565">
        <ele>79.45</ele>
        <time>2015-08-16T21:58:17Z</time>
      </trkpt>
      <trkpt lat="47.28913" lon="1.7963">
        <ele>79.93</ele>
        <time>2015-08-16T21:58:28Z</time>
      </trkpt>
      <trkpt lat="47.28899" lon="1.79723">
        <ele>79.93</ele>
        <time>2015-08-16T21:58:44Z</time>
      </trkpt>
      <trkpt lat="47.28883" lon="1.79823">
        <ele>79.93</ele>
        <time>2015-08-16T21:59:02Z</time>
      </trkpt>
      <trkpt lat="47.28867" lon="1.79925">
        <ele>80.41</ele>
        <time>2015-08-16T21:59:20Z</time>
      </trkpt>
      <trkpt lat="47.28857" lon="1.79993">
        <ele>80.41</ele>
        <time>2015-08-16T21:59:32Z</time>
      </trkpt>
      <trkpt lat="47.28841" lon="1.80084">
        <ele>80.41</ele>
        <time>2015-08-16T21:59:49Z</time>
      </trkpt>
      <trkpt lat="47.28822" lon="1.80188">
        <ele>79.93</ele>
        <time>2015-08-16T22:00:08Z</time>
      </trkpt>
      <trkpt lat="47.28808" lon="1.80283">
        <ele>79.93</ele>
        <time>2015-08-16T22:00:25Z</time>
      </trkpt>
      <trkpt lat="47.28794" lon="1.8039">
        <ele>79.45</ele>
        <time>2015-08-16T22:00:43Z</time>
      </trkpt>
      <trkpt lat="47.28782" lon="1.80479">
        <ele>79.93</ele>
        <time>2015-08-16T22:00:59Z</time>
      </trkpt>
      <trkpt lat="47.28776" lon="1.80536">
        <ele>80.41</ele>
        <time>2015-08-16T22:01:16Z</time>
      </trkpt>
      <trkpt lat="47.28769" lon="1.80596">
        <ele>80.41</ele>
        <time>2015-08-16T22:01:38Z</time>
      </trkpt>
      <trkpt lat="47.28759" lon="1.80623">
        <ele>79.93</ele>
        <time>2015-08-16T22:01:52Z</time>
      </trkpt>
      <trkpt lat="47.2873" lon="1.80611">
        <ele>79.93</ele>
        <time>2015-08-16T22:02:06Z</time>
      </trkpt>
      <trkpt lat="47.28728" lon="1.80608">
        <ele>79.45</ele>
        <time>2015-08-16T22:02:23Z</time>
      </trkpt>
      <trkpt lat="47.28728" lon="1.80607">
        <ele>79.45</ele>
        <time>2015-08-16T22:02:45Z</time>
      </trkpt>
      <trkpt lat="47.28729" lon="1.80608">
        <ele>79.45</ele>
        <time>2015-08-16T22:03:10Z</time>
      </trkpt>
      <trkpt lat="47.28728" lon="1.80608">
        <ele>79.93</ele>
        <time>2015-08-16T22:03:29Z</time>
      </trkpt>
      <trkpt lat="47.28724" lon="1.80606">
        <ele>78.97</ele>
        <time>2015-08-16T22:03:40Z</time>
      </trkpt>
      <trkpt lat="47.28724" lon="1.80615">
        <ele>78.97</ele>
        <time>2015-08-16T22:03:47Z</time>
      </trkpt>
      <trkpt lat="47.28719" lon="1.80634">
        <ele>78</ele>
        <time>2015-08-16T22:03:56Z</time>
      </trkpt>
      <trkpt lat="47.28715" lon="1.80666">
        <ele>76.56</ele>
        <time>2015-08-16T22:04:09Z</time>
      </trkpt>
      <trkpt lat="47.28707" lon="1.80716">
        <ele>76.08</ele>
        <time>2015-08-16T22:04:24Z</time>
      </trkpt>
      <trkpt lat="47.28702" lon="1.80757">
        <ele>76.08</ele>
        <time>2015-08-16T22:04:36Z</time>
      </trkpt>
      <trkpt lat="47.28695" lon="1.80803">
        <ele>76.08</ele>
        <time>2015-08-16T22:04:49Z</time>
      </trkpt>
      <trkpt lat="47.28688" lon="1.80859">
        <ele>76.08</ele>
        <time>2015-08-16T22:05:04Z</time>
      </trkpt>
      <trkpt lat="47.28679" lon="1.80929">
        <ele>76.08</ele>
        <time>2015-08-16T22:05:22Z</time>
      </trkpt>
      <trkpt lat="47.28672" lon="1.80991">
        <ele>76.08</ele>
        <time>2015-08-16T22:05:40Z</time>
      </trkpt>
      <trkpt lat="47.28663" lon="1.8104">
        <ele>76.08</ele>
        <time>2015-08-16T22:05:54Z</time>
      </trkpt>
      <trkpt lat="47.28652" lon="1.81099">
        <ele>76.08</ele>
        <time>2015-08-16T22:06:11Z</time>
      </trkpt>
      <trkpt lat="47.28644" lon="1.81141">
        <ele>76.08</ele>
        <time>2015-08-16T22:06:25Z</time>
      </trkpt>
      <trkpt lat="47.28634" lon="1.81203">
        <ele>75.6</ele>
        <time>2015-08-16T22:06:43Z</time>
      </trkpt>
      <trkpt lat="47.28624" lon="1.8126">
        <ele>75.6</ele>
        <time>2015-08-16T22:06:59Z</time>
      </trkpt>
      <trkpt lat="47.28611" lon="1.81325">
        <ele>75.12</ele>
        <time>2015-08-16T22:07:17Z</time>
      </trkpt>
      <trkpt lat="47.28605" lon="1.81367">
        <ele>75.12</ele>
        <time>2015-08-16T22:07:29Z</time>
      </trkpt>
      <trkpt lat="47.28595" lon="1.81409">
        <ele>75.12</ele>
        <time>2015-08-16T22:07:44Z</time>
      </trkpt>
      <trkpt lat="47.2859" lon="1.81443">
        <ele>75.12</ele>
        <time>2015-08-16T22:07:58Z</time>
      </trkpt>
      <trkpt lat="47.28588" lon="1.81448">
        <ele>75.12</ele>
        <time>2015-08-16T22:08:15Z</time>
      </trkpt>
      <trkpt lat="47.28588" lon="1.81449">
        <ele>74.64</ele>
        <time>2015-08-16T22:08:37Z</time>
      </trkpt>
      <trkpt lat="47.28589" lon="1.81449">
        <ele>74.64</ele>
        <time>2015-08-16T22:09:01Z</time>
      </trkpt>
      <trkpt lat="47.28588" lon="1.81449">
        <ele>74.16</ele>
        <time>2015-08-16T22:09:24Z</time>
      </trkpt>
      <trkpt lat="47.28589" lon="1.8145">
        <ele>74.16</ele>
        <time>2015-08-16T22:09:45Z</time>
      </trkpt>
      <trkpt lat="47.28589" lon="1.81449">
        <ele>74.16</ele>
        <time>2015-08-16T22:09:57Z</time>
      </trkpt>
      <trkpt lat="47.28589" lon="1.8145">
        <ele>75.6</ele>
        <time>2015-08-16T22:10:18Z</time>
      </trkpt>
      <trkpt lat="47.28589" lon="1.81449">
        <ele>73.68</ele>
        <time>2015-08-16T22:10:38Z</time>
      </trkpt>
      <trkpt lat="47.28589" lon="1.81453">
        <ele>73.68</ele>
        <time>2015-08-16T22:10:49Z</time>
      </trkpt>
      <trkpt lat="47.28587" lon="1.81459">
        <ele>73.68</ele>
        <time>2015-08-16T22:10:52Z</time>
      </trkpt>
      <trkpt lat="47.28577" lon="1.81506">
        <ele>73.68</ele>
        <time>2015-08-16T22:11:08Z</time>
      </trkpt>
      <trkpt lat="47.28569" lon="1.81557">
        <ele>74.16</ele>
        <time>2015-08-16T22:11:24Z</time>
      </trkpt>
      <trkpt lat="47.2856" lon="1.81607">
        <ele>73.68</ele>
        <time>2015-08-16T22:11:41Z</time>
      </trkpt>
      <trkpt lat="47.28556" lon="1.81635">
        <ele>73.68</ele>
        <time>2015-08-16T22:11:50Z</time>
      </trkpt>
      <trkpt lat="47.28546" lon="1.81692">
        <ele>73.68</ele>
        <time>2015-08-16T22:12:07Z</time>
      </trkpt>
      <trkpt lat="47.28541" lon="1.81733">
        <ele>74.64</ele>
        <time>2015-08-16T22:12:20Z</time>
      </trkpt>
      <trkpt lat="47.28543" lon="1.81736">
        <ele>75.12</ele>
        <time>2015-08-16T22:12:22Z</time>
      </trkpt>
      <trkpt lat="47.28544" lon="1.81743">
        <ele>74.64</ele>
        <time>2015-08-16T22:12:25Z</time>
      </trkpt>
      <trkpt lat="47.28535" lon="1.81755">
        <ele>74.16</ele>
        <time>2015-08-16T22:12:33Z</time>
      </trkpt>
      <trkpt lat="47.28526" lon="1.81795">
        <ele>73.68</ele>
        <time>2015-08-16T22:12:46Z</time>
      </trkpt>
      <trkpt lat="47.28511" lon="1.81852">
        <ele>73.2</ele>
        <time>2015-08-16T22:13:03Z</time>
      </trkpt>
      <trkpt lat="47.28495" lon="1.81904">
        <ele>73.68</ele>
        <time>2015-08-16T22:13:19Z</time>
      </trkpt>
      <trkpt lat="47.28484" lon="1.81947">
        <ele>73.2</ele>
        <time>2015-08-16T22:13:33Z</time>
      </trkpt>
      <trkpt lat="47.2847" lon="1.81997">
        <ele>73.2</ele>
        <time>2015-08-16T22:13:48Z</time>
      </trkpt>
      <trkpt lat="47.28456" lon="1.82046">
        <ele>73.2</ele>
        <time>2015-08-16T22:14:01Z</time>
      </trkpt>
      <trkpt lat="47.28438" lon="1.82108">
        <ele>73.68</ele>
        <time>2015-08-16T22:14:15Z</time>
      </trkpt>
      <trkpt lat="47.28423" lon="1.82159">
        <ele>73.68</ele>
        <time>2015-08-16T22:14:29Z</time>
      </trkpt>
      <trkpt lat="47.28406" lon="1.82216">
        <ele>73.68</ele>
        <time>2015-08-16T22:14:43Z</time>
      </trkpt>
      <trkpt lat="47.28387" lon="1.82285">
        <ele>74.16</ele>
        <time>2015-08-16T22:14:57Z</time>
      </trkpt>
      <trkpt lat="47.28377" lon="1.82324">
        <ele>73.68</ele>
        <time>2015-08-16T22:15:07Z</time>
      </trkpt>
      <trkpt lat="47.28362" lon="1.82378">
        <ele>73.2</ele>
        <time>2015-08-16T22:15:20Z</time>
      </trkpt>
      <trkpt lat="47.28344" lon="1.82435">
        <ele>73.2</ele>
        <time>2015-08-16T22:15:32Z</time>
      </trkpt>
      <trkpt lat="47.28328" lon="1.82493">
        <ele>73.2</ele>
        <time>2015-08-16T22:15:46Z</time>
      </trkpt>
      <trkpt lat="47.28314" lon="1.82552">
        <ele>73.68</ele>
        <time>2015-08-16T22:15:59Z</time>
      </trkpt>
      <trkpt lat="47.28314" lon="1.82556">
        <ele>73.68</ele>
        <time>2015-08-16T22:16:00Z</time>
      </trkpt>
      <trkpt lat="47.28314" lon="1.8256">
        <ele>73.68</ele>
        <time>2015-08-16T22:16:01Z</time>
      </trkpt>
      <trkpt lat="47.28314" lon="1.82563">
        <ele>74.16</ele>
        <time>2015-08-16T22:16:02Z</time>
      </trkpt>
      <trkpt lat="47.28313" lon="1.82566">
        <ele>74.16</ele>
        <time>2015-08-16T22:16:03Z</time>
      </trkpt>
      <trkpt lat="47.28312" lon="1.82569">
        <ele>74.16</ele>
        <time>2015-08-16T22:16:04Z</time>
      </trkpt>
      <trkpt lat="47.28312" lon="1.82573">
        <ele>74.16</ele>
        <time>2015-08-16T22:16:05Z</time>
      </trkpt>
      <trkpt lat="47.28311" lon="1.82577">
        <ele>74.16</ele>
        <time>2015-08-16T22:16:06Z</time>
      </trkpt>
      <trkpt lat="47.28311" lon="1.8258">
        <ele>74.16</ele>
        <time>2015-08-16T22:16:07Z</time>
      </trkpt>
      <trkpt lat="47.28312" lon="1.82583">
        <ele>74.16</ele>
        <time>2015-08-16T22:16:08Z</time>
      </trkpt>
      <trkpt lat="47.28313" lon="1.82585">
        <ele>74.16</ele>
        <time>2015-08-16T22:16:09Z</time>
      </trkpt>
      <trkpt lat="47.28314" lon="1.82587">
        <ele>74.16</ele>
        <time>2015-08-16T22:16:10Z</time>
      </trkpt>
      <trkpt lat="47.28316" lon="1.82587">
        <ele>74.64</ele>
        <time>2015-08-16T22:16:11Z</time>
      </trkpt>
      <trkpt lat="47.28317" lon="1.82589">
        <ele>74.16</ele>
        <time>2015-08-16T22:16:12Z</time>
      </trkpt>
      <trkpt lat="47.28318" lon="1.8259">
        <ele>74.16</ele>
        <time>2015-08-16T22:16:13Z</time>
      </trkpt>
      <trkpt lat="47.2832" lon="1.8259">
        <ele>74.16</ele>
        <time>2015-08-16T22:16:14Z</time>
      </trkpt>
      <trkpt lat="47.28321" lon="1.82591">
        <ele>74.16</ele>
        <time>2015-08-16T22:16:15Z</time>
      </trkpt>
      <trkpt lat="47.28322" lon="1.82592">
        <ele>74.16</ele>
        <time>2015-08-16T22:16:16Z</time>
      </trkpt>
      <trkpt lat="47.28324" lon="1.82593">
        <ele>73.68</ele>
        <time>2015-08-16T22:16:17Z</time>
      </trkpt>
      <trkpt lat="47.28325" lon="1.82593">
        <ele>73.68</ele>
        <time>2015-08-16T22:16:18Z</time>
      </trkpt>
      <trkpt lat="47.28344" lon="1.82604">
        <ele>73.68</ele>
        <time>2015-08-16T22:16:27Z</time>
      </trkpt>
      <trkpt lat="47.28346" lon="1.82604">
        <ele>73.68</ele>
        <time>2015-08-16T22:16:28Z</time>
      </trkpt>
      <trkpt lat="47.28348" lon="1.82604">
        <ele>73.68</ele>
        <time>2015-08-16T22:16:29Z</time>
      </trkpt>
      <trkpt lat="47.28369" lon="1.82621">
        <ele>75.12</ele>
        <time>2015-08-16T22:16:40Z</time>
      </trkpt>
      <trkpt lat="47.28372" lon="1.82624">
        <ele>75.12</ele>
        <time>2015-08-16T22:16:41Z</time>
      </trkpt>
      <trkpt lat="47.28375" lon="1.82627">
        <ele>75.6</ele>
        <time>2015-08-16T22:16:42Z</time>
      </trkpt>
      <trkpt lat="47.28379" lon="1.82628">
        <ele>75.6</ele>
        <time>2015-08-16T22:16:43Z</time>
      </trkpt>
      <trkpt lat="47.28383" lon="1.82628">
        <ele>76.08</ele>
        <time>2015-08-16T22:16:44Z</time>
      </trkpt>
      <trkpt lat="47.28387" lon="1.82626">
        <ele>76.08</ele>
        <time>2015-08-16T22:16:45Z</time>
      </trkpt>
      <trkpt lat="47.28411" lon="1.82588">
        <ele>77.52</ele>
        <time>2015-08-16T22:16:53Z</time>
      </trkpt>
      <trkpt lat="47.28414" lon="1.82583">
        <ele>78</ele>
        <time>2015-08-16T22:16:54Z</time>
      </trkpt>
      <trkpt lat="47.28417" lon="1.82579">
        <ele>78</ele>
        <time>2015-08-16T22:16:55Z</time>
      </trkpt>
      <trkpt lat="47.28419" lon="1.82574">
        <ele>78</ele>
        <time>2015-08-16T22:16:56Z</time>
      </trkpt>
      <trkpt lat="47.28422" lon="1.8257">
        <ele>78.48</ele>
        <time>2015-08-16T22:16:57Z</time>
      </trkpt>
      <trkpt lat="47.28426" lon="1.82567">
        <ele>78.48</ele>
        <time>2015-08-16T22:16:58Z</time>
      </trkpt>
      <trkpt lat="47.2843" lon="1.82564">
        <ele>78.48</ele>
        <time>2015-08-16T22:16:59Z</time>
      </trkpt>
      <trkpt lat="47.28433" lon="1.82564">
        <ele>78.97</ele>
        <time>2015-08-16T22:17:00Z</time>
      </trkpt>
      <trkpt lat="47.28446" lon="1.82581">
        <ele>80.41</ele>
        <time>2015-08-16T22:17:05Z</time>
      </trkpt>
      <trkpt lat="47.28454" lon="1.82595">
        <ele>80.41</ele>
        <time>2015-08-16T22:17:08Z</time>
      </trkpt>
      <trkpt lat="47.28456" lon="1.826">
        <ele>80.89</ele>
        <time>2015-08-16T22:17:09Z</time>
      </trkpt>
      <trkpt lat="47.28459" lon="1.82605">
        <ele>80.89</ele>
        <time>2015-08-16T22:17:10Z</time>
      </trkpt>
      <trkpt lat="47.2846" lon="1.82609">
        <ele>81.37</ele>
        <time>2015-08-16T22:17:11Z</time>
      </trkpt>
      <trkpt lat="47.28461" lon="1.82613">
        <ele>81.37</ele>
        <time>2015-08-16T22:17:12Z</time>
      </trkpt>
      <trkpt lat="47.28475" lon="1.82633">
        <ele>82.33</ele>
        <time>2015-08-16T22:17:20Z</time>
      </trkpt>
      <trkpt lat="47.28477" lon="1.82634">
        <ele>82.33</ele>
        <time>2015-08-16T22:17:21Z</time>
      </trkpt>
      <trkpt lat="47.28478" lon="1.82636">
        <ele>82.33</ele>
        <time>2015-08-16T22:17:22Z</time>
      </trkpt>
      <trkpt lat="47.2848" lon="1.82637">
        <ele>82.33</ele>
        <time>2015-08-16T22:17:23Z</time>
      </trkpt>
      <trkpt lat="47.28481" lon="1.82638">
        <ele>82.33</ele>
        <time>2015-08-16T22:17:24Z</time>
      </trkpt>
      <trkpt lat="47.28483" lon="1.82638">
        <ele>83.77</ele>
        <time>2015-08-16T22:17:33Z</time>
      </trkpt>
      <trkpt lat="47.28483" lon="1.82638">
        <ele>79.93</ele>
        <time>2015-08-16T22:17:34Z</time>
      </trkpt>
      <trkpt lat="47.28483" lon="1.82638">
        <ele>85.69</ele>
        <time>2015-08-16T22:17:35Z</time>
      </trkpt>
      <trkpt lat="47.28484" lon="1.82638">
        <ele>81.85</ele>
        <time>2015-08-16T22:17:54Z</time>
      </trkpt>
      <trkpt lat="47.28484" lon="1.82636">
        <ele>81.85</ele>
        <time>2015-08-16T22:18:19Z</time>
      </trkpt>
      <trkpt lat="47.28484" lon="1.82636">
        <ele>81.37</ele>
        <time>2015-08-16T22:18:45Z</time>
      </trkpt>
      <trkpt lat="47.28484" lon="1.82637">
        <ele>81.37</ele>
        <time>2015-08-16T22:18:59Z</time>
      </trkpt>
      <trkpt lat="47.28486" lon="1.82638">
        <ele>81.37</ele>
        <time>2015-08-16T22:19:00Z</time>
      </trkpt>
      <trkpt lat="47.28479" lon="1.82673">
        <ele>83.29</ele>
        <time>2015-08-16T22:19:09Z</time>
      </trkpt>
      <trkpt lat="47.28451" lon="1.82748">
        <ele>82.81</ele>
        <time>2015-08-16T22:19:28Z</time>
      </trkpt>
      <trkpt lat="47.28424" lon="1.82824">
        <ele>82.33</ele>
        <time>2015-08-16T22:19:44Z</time>
      </trkpt>
      <trkpt lat="47.28393" lon="1.82913">
        <ele>81.37</ele>
        <time>2015-08-16T22:20:03Z</time>
      </trkpt>
      <trkpt lat="47.28361" lon="1.83005">
        <ele>80.41</ele>
        <time>2015-08-16T22:20:22Z</time>
      </trkpt>
      <trkpt lat="47.28333" lon="1.83073">
        <ele>79.45</ele>
        <time>2015-08-16T22:20:37Z</time>
      </trkpt>
      <trkpt lat="47.28298" lon="1.83159">
        <ele>78.97</ele>
        <time>2015-08-16T22:20:56Z</time>
      </trkpt>
      <trkpt lat="47.2826" lon="1.83248">
        <ele>78.97</ele>
        <time>2015-08-16T22:21:15Z</time>
      </trkpt>
      <trkpt lat="47.28258" lon="1.83253">
        <ele>78.97</ele>
        <time>2015-08-16T22:21:16Z</time>
      </trkpt>
      <trkpt lat="47.28252" lon="1.83268">
        <ele>79.45</ele>
        <time>2015-08-16T22:21:19Z</time>
      </trkpt>
      <trkpt lat="47.28221" lon="1.83342">
        <ele>79.93</ele>
        <time>2015-08-16T22:21:35Z</time>
      </trkpt>
      <trkpt lat="47.28199" lon="1.83391">
        <ele>79.93</ele>
        <time>2015-08-16T22:21:50Z</time>
      </trkpt>
      <trkpt lat="47.28177" lon="1.8344">
        <ele>79.45</ele>
        <time>2015-08-16T22:22:05Z</time>
      </trkpt>
      <trkpt lat="47.28158" lon="1.83478">
        <ele>78.48</ele>
        <time>2015-08-16T22:22:18Z</time>
      </trkpt>
      <trkpt lat="47.28139" lon="1.83518">
        <ele>77.04</ele>
        <time>2015-08-16T22:22:31Z</time>
      </trkpt>
      <trkpt lat="47.28116" lon="1.83565">
        <ele>75.12</ele>
        <time>2015-08-16T22:22:46Z</time>
      </trkpt>
      <trkpt lat="47.2807" lon="1.83647">
        <ele>74.16</ele>
        <time>2015-08-16T22:23:06Z</time>
      </trkpt>
      <trkpt lat="47.28036" lon="1.83707">
        <ele>73.68</ele>
        <time>2015-08-16T22:23:22Z</time>
      </trkpt>
      <trkpt lat="47.27988" lon="1.83784">
        <ele>71.27</ele>
        <time>2015-08-16T22:23:42Z</time>
      </trkpt>
      <trkpt lat="47.27945" lon="1.83884">
        <ele>71.27</ele>
        <time>2015-08-16T22:23:59Z</time>
      </trkpt>
      <trkpt lat="47.27897" lon="1.84011">
        <ele>71.76</ele>
        <time>2015-08-16T22:24:21Z</time>
      </trkpt>
      <trkpt lat="47.27859" lon="1.84111">
        <ele>71.27</ele>
        <time>2015-08-16T22:24:40Z</time>
      </trkpt>
      <trkpt lat="47.27821" lon="1.84216">
        <ele>71.27</ele>
        <time>2015-08-16T22:24:58Z</time>
      </trkpt>
      <trkpt lat="47.27774" lon="1.84332">
        <ele>71.76</ele>
        <time>2015-08-16T22:25:18Z</time>
      </trkpt>
      <trkpt lat="47.27737" lon="1.84425">
        <ele>73.2</ele>
        <time>2015-08-16T22:25:34Z</time>
      </trkpt>
      <trkpt lat="47.27699" lon="1.84516">
        <ele>71.76</ele>
        <time>2015-08-16T22:25:53Z</time>
      </trkpt>
      <trkpt lat="47.27653" lon="1.84619">
        <ele>71.76</ele>
        <time>2015-08-16T22:26:11Z</time>
      </trkpt>
      <trkpt lat="47.27607" lon="1.84721">
        <ele>73.2</ele>
        <time>2015-08-16T22:26:28Z</time>
      </trkpt>
      <trkpt lat="47.27597" lon="1.84748">
        <ele>73.2</ele>
        <time>2015-08-16T22:26:33Z</time>
      </trkpt>
      <trkpt lat="47.27563" lon="1.84844">
        <ele>72.24</ele>
        <time>2015-08-16T22:26:51Z</time>
      </trkpt>
      <trkpt lat="47.27525" lon="1.84953">
        <ele>71.27</ele>
        <time>2015-08-16T22:27:10Z</time>
      </trkpt>
      <trkpt lat="47.27524" lon="1.84959">
        <ele>70.79</ele>
        <time>2015-08-16T22:27:11Z</time>
      </trkpt>
      <trkpt lat="47.27498" lon="1.85045">
        <ele>70.79</ele>
        <time>2015-08-16T22:27:25Z</time>
      </trkpt>
      <trkpt lat="47.27465" lon="1.85159">
        <ele>70.31</ele>
        <time>2015-08-16T22:27:42Z</time>
      </trkpt>
      <trkpt lat="47.27445" lon="1.85273">
        <ele>72.24</ele>
        <time>2015-08-16T22:27:58Z</time>
      </trkpt>
      <trkpt lat="47.27428" lon="1.85322">
        <ele>72.72</ele>
        <time>2015-08-16T22:28:09Z</time>
      </trkpt>
      <trkpt lat="47.27398" lon="1.85349">
        <ele>72.72</ele>
        <time>2015-08-16T22:28:21Z</time>
      </trkpt>
      <trkpt lat="47.27359" lon="1.85371">
        <ele>69.83</ele>
        <time>2015-08-16T22:28:36Z</time>
      </trkpt>
      <trkpt lat="47.27327" lon="1.85421">
        <ele>69.83</ele>
        <time>2015-08-16T22:28:50Z</time>
      </trkpt>
      <trkpt lat="47.27312" lon="1.8543">
        <ele>69.35</ele>
        <time>2015-08-16T22:28:57Z</time>
      </trkpt>
      <trkpt lat="47.27296" lon="1.85414">
        <ele>68.87</ele>
        <time>2015-08-16T22:29:06Z</time>
      </trkpt>
      <trkpt lat="47.2729" lon="1.85411">
        <ele>68.39</ele>
        <time>2015-08-16T22:29:10Z</time>
      </trkpt>
      <trkpt lat="47.27277" lon="1.85433">
        <ele>68.39</ele>
        <time>2015-08-16T22:29:18Z</time>
      </trkpt>
      <trkpt lat="47.27262" lon="1.85459">
        <ele>67.91</ele>
        <time>2015-08-16T22:29:28Z</time>
      </trkpt>
      <trkpt lat="47.27247" lon="1.8549">
        <ele>67.91</ele>
        <time>2015-08-16T22:29:40Z</time>
      </trkpt>
      <trkpt lat="47.27226" lon="1.85535">
        <ele>67.91</ele>
        <time>2015-08-16T22:29:53Z</time>
      </trkpt>
      <trkpt lat="47.27206" lon="1.8558">
        <ele>67.43</ele>
        <time>2015-08-16T22:30:08Z</time>
      </trkpt>
      <trkpt lat="47.272" lon="1.85595">
        <ele>67.43</ele>
        <time>2015-08-16T22:30:13Z</time>
      </trkpt>
      <trkpt lat="47.27197" lon="1.85601">
        <ele>67.43</ele>
        <time>2015-08-16T22:30:16Z</time>
      </trkpt>
      <trkpt lat="47.27182" lon="1.85633">
        <ele>67.43</ele>
        <time>2015-08-16T22:30:29Z</time>
      </trkpt>
      <trkpt lat="47.27173" lon="1.85665">
        <ele>66.95</ele>
        <time>2015-08-16T22:30:40Z</time>
      </trkpt>
      <trkpt lat="47.27162" lon="1.85704">
        <ele>66.95</ele>
        <time>2015-08-16T22:30:52Z</time>
      </trkpt>
      <trkpt lat="47.27146" lon="1.85754">
        <ele>66.95</ele>
        <time>2015-08-16T22:31:08Z</time>
      </trkpt>
      <trkpt lat="47.27143" lon="1.8577">
        <ele>66.95</ele>
        <time>2015-08-16T22:31:13Z</time>
      </trkpt>
      <trkpt lat="47.27132" lon="1.85818">
        <ele>66.47</ele>
        <time>2015-08-16T22:31:28Z</time>
      </trkpt>
      <trkpt lat="47.27119" lon="1.85864">
        <ele>66.47</ele>
        <time>2015-08-16T22:31:43Z</time>
      </trkpt>
      <trkpt lat="47.27106" lon="1.85905">
        <ele>66.47</ele>
        <time>2015-08-16T22:31:57Z</time>
      </trkpt>
      <trkpt lat="47.27089" lon="1.85944">
        <ele>65.99</ele>
        <time>2015-08-16T22:32:11Z</time>
      </trkpt>
      <trkpt lat="47.2707" lon="1.85984">
        <ele>65.51</ele>
        <time>2015-08-16T22:32:25Z</time>
      </trkpt>
      <trkpt lat="47.27056" lon="1.86018">
        <ele>65.51</ele>
        <time>2015-08-16T22:32:37Z</time>
      </trkpt>
      <trkpt lat="47.2704" lon="1.86056">
        <ele>65.03</ele>
        <time>2015-08-16T22:32:51Z</time>
      </trkpt>
      <trkpt lat="47.27023" lon="1.86096">
        <ele>65.03</ele>
        <time>2015-08-16T22:33:04Z</time>
      </trkpt>
      <trkpt lat="47.27008" lon="1.86128">
        <ele>65.03</ele>
        <time>2015-08-16T22:33:16Z</time>
      </trkpt>
      <trkpt lat="47.26986" lon="1.86174">
        <ele>64.55</ele>
        <time>2015-08-16T22:33:32Z</time>
      </trkpt>
      <trkpt lat="47.26967" lon="1.86219">
        <ele>64.07</ele>
        <time>2015-08-16T22:33:47Z</time>
      </trkpt>
      <trkpt lat="47.26963" lon="1.86228">
        <ele>63.58</ele>
        <time>2015-08-16T22:34:10Z</time>
      </trkpt>
      <trkpt lat="47.26949" lon="1.86261">
        <ele>63.58</ele>
        <time>2015-08-16T22:34:24Z</time>
      </trkpt>
      <trkpt lat="47.26925" lon="1.86319">
        <ele>63.58</ele>
        <time>2015-08-16T22:34:39Z</time>
      </trkpt>
      <trkpt lat="47.26905" lon="1.86382">
        <ele>63.1</ele>
        <time>2015-08-16T22:34:55Z</time>
      </trkpt>
      <trkpt lat="47.26899" lon="1.86408">
        <ele>63.1</ele>
        <time>2015-08-16T22:35:05Z</time>
      </trkpt>
      <trkpt lat="47.26899" lon="1.86408">
        <ele>66.95</ele>
        <time>2015-08-16T22:35:06Z</time>
      </trkpt>
      <trkpt lat="47.26899" lon="1.86408">
        <ele>58.3</ele>
        <time>2015-08-16T22:35:07Z</time>
      </trkpt>
      <trkpt lat="47.26899" lon="1.86407">
        <ele>62.14</ele>
        <time>2015-08-16T22:35:22Z</time>
      </trkpt>
      <trkpt lat="47.26899" lon="1.86407">
        <ele>65.03</ele>
        <time>2015-08-16T22:35:23Z</time>
      </trkpt>
      <trkpt lat="47.26899" lon="1.86407">
        <ele>61.66</ele>
        <time>2015-08-16T22:35:24Z</time>
      </trkpt>
      <trkpt lat="47.26899" lon="1.86407">
        <ele>61.18</ele>
        <time>2015-08-16T22:35:25Z</time>
      </trkpt>
      <trkpt lat="47.26899" lon="1.86407">
        <ele>64.07</ele>
        <time>2015-08-16T22:35:26Z</time>
      </trkpt>
      <trkpt lat="47.26899" lon="1.86407">
        <ele>63.58</ele>
        <time>2015-08-16T22:35:28Z</time>
      </trkpt>
      <trkpt lat="47.26899" lon="1.86407">
        <ele>57.82</ele>
        <time>2015-08-16T22:35:29Z</time>
      </trkpt>
      <trkpt lat="47.269" lon="1.86407">
        <ele>65.03</ele>
        <time>2015-08-16T22:35:30Z</time>
      </trkpt>
      <trkpt lat="47.269" lon="1.86407">
        <ele>58.78</ele>
        <time>2015-08-16T22:35:31Z</time>
      </trkpt>
      <trkpt lat="47.269" lon="1.86407">
        <ele>62.14</ele>
        <time>2015-08-16T22:35:34Z</time>
      </trkpt>
      <trkpt lat="47.26894" lon="1.86434">
        <ele>62.14</ele>
        <time>2015-08-16T22:35:46Z</time>
      </trkpt>
      <trkpt lat="47.26874" lon="1.86472">
        <ele>62.14</ele>
        <time>2015-08-16T22:36:01Z</time>
      </trkpt>
      <trkpt lat="47.26862" lon="1.86524">
        <ele>61.66</ele>
        <time>2015-08-16T22:36:19Z</time>
      </trkpt>
      <trkpt lat="47.26859" lon="1.86543">
        <ele>61.66</ele>
        <time>2015-08-16T22:36:29Z</time>
      </trkpt>
      <trkpt lat="47.26858" lon="1.86545">
        <ele>61.66</ele>
        <time>2015-08-16T22:36:31Z</time>
      </trkpt>
      <trkpt lat="47.26859" lon="1.8656">
        <ele>61.18</ele>
        <time>2015-08-16T22:36:41Z</time>
      </trkpt>
      <trkpt lat="47.26852" lon="1.86557">
        <ele>60.22</ele>
        <time>2015-08-16T22:36:46Z</time>
      </trkpt>
      <trkpt lat="47.2685" lon="1.86537">
        <ele>59.74</ele>
        <time>2015-08-16T22:36:51Z</time>
      </trkpt>
      <trkpt lat="47.26861" lon="1.86483">
        <ele>59.74</ele>
        <time>2015-08-16T22:37:07Z</time>
      </trkpt>
      <trkpt lat="47.26867" lon="1.86462">
        <ele>59.26</ele>
        <time>2015-08-16T22:37:15Z</time>
      </trkpt>
      <trkpt lat="47.26881" lon="1.86416">
        <ele>59.26</ele>
        <time>2015-08-16T22:37:30Z</time>
      </trkpt>
      <trkpt lat="47.26897" lon="1.86351">
        <ele>58.3</ele>
        <time>2015-08-16T22:37:47Z</time>
      </trkpt>
      <trkpt lat="47.26908" lon="1.86296">
        <ele>57.82</ele>
        <time>2015-08-16T22:38:03Z</time>
      </trkpt>
      <trkpt lat="47.26893" lon="1.86269">
        <ele>57.82</ele>
        <time>2015-08-16T22:38:14Z</time>
      </trkpt>
      <trkpt lat="47.2686" lon="1.8626">
        <ele>57.34</ele>
        <time>2015-08-16T22:38:27Z</time>
      </trkpt>
      <trkpt lat="47.26836" lon="1.86251">
        <ele>56.86</ele>
        <time>2015-08-16T22:38:39Z</time>
      </trkpt>
      <trkpt lat="47.2683" lon="1.86243">
        <ele>56.86</ele>
        <time>2015-08-16T22:38:45Z</time>
      </trkpt>
      <trkpt lat="47.26842" lon="1.86223">
        <ele>56.37</ele>
        <time>2015-08-16T22:38:58Z</time>
      </trkpt>
      <trkpt lat="47.26849" lon="1.86226">
        <ele>56.37</ele>
        <time>2015-08-16T22:39:03Z</time>
      </trkpt>
      <trkpt lat="47.2685" lon="1.86228">
        <ele>56.37</ele>
        <time>2015-08-16T22:39:08Z</time>
      </trkpt>
      <trkpt lat="47.2685" lon="1.86228">
        <ele>55.89</ele>
        <time>2015-08-16T22:39:26Z</time>
      </trkpt>
      <trkpt lat="47.2685" lon="1.86229">
        <ele>54.93</ele>
        <time>2015-08-16T22:39:58Z</time>
      </trkpt>
      <trkpt lat="47.26852" lon="1.8623">
        <ele>54.45</ele>
        <time>2015-08-16T22:40:27Z</time>
      </trkpt>
      <trkpt lat="47.26853" lon="1.86236">
        <ele>54.45</ele>
        <time>2015-08-16T22:40:40Z</time>
      </trkpt>
      <trkpt lat="47.26852" lon="1.86238">
        <ele>53.97</ele>
        <time>2015-08-16T22:40:54Z</time>
      </trkpt>
      <trkpt lat="47.26851" lon="1.86239">
        <ele>53.49</ele>
        <time>2015-08-16T22:41:09Z</time>
      </trkpt>
      <trkpt lat="47.26851" lon="1.86239">
        <ele>53.01</ele>
        <time>2015-08-16T22:41:41Z</time>
      </trkpt>
      <trkpt lat="47.26851" lon="1.86238">
        <ele>52.05</ele>
        <time>2015-08-16T22:42:13Z</time>
      </trkpt>
      <trkpt lat="47.26851" lon="1.86242">
        <ele>50.61</ele>
        <time>2015-08-16T22:42:48Z</time>
      </trkpt>
      <trkpt lat="47.26851" lon="1.86242">
        <ele>53.97</ele>
        <time>2015-08-16T22:42:50Z</time>
      </trkpt>
      <trkpt lat="47.26851" lon="1.86242">
        <ele>50.13</ele>
        <time>2015-08-16T22:42:51Z</time>
      </trkpt>
      <trkpt lat="47.26851" lon="1.86242">
        <ele>53.49</ele>
        <time>2015-08-16T22:42:52Z</time>
      </trkpt>
      <trkpt lat="47.26851" lon="1.86242">
        <ele>48.68</ele>
        <time>2015-08-16T22:42:53Z</time>
      </trkpt>
      <trkpt lat="47.26854" lon="1.86245">
        <ele>50.13</ele>
        <time>2015-08-16T22:43:28Z</time>
      </trkpt>
      <trkpt lat="47.26859" lon="1.86236">
        <ele>49.65</ele>
        <time>2015-08-16T22:43:56Z</time>
      </trkpt>
      <trkpt lat="47.26848" lon="1.86232">
        <ele>49.16</ele>
        <time>2015-08-16T22:44:32Z</time>
      </trkpt>
      <trkpt lat="47.26848" lon="1.86231">
        <ele>49.16</ele>
        <time>2015-08-16T22:44:33Z</time>
      </trkpt>
      <trkpt lat="47.26829" lon="1.86237">
        <ele>89.06</ele>
        <time>2015-08-17T14:09:23Z</time>
      </trkpt>
      <trkpt lat="47.26829" lon="1.86245">
        <ele>89.54</ele>
        <time>2015-08-17T14:09:35Z</time>
      </trkpt>
      <trkpt lat="47.26831" lon="1.8625">
        <ele>89.54</ele>
        <time>2015-08-17T14:09:37Z</time>
      </trkpt>
      <trkpt lat="47.26865" lon="1.86261">
        <ele>90.02</ele>
        <time>2015-08-17T14:09:49Z</time>
      </trkpt>
      <trkpt lat="47.26903" lon="1.86275">
        <ele>90.02</ele>
        <time>2015-08-17T14:10:04Z</time>
      </trkpt>
      <trkpt lat="47.26909" lon="1.86278">
        <ele>90.02</ele>
        <time>2015-08-17T14:10:08Z</time>
      </trkpt>
      <trkpt lat="47.26911" lon="1.86277">
        <ele>90.98</ele>
        <time>2015-08-17T14:10:09Z</time>
      </trkpt>
      <trkpt lat="47.26912" lon="1.86277">
        <ele>90.02</ele>
        <time>2015-08-17T14:10:10Z</time>
      </trkpt>
      <trkpt lat="47.26913" lon="1.86276">
        <ele>89.54</ele>
        <time>2015-08-17T14:10:11Z</time>
      </trkpt>
      <trkpt lat="47.26914" lon="1.86277">
        <ele>89.54</ele>
        <time>2015-08-17T14:10:12Z</time>
      </trkpt>
      <trkpt lat="47.26914" lon="1.86277">
        <ele>89.54</ele>
        <time>2015-08-17T14:10:16Z</time>
      </trkpt>
      <trkpt lat="47.26914" lon="1.86277">
        <ele>95.31</ele>
        <time>2015-08-17T14:10:17Z</time>
      </trkpt>
      <trkpt lat="47.26914" lon="1.86277">
        <ele>90.02</ele>
        <time>2015-08-17T14:10:26Z</time>
      </trkpt>
      <trkpt lat="47.26913" lon="1.86278">
        <ele>90.02</ele>
        <time>2015-08-17T14:10:54Z</time>
      </trkpt>
      <trkpt lat="47.26913" lon="1.86278">
        <ele>90.02</ele>
        <time>2015-08-17T14:11:24Z</time>
      </trkpt>
      <trkpt lat="47.26914" lon="1.86278">
        <ele>89.54</ele>
        <time>2015-08-17T14:11:58Z</time>
      </trkpt>
      <trkpt lat="47.26914" lon="1.86278">
        <ele>90.02</ele>
        <time>2015-08-17T14:12:38Z</time>
      </trkpt>
      <trkpt lat="47.26914" lon="1.86279">
        <ele>90.02</ele>
        <time>2015-08-17T14:13:18Z</time>
      </trkpt>
      <trkpt lat="47.26914" lon="1.86277">
        <ele>90.02</ele>
        <time>2015-08-17T14:13:58Z</time>
      </trkpt>
      <trkpt lat="47.26914" lon="1.86278">
        <ele>90.02</ele>
        <time>2015-08-17T14:14:37Z</time>
      </trkpt>
      <trkpt lat="47.26912" lon="1.86279">
        <ele>89.54</ele>
        <time>2015-08-17T14:15:14Z</time>
      </trkpt>
      <trkpt lat="47.26911" lon="1.86279">
        <ele>89.54</ele>
        <time>2015-08-17T14:15:53Z</time>
      </trkpt>
      <trkpt lat="47.2691" lon="1.86279">
        <ele>89.54</ele>
        <time>2015-08-17T14:16:24Z</time>
      </trkpt>
      <trkpt lat="47.26911" lon="1.86279">
        <ele>89.54</ele>
        <time>2015-08-17T14:16:58Z</time>
      </trkpt>
      <trkpt lat="47.26914" lon="1.86279">
        <ele>89.54</ele>
        <time>2015-08-17T14:17:39Z</time>
      </trkpt>
      <trkpt lat="47.26914" lon="1.86278">
        <ele>89.54</ele>
        <time>2015-08-17T14:18:15Z</time>
      </trkpt>
      <trkpt lat="47.26914" lon="1.86278">
        <ele>89.54</ele>
        <time>2015-08-17T14:18:46Z</time>
      </trkpt>
      <trkpt lat="47.26912" lon="1.86282">
        <ele>89.54</ele>
        <time>2015-08-17T14:19:04Z</time>
      </trkpt>
      <trkpt lat="47.26912" lon="1.86283">
        <ele>89.54</ele>
        <time>2015-08-17T14:19:14Z</time>
      </trkpt>
      <trkpt lat="47.26905" lon="1.86315">
        <ele>90.02</ele>
        <time>2015-08-17T14:19:26Z</time>
      </trkpt>
      <trkpt lat="47.26891" lon="1.8638">
        <ele>90.02</ele>
        <time>2015-08-17T14:19:39Z</time>
      </trkpt>
    </trkseg>
  </trk>
</gpx>